     2.10           OBSERVATION DATA    G (GPS)             RINEX VERSION / TYPE
teqc 2005May6 SOPAC 20050822 21:27:32UTC                    PGM / RUN BY / DATE
Linux 2.4.20-8|Pentium IV|gcc|Linux|486/DX+                 COMMENT
BIT 2 OF LLI FLAGS DATA COLLECTED UNDER A/S CONDITION       COMMENT
E 1436                                                      MARKER NAME
1436                                                        MARKER NUMBER
Jason Long                                                  OBSERVER / AGENCY
0220247382 TRIMBLE 5700 2.01                                REC # / TYPE / VERS
12237024 TRM41249.00 NONE                                   ANT # / TYPE
 -2734204.0000 -4085766.0000  4049771.0000                  APPROX POSITION XYZ
        2.0000        0.0000        0.0000                  ANTENNA: DELTA H/E/N
     1     1                                                WAVELENGTH FACT L1/2
     6    L1    L2    C1    P2    P1    D1                  # / TYPES OF OBSERV
    15.0000                                                 INTERVAL
Northern California Height Modernization 2004               COMMENT
                                                            COMMENT
SOPAC - Scripps Orbit and Permanent Array Center            COMMENT
IGPP - Institute of Geophysics and Planetary Physics        COMMENT
SIO - Scripps Institution of Oceanography                   COMMENT
UCSD - University of California, San Diego                  COMMENT
                                                            COMMENT
email: archive@gpsmail.ucsd.edu                             COMMENT
ftp://garner.ucsd.edu                                       COMMENT
http://sopac.ucsd.edu                                       COMMENT
                                                            COMMENT
                                                            COMMENT
Approximate Lat, Lon : 39.669, -123.791                     COMMENT
                                                            COMMENT
SNR is mapped to RINEX snr flag value [0-9]                 COMMENT
L1 & L2: 2-19 dBHz = 1, 20-27 dBHz = 2, 28-31 dBHz = 3      COMMENT
32-35 dBHz = 4, 36-38 dBHz = 5, 39-41 dBHz = 6              COMMENT
42-44 dBHz = 7, 45-48 dBHz = 8, >= 49 dBHz = 9              COMMENT
  2004     9    13    20    23   30.0000000     GPS         TIME OF FIRST OBS
                                                            END OF HEADER
 04  9 13 20 23 30.0000000  0  7G 3G 8G13G16G20G23G27
   -372570.79757   -285076.72352  23495155.1094   23495156.3594

   -796312.04357   -601198.55553  23307419.9774   23307420.5744

     65953.48059     46433.79357  20253020.6484   20253018.2034

   1659371.49257   1242412.63352  23420727.4304   23420726.6884

   2014890.63756   1513581.98052  23938212.9384   23938215.1414

   1116239.42259    835242.08656  20956693.5164   20956689.5234

   -266297.38759   -203158.56655  21669188.9774   21669187.7664

 04  9 13 20 23 45.0000000  0  7G 3G 8G13G16G20G23G27
   -383622.43046   -293688.35242  23493052.3284   23493053.8674
       736.7764
   -822780.28147   -621823.11742  23302383.2194   23302383.4414
      1764.5494
     70145.04349     49699.94147  20253818.2584   20253815.6524
      -279.4374
   1718606.34047   1288569.62942  23431999.9384   23431998.9184
     -3948.9904
   2085886.52746   1568903.32442  23951722.8524   23951725.5744
     -4733.0594
   1156802.77749    866849.87146  20964412.7974   20964408.2814
     -2704.2244
   -274253.12549   -209357.84045  21667674.9774   21667673.6604
       530.3834
 04  9 13 20 24  0.0000000  0  7G 3G 8G13G16G20G23G27
   -394554.96546   -302207.16442  23490971.2424   23490973.1094
       728.8364
   -849188.25847   -642400.73843  23297357.5474   23297358.2304
      1760.5324
     74449.64849     53054.18046  20254637.4224   20254634.6174
      -286.9744
   1777933.88347   1334798.84842  23443289.2034   23443288.6484
     -3955.1704
   2156921.67246   1624255.26642  23965240.9224   23965242.5044
     -4735.6764
   1197477.83249    898544.68846  20972153.3984   20972148.3594
     -2711.6704
   -282140.68749   -215503.97745  21666173.9144   21666172.8244
       525.8384
 04  9 13 20 24 15.0000000  0  7G 3G 8G13G16G20G23G27
   -405369.54346   -310634.10942  23488913.1024   23488914.7734
       720.9724
   -875537.18447   -662932.34043  23292343.8134   23292344.7544
      1756.5954
     78865.95749     56495.45346  20255477.6644   20255475.2624
      -294.4214
   1837352.46147   1381098.96142  23454596.4844   23454595.4064
     -3961.2394
   2227994.39846   1679636.47742  23978765.3524   23978766.7774
     -4738.1824
   1238263.12149    930325.41046  20979914.0084   20979910.0744
     -2719.0194
   -289961.53549   -221598.13745  21664685.6484   21664684.6764
       521.3904
 04  9 13 20 24 30.0000000  0  7G 3G 8G13G16G20G23G27
   -416068.12146   -318970.60542  23486877.6564   23486879.9534
       713.2394
   -901829.30547   -683419.69543  23287341.0944   23287340.9384
      1752.8084
     83391.85549     60022.11746  20256339.0554   20256336.4654
      -301.7274
   1896859.34847   1427467.93442  23465920.2894   23465919.7034
     -3967.1264
   2299101.91046   1735044.82442  23992296.6724   23992298.8364
     -4740.5014
   1279156.23049    962190.15246  20987695.6954   20987691.6764
     -2726.2074
   -297718.03549   -227642.15645  21663209.6174   21663208.7274
       517.1004
 04  9 13 20 24 45.0000000  0  7G 3G 8G13G16G20G23G27
   -426649.43046   -327215.77042  23484863.6254   23484865.7074
       705.4214
   -928063.56647   -703861.94543  23282348.4924   23282349.0744
      1748.9514
     88028.38349     63634.98846  20257221.4144   20257218.7624
      -309.1024
   1956455.20748   1473906.21142  23477261.2344   23477260.8554
     -3973.0574
   2370245.01646   1790480.87542  24005835.2974   24005836.6954
     -4742.8744
   1320158.15649    994139.67646  20995498.4384   20995494.2664
     -2733.4624
   -305409.16049   -233635.23845  21661745.9774   21661745.0824
       512.7424
 04  9 13 20 25  0.0000000  0  7G 3G 8G13G16G20G23G27
   -437113.58246   -335369.61742  23482872.8674   23482874.9884
       697.6104
   -954240.51247   -724259.53143  23277367.2974   23277367.8984
      1745.1304
     92775.33249     67333.90647  20258124.7344   20258122.1914
      -316.4634
   2016139.28547   1520413.22342  23488618.8524   23488618.3674
     -3978.9394
   2441422.82846   1845944.00442  24019379.6724   24019381.3834
     -4745.1874
   1361268.50449   1026173.67246  21003321.3444   21003317.7934
     -2740.6904
   -313035.36349   -239577.72746  21660295.0164   21660294.1024
       508.4144
 04  9 13 20 25 15.0000000  0  7G 3G 8G13G16G20G23G27
   -447460.32847   -343431.97742  23480903.6724   23480905.7734
       689.7834
   -980360.13347   -744612.44943  23272396.7814   23272397.2664
      1741.3084
     97632.79349     71118.93447  20259048.8134   20259046.2814
      -323.8314
   2075911.07447   1566988.62142  23499992.8364   23499992.1484
     -3984.7864
   2512634.93046   1901433.84442  24032931.0004   24032932.6094
     -4747.4734
   1402487.10949   1058292.03946  21011165.0554   21011161.0824
     -2747.9074
   -320596.89849   -245469.82845  21658856.0704   21658854.8164
       504.1024
 04  9 13 20 25 30.0000000  0  7G 3G 8G13G16G20G23G27
   -457691.12147   -351404.00842  23478956.4844   23478958.7034
       682.0534
  -1006424.23047   -764922.11743  23267436.6804   23267436.8794
      1737.6074
    102599.18049     74988.84047  20259994.1174   20259991.6134
      -331.0924
   2135768.68047   1613630.85542  23511383.0944   23511383.0234
     -3990.5074
   2583879.20746   1956948.74642  24046488.4844   24046490.7894
     -4749.6184
   1443812.06349   1090493.27746  21019028.7114   21019024.5354
     -2754.9974
   -328095.45749   -251312.85245  21657428.5314   21657427.7154
       499.9044
 04  9 13 20 25 45.0000000  0  7G 3G 8G13G16G20G23G27
   -467803.40246   -359283.66842  23477032.3054   23477033.8754
       674.1524
  -1032430.23047   -785186.50443  23262488.2504   23262488.9654
      1733.7334
    107676.83649     78945.44947  20260960.4534   20260957.7424
      -338.5104
   2195713.94547   1660341.40642  23522789.7974   23522789.8364
     -3996.3514
   2655157.77746   2012490.36342  24060052.4614   24060054.6414
     -4751.9054
   1485245.64549   1122779.16046  21026913.1724   21026908.7074
     -2762.2394
   -335528.79349   -257105.05945  21656014.5084   21656012.8134
       495.5564
 04  9 13 20 26  0.0000000  0  7G 3G 8G13G16G20G23G27
   -477795.46147   -367069.64142  23475131.1804   23475133.9144
       666.1374
  -1058376.70748   -805404.50843  23257550.7814   23257551.4884
      1729.7654
    112867.25449     82989.92647  20261947.8984   20261945.4774
      -346.0284
   2255747.89847   1707121.02342  23534214.4924   23534214.2664
     -4002.2644
   2726471.41046   2068059.30542  24073623.4144   24073625.4804
     -4754.2424
   1526789.23449   1155150.76646  21034818.7894   21034814.8984
     -2769.5734
   -342895.64149   -262845.45745  21654612.3054   21654611.2624
       491.1234
 04  9 13 20 26 15.0000000  0  7G 3G 8G13G16G20G23G27
   -487666.52047   -374761.35242  23473252.5784   23473254.7664
       658.0714
  -1084263.33648   -825575.86743  23252624.2274   23252625.3954
      1725.7754
    118171.07449     87122.77047  20262957.2974   20262954.8324
      -353.5884
   2315870.54747   1753969.77742  23545656.0164   23545654.9224
     -4008.1774
   2797820.23046   2123655.65642  24087200.8984   24087202.6884
     -4756.5884
   1568443.16049   1187608.33646  21042745.5784   21042741.3444
     -2776.9284
   -350195.57049   -268533.69545  21653223.4694   21653221.9614
       486.6624
 04  9 13 20 26 30.0000000  0  7G 3G 8G13G16G20G23G27
   -497414.49246   -382357.12542  23471397.4844   23471400.1454
       649.8654
  -1110088.39148   -845699.26243  23247710.3204   23247710.4384
      1721.6704
    123590.42649     91345.63347  20263988.3284   20263986.0354
      -361.2904
   2376083.52748   1800888.96542  23557113.7274   23557113.1564
     -4014.1994
   2869205.82046   2179280.66842  24100785.2734   24100787.0554
     -4759.0394
   1610209.30549   1220153.35546  21050693.2034   21050689.6214
     -2784.4104
   -357426.69549   -274168.34445  21651847.5234   21651846.1844
       482.0754
 04  9 13 20 26 45.0000000  0  7G 3G 8G13G16G20G23G27
   -507040.21946   -389857.66042  23469565.2734   23469568.2464
       641.7154
  -1135853.12548   -865775.66043  23242807.4144   23242807.7544
      1717.6494
    129124.00849     95657.50847  20265041.5704   20265039.1024
      -368.9054
   2436385.14848   1847877.19542  23568589.2734   23568588.4774
     -4020.1084
   2940626.55147   2234933.05542  24114376.0554   24114378.0474
     -4761.3824
   1652086.41449   1252784.83646  21058662.3754   21058658.7034
     -2791.8074
   -364590.51649   -279750.53145  21650484.0784   21650482.6684
       477.5884
 04  9 13 20 27  0.0000000  0  7G 3G 8G13G16G20G23G27
   -516539.49646   -397259.65242  23467758.2584   23467760.1524
       633.2854
  -1161553.35948   -885801.77743  23237916.4924   23237917.2464
      1713.3494
    134776.07449    100061.71147  20266117.1804   20266114.5664
      -376.8044
   2496779.22748   1894937.48842  23580081.2664   23580080.9144
     -4026.2724
   3012086.16446   2290615.75842  24127974.5314   24127976.7034
     -4763.9744
   1694078.37949   1285505.82046  21066653.1644   21066649.3324
     -2799.4644
   -371682.96149   -285277.10246  21649134.6174   21649133.5984
       472.8304
 04  9 13 20 27 15.0000000  0  7G 3G 8G13G16G20G23G27
   -525911.14847   -404562.20742  23465974.9694   23465976.8054
       624.7774
  -1187188.09047   -905776.86343  23233038.4694   23233039.1134
      1708.9824
    140547.69149    104559.07047  20267215.2974   20267212.7544
      -384.7744
   2557266.20748   1942070.14542  23591592.4774   23591591.2234
     -4032.4654
   3083585.17246   2346329.13342  24141580.1804   24141581.8444
     -4766.6014
   1736186.03549   1318316.95346  21074665.8674   21074661.9144
     -2807.1774
   -378703.13349   -290747.35946  21647798.8984   21647797.9344
       468.0114
 04  9 13 20 27 30.0000000  0  7G 3G 8G13G16G20G23G27
   -535154.07446   -411764.45742  23464215.7424   23464217.5904
       616.1954
  -1212756.52748   -925700.29743  23228173.0234   23228173.4964
      1704.5634
    146439.85549    109150.36347  20268336.7584   20268334.1134
      -392.8114
   2617846.61747   1989275.60542  23603119.8674   23603119.6484
     -4038.6944
   3155123.99247   2402073.53542  24155193.5634   24155195.8714
     -4769.2554
   1778410.13749   1351218.82846  21082700.9614   21082696.5984
     -2814.9404
   -385650.35549   -296160.77745  21646476.8444   21646475.8594
       463.1484
 04  9 13 20 27 45.0000000  0  7G 3G 8G13G16G20G23G27
   -544265.77346   -418864.46942  23462481.8134   23462483.6134
       607.4474
  -1238256.61748   -945570.46142  23223320.5004   23223320.6054
      1700.0064
    152454.64849    113837.20747  20269481.2584   20269478.8444
      -400.9864
   2678522.14147   2036555.18042  23614666.1804   23614666.2464
     -4045.0354
   3226704.36346   2457850.32442  24168815.1804   24168817.1954
     -4772.0254
   1820752.73849   1384213.03146  21090758.4304   21090754.0514
     -2822.8404
   -392522.57049   -301515.74646  21645168.8984   21645168.0904
       458.1484
 04  9 13 20 28  0.0000000  0  7G 3G 8G13G16G20G23G27
   -553245.55947   -425861.64542  23460773.0554   23460774.8914
       598.6524
  -1263687.57447   -965386.76243  23218480.8054   23218481.4224
      1695.3974
    158592.94149    118620.28547  20270649.3204   20270646.6684
      -409.2204
   2739293.13747   2083909.12542  23626230.9774   23626230.8324
     -4051.4004
   3298326.59047   2513659.72342  24182444.5084   24182446.3284
     -4774.8154
   1863214.35249   1417299.97346  21098838.7504   21098834.3014
     -2830.7744
   -399319.14549   -306811.77345  21643875.9534   21643874.7234
       453.1054
 04  9 13 20 28 15.0000000  0  7G 3G 8G13G16G20G23G27
   -562093.05147   -432755.75842  23459090.0944   23459091.2974
       589.8334
  -1289049.82047   -985149.52043  23213654.2974   23213654.8204
      1690.8164
    164854.87949    123499.71147  20271841.1334   20271838.3404
      -417.4624
   2800159.05147   2131337.03542  23637813.1954   23637813.0474
     -4057.7284
   3369990.19147   2569501.33642  24196081.5554   24196083.9534
     -4777.5734
   1905794.93449   1450479.61746  21106941.7664   21106937.7154
     -2838.7054
   -406040.25449   -312048.98446  21642596.6484   21642595.8204
       448.0744
 04  9 13 20 28 30.0000000  0  7G 3G 8G13G16G20G23G27
   -570807.36346   -439546.09842  23457431.2664   23457432.9224
       580.9544
  -1314342.37548  -1004857.98043  23208841.7814   23208841.7934
      1686.1704
    171241.10249    128475.98447  20273056.2114   20273053.8714
      -425.7484
   2861120.17647   2178839.16042  23649414.1174   23649413.5354
     -4064.0754
   3441695.39147   2625375.40642  24209726.1724   24209729.1804
     -4780.3474
   1948494.98449   1483752.35946  21115067.2344   21115063.3984
     -2846.6704
   -412685.34049   -317226.97345  21641332.3364   21641331.3524
       443.0064
 04  9 13 20 28 45.0000000  0  7G 3G 8G13G16G20G23G27
   -579389.15247   -446233.18042  23455798.0784   23455799.5124
       572.1194
  -1339565.92648  -1024512.66843  23204042.1644   23204042.1094
      1681.5704
    177750.98449    133548.61747  20274294.8284   20274292.4184
      -433.9924
   2922175.37547   2226414.58242  23661032.0784   23661031.3244
     -4070.3474
   3513441.05547   2681280.99642  24223380.1564   24223381.9104
     -4783.0444
   1991313.68049   1517117.54346  21123215.2734   21123211.6414
     -2854.5804
   -419255.32049   -322346.43445  21640081.8674   21640080.9414
       437.9994
 04  9 13 20 29  0.0000000  0  6G 3G 8G13G16G23G27
   -587838.53147   -452817.07042  23454189.7894   23454191.5904
       563.2924
  -1364721.13748  -1044114.10543  23199254.6804   23199255.7664
      1677.0144
    184384.05149    138717.23447  20275557.3914   20275554.8324
      -442.2044
   2983323.78147   2274062.63742  23672668.5004   23672668.1484
     -4076.5604
   2034250.41049   1550574.70746  21131385.9924   21131382.2464
     -2862.4494
   -425750.53149   -327407.63345  21638845.7894   21638844.5704
       433.0144
 04  9 13 20 29 15.0000000  0  6G 3G 8G13G16G23G27
   -596156.53547   -459298.61342  23452607.0554   23452609.3404
       554.5344
  -1389809.40248  -1063663.36343  23194481.0004   23194481.6914
      1672.5514
    191139.14149    143980.94547  20276842.8834   20276840.2934
      -450.3394
   3044563.72347   2321782.03143  23684322.5634   23684321.5474
     -4082.6634
   2077303.69549   1584122.68846  21139578.9694   21139574.8134
     -2870.2194
   -432172.57449   -332411.81246  21637623.7734   21637622.7424
       428.1364
 04  9 13 20 29 30.0000000  0  6G 3G 8G13G16G23G27
   -604344.92246   -465679.09842  23451048.7734   23451051.3714
       545.8924
  -1414832.65248  -1083161.96943  23189719.0474   23189719.8754
      1668.2174
    198014.51249    149338.36747  20278150.9774   20278148.5594
      -458.3584
   3105892.96947   2369570.99242  23695992.5084   23695992.8364
     -4088.6164
   2120471.70349   1617760.07046  21147793.5474   21147789.2234
     -2877.8674
   -438523.38749   -337360.48846  21636415.2034   21636414.1134
       423.3884
 04  9 13 20 29 45.0000000  0  6G 3G 8G13G16G23G27
   -612401.49247   -471956.91842  23449516.0784   23449517.5984
       537.1054
  -1439788.82447  -1102608.30543  23184969.9614   23184970.5784
      1663.7454
    205012.13349    154791.06347  20279482.7974   20279479.9964
      -466.5084
   3167313.01247   2417430.70342  23707680.1484   23707680.2894
     -4094.6704
   2163756.09449   1651488.14546  21156030.1254   21156026.0234
     -2885.6264
   -444801.22749   -342252.30545  21635220.6094   21635219.4804
       418.5234
 04  9 13 20 30  0.0000000  0  6G 3G 8G13G16G23G27
   -620328.77746   -478133.99642  23448006.9384   23448008.6914
       528.4864
  -1464681.00847  -1122004.77343  23180233.0164   23180233.8634
      1659.4794
    212129.22749    160336.84046  20280837.1254   20280834.4654
      -474.4734
   3228820.55147   2465358.55942  23719384.8134   23719386.1334
     -4100.5034
   2207153.96549   1685304.64546  21164288.6484   21164284.6564
     -2893.1914
   -451008.96549   -347089.50046  21634039.3674   21634038.2114
       413.8494
 04  9 13 20 30 15.0000000  0  6G 3G 8G13G16G23G27
   -628128.87947   -484211.95742  23446522.9924   23446524.4414
       520.0074
  -1489511.51247  -1141353.19143  23175507.7034   23175508.0864
      1655.3674
    219363.70749    165974.09447  20282213.7274   20282211.1764
      -482.2994
   3290413.08647   2513352.66842  23731105.5944   23731105.6994
     -4106.1694
   2250662.98449   1719207.75046  21172567.9694   21172564.4734
     -2900.6014
   -457148.98849   -351873.92246  21632870.8364   21632869.4144
       409.3354
 04  9 13 20 30 30.0000000  0  6G 3G 8G13G16G23G27
   -635804.53146   -490192.94542  23445062.0634   23445064.0354
       511.7104
  -1514283.12948  -1160655.71943  23170793.6644   23170794.3634
      1651.4414
    226712.61749    171700.51246  20283612.4774   20283609.6684
      -489.9274
   3352087.13347   2561410.32042  23742842.0634   23742841.6214
     -4111.6034
   2294280.03149   1753195.02346  21180868.1954   21180864.4064
     -2907.8034
   -463224.16449   -356607.81646  21631714.9064   21631713.8284
       405.0124
 04  9 13 20 30 45.0000000  0  6G 3G 8G13G16G23G27
   -643357.20346   -496078.10242  23443625.0004   23443626.4884
       503.5114
  -1538997.67648  -1179913.77743  23166090.8054   23166091.3754
      1647.6364
    234174.40249    177514.88746  20285032.3984   20285029.4534
      -497.4524
   3413840.62547   2609529.82842  23754593.3914   23754593.6454
     -4116.8994
   2338003.33249   1787265.09846  21189188.4614   21189184.8834
     -2914.8874
   -469236.57449   -361292.80546  21630570.5634   21630569.4494
       400.8274
 04  9 13 20 31  0.0000000  0  6G 3G 8G13G16G23G27
   -650788.75447   -501868.88742  23442210.9694   23442211.9774
       495.4374
  -1563657.13748  -1199128.91043  23161397.9844   23161398.9454
      1643.9644
    241747.02749    183415.62947  20286473.1564   20286470.4774
      -504.8424
   3475671.02747   2657709.30542  23766359.3204   23766359.8094
     -4122.0274
   2381830.69149   1821416.26246  21197528.5554   21197524.5704
     -2921.8244
   -475188.22749   -365930.44945  21629438.0084   21629436.8594
       396.7774
 04  9 13 20 31 15.0000000  0  6G 3G 8G13G16G23G27
   -658102.02347   -507567.50842  23440819.5234   23440820.9804
       487.5514
  -1588264.91048  -1218303.77043  23156715.9614   23156716.2774
      1640.5184
    249427.37549    189400.31347  20287934.6334   20287931.8364
      -512.0234
   3537574.85547   2705945.97342  23778139.2584   23778139.4964
     -4126.9224
   2425758.84449   1855645.96546  21205887.9844   21205883.7154
     -2928.5434
   -481082.38349   -370523.29346  21628316.3054   21628315.1914
       392.9444
 04  9 13 20 31 30.0000000  0  6G 3G 8G13G16G23G27
   -665296.77346   -513173.78142  23439450.0394   23439452.2774
       479.6504
  -1612820.85248  -1237438.24243  23152042.9224   23152043.3714
      1637.0634
    257215.70349    195469.13347  20289416.6804   20289413.9844
      -519.2224
   3599551.68847   2754239.52742  23789933.3364   23789932.7584
     -4131.7894
   2469787.61749   1889954.08246  21214265.8834   21214262.3324
     -2935.2524
   -486919.15649   -375071.41446  21627205.7274   21627204.8364
       389.1184
 04  9 13 20 31 45.0000000  0  6G 3G 8G13G16G23G27
   -672377.11747   -518690.86742  23438102.5634   23438104.5434
       472.0234
  -1637329.32448  -1256535.72743  23147378.8444   23147379.3714
      1633.8984
    265107.68849    201618.73047  20290918.4304   20290916.3134
      -526.1324
   3661596.91047   2802586.40642  23801739.8444   23801739.3874
     -4136.3484
   2513912.74249   1924337.27046  21222662.6644   21222659.2734
     -2941.6754
   -492702.98049   -379578.28546  21626104.9304   21626104.1844
       385.5884
 04  9 13 20 32  0.0000000  0  6G 3G 8G13G16G23G27
   -679343.55946   -524119.23842  23436776.7504   23436778.7154
       464.4294
  -1661790.92648  -1275596.69143  23142724.1804   23142724.4734
      1630.7734
    273102.73849    207848.63747  20292440.0944   20292437.5824
      -533.0034
   3723709.32047   2850985.61342  23813559.8364   23813559.3134
     -4140.8274
   2558133.23449   1958794.76246  21231077.4614   21231074.0824
     -2948.0334
   -498434.71549   -384044.55946  21625014.4924   21625013.1024
       382.1164
 04  9 13 20 32 15.0000000  0  6G 3G 8G13G16G23G27
   -686195.68047   -529458.49643  23435473.5634   23435475.5084
       456.8084
  -1686205.53948  -1294621.03543  23138078.2504   23138078.5234
      1627.6414
    281201.14549    214159.07447  20293980.9454   20293978.4304
      -539.8944
   3785888.87547   2899437.14842  23825392.3674   23825391.9064
     -4145.3044
   2602449.31649   1993326.74246  21239510.6254   21239507.5704
     -2954.4054
   -504114.09049   -388470.04346  21623933.7274   21623932.4844
       378.6254
 04  9 13 20 32 30.0000000  0  6G 3G 8G13G16G23G27
   -692935.05547   -534709.91043  23434190.9534   23434192.8914
       449.2924
  -1710575.00848  -1313610.20743  23133440.3754   23133441.1994
      1624.6314
    289401.31349    220548.81347  20295541.3204   20295539.0984
      -546.6784
   3848133.19947   2947939.13742  23837236.7194   23837236.6374
     -4149.6224
   2646859.05949   2027931.69946  21247961.7974   21247958.1414
     -2960.6494
   -509743.12549   -392856.29746  21622862.3204   21622861.6054
       375.2694
 04  9 13 20 32 45.0000000  0  6G 3G 8G13G16G23G27
   -699560.55947   -539872.59042  23432929.4694   23432931.2814
       441.7004
  -1734898.52348  -1332563.56243  23128811.6644   23128812.5904
      1621.5684
    297704.04749    227018.48047  20297121.3134   20297119.2664
      -553.5164
   3910443.02047   2996492.16842  23849094.1644   23849093.2274
     -4153.9884
   2691363.19149   2062610.22746  21256430.5944   21256426.6454
     -2966.9424
   -515320.95749   -397202.65246  21621800.8284   21621800.0904
       371.8554
 04  9 13 20 33  0.0000000  0  6G 3G 8G13G16G23G27
   -706075.03146   -544948.79342  23431690.0394   23431691.2274
       434.2984
  -1759179.22748  -1351483.57043  23124191.5314   23124192.2504
      1618.7144
    306106.48049    233565.82447  20298720.1024   20298717.6684
      -560.1624
   3972814.69947   3045093.41042  23860962.8674   23860962.8204
     -4158.1124
   2735958.56649   2097359.85246  21264916.6174   21264912.6174
     -2973.0254
   -520850.74649   -401511.57046  21620748.5084   21620747.7274
       368.6534
 04  9 13 20 33 15.0000000  0  6G 3G 8G13G16G23G27
   -712477.82046   -549937.92243  23430471.2504   23430473.5124
       426.8534
  -1783416.73448  -1370369.91043  23119579.1254   23119579.4614
      1615.8344
    314609.13349    240191.27047  20300338.2814   20300335.7194
      -566.8434
   4035248.31348   3093742.93042  23872844.2504   23872843.6804
     -4162.2414
   2780645.58249   2132180.87546  21273420.3594   21273416.2584
     -2979.1344
   -526332.22749   -405782.84846  21619705.4144   21619704.2074
       365.4324
 04  9 13 20 33 30.0000000  0  6G 3G 8G13G16G23G27
   -718769.39147   -554840.40643  23429274.3524   23429275.9414
       419.4384
  -1807611.65648  -1389223.06643  23114975.1644   23114975.3794
      1612.9954
    323211.21549    246894.18447  20301975.3364   20301973.0004
      -573.4724
   4097742.78147   3142439.85542  23884736.4224   23884736.0474
     -4166.2984
   2825423.26649   2167072.54746  21281941.5474   21281937.7774
     -2985.1794
   -531766.21949   -410017.12146  21618671.2894   21618670.2074
       362.2664
 04  9 13 20 33 45.0000000  0  6G 3G 8G13G16G23G27
   -724951.90247   -559657.91443  23428097.8364   23428099.8164
       412.1674
  -1831766.46948  -1408044.98043  23110378.1484   23110379.5124
      1610.3214
    331910.55949    253672.89147  20303630.5554   20303628.1214
      -579.9564
   4160295.37947   3191182.05942  23896639.9774   23896639.7384
     -4170.1734
   2870289.05949   2202032.87946  21290478.9454   21290475.3204
     -2991.0534
   -537155.07849   -414216.22346  21617646.3444   21617644.9844
       359.2574
 04  9 13 20 34  0.0000000  0  6G 3G 8G13G16G23G27
   -731024.69546   -564389.92643  23426942.1334   23426944.8404
       404.8534
  -1855880.96548  -1426835.46543  23105789.9144   23105790.0274
      1607.6334
    340707.69548    260527.79747  20305304.6564   20305302.1024
      -586.4764
   4222906.10947   3239969.61342  23908554.2344   23908553.3444
     -4174.0494
   2915243.37949   2237062.18446  21299033.6484   21299030.1684
     -2996.9554
   -542498.59048   -418379.99646  21616629.3364   21616628.1254
       356.2344
 04  9 13 20 34 15.0000000  0  6G 3G 8G13G16G23G27
   -736987.98846   -569036.59442  23425807.3594   23425809.2974
       397.5534
  -1879955.40648  -1445594.75043  23101208.7814   23101209.2074
      1604.9634
    349602.35249    267458.69147  20306997.0004   20306995.0164
      -592.9774
   4285574.25847   3288801.85942  23920479.3594   23920479.6954
     -4177.8774
   2960285.83649   2272160.18046  21307605.1174   21307601.6844
     -3002.8304
   -547797.03948   -422508.65646  21615621.2894   21615619.6764
       353.2304
 04  9 13 20 34 30.0000000  0  6G 3G 8G13G16G23G27
   -742842.24646   -573598.34443  23424693.3364   23424695.6644
       390.2844
  -1903990.43748  -1464323.32043  23096634.8204   23096635.2194
      1602.3354
    358593.76649    274464.99247  20308708.2814   20308706.0944
      -599.4284
   4348298.57847   3337677.87942  23932415.8284   23932415.4844
     -4181.6214
   3005415.35549   2307326.01645  21316192.5004   21316189.2034
     -3008.6354
   -553051.50848   -426603.04346  21614621.1724   21614619.9224
       350.2984
 04  9 13 20 34 45.0000000  0  6G 3G 8G13G16G23G27
   -748587.55946   -578075.16842  23423599.8054   23423601.7464
       383.0214
  -1927986.14548  -1483021.23843  23092068.7894   23092069.1564
      1599.7144
    367681.93849    281546.68047  20310437.6254   20310435.2854
      -605.8784
   4411078.42648   3386597.20742  23944362.8834   23944362.2704
     -4185.3234
   3050631.69949   2342559.50445  21324797.1804   21324793.5984
     -3014.4234
   -558262.28148   -430663.37546  21613629.6024   21613628.3364
       347.3854
 04  9 13 20 35  0.0000000  0  6G 3G 8G13G16G23G27
   -754222.70345   -582466.16042  23422527.3914   23422529.6054
       375.6764
  -1951942.16448  -1501688.24643  23087510.3284   23087510.1024
      1597.0684
    376867.76248    288704.45747  20312185.5864   20312183.4844
      -612.3884
   4473914.33648   3435560.18442  23956320.2734   23956319.5044
     -4189.0614
   3095935.64849   2377861.25446  21333418.2734   21333414.3524
     -3020.2634
   -563428.46548   -434688.96546  21612646.6174   21612645.2934
       344.4124
 04  9 13 20 35 15.0000000  0  6G 3G 8G13G16G23G27
   -759748.66845   -586772.09042  23421475.9064   23421477.6094
       368.3984
  -1975859.21948  -1520324.89143  23082959.0554   23082959.2274
      1594.4704
    386150.24249    295937.55546  20313952.2974   20313949.7774
      -618.8324
   4536804.85947   3484565.74642  23968287.7974   23968286.8954
     -4192.7024
   3141325.99249   2413230.32446  21342056.0784   21342052.0274
     -3026.0234
   -568551.26249   -438680.75046  21611671.7504   21611670.4654
       341.5204
 04  9 13 20 35 30.0000000  0  6G 3G 8G13G16G23G27
   -765164.91846   -590992.50442  23420445.1724   23420446.8834
       361.0834
  -1999737.34448  -1538931.19543  23078414.8054   23078415.1414
      1591.8754
    395529.66849    303246.19946  20315736.9384   20315734.2464
      -625.2954
   4599749.82047   3533613.69942  23980265.6724   23980264.9534
     -4196.3314
   3186802.83649   2448666.81346  21350709.8754   21350706.2664
     -3031.7904
   -573630.64549   -442638.70345  21610705.0784   21610703.6414
       338.6264
 04  9 13 20 35 45.0000000  0  6G 3G 8G13G16G23G27
   -770471.14546   -595127.18742  23419435.6094   23419436.9144
       353.7484
  -2023576.19148  -1557506.89543  23073878.6804   23073878.6524
      1589.2574
    405006.25449    310630.54346  20317540.6414   20317538.0354
      -631.7724
   4662748.99247   3582703.90242  23992254.3754   23992253.4844
     -4199.9454
   3232366.22749   2484170.72746  21359380.0634   21359376.7344
     -3037.5594
   -578666.45749   -446562.70346  21609747.1174   21609745.6804
       335.7214
 04  9 13 20 36  0.0000000  0  6G 3G 8G13G16G23G27
   -775668.09446   -599176.73442  23418446.4064   23418447.7734
       346.4634
  -2047376.89848  -1576052.88743  23069349.1254   23069349.7034
      1586.7144
    414579.23849    318090.01246  20319361.8444   20319359.4614
      -638.1994
   4725800.99647   3631835.26242  24004252.6414   24004252.3404
     -4203.4674
   3278015.01649   2519741.17646  21368066.7344   21368063.6134
     -3043.2534
   -583659.82049   -450453.63346  21608796.6254   21608795.3794
       332.8914
 04  9 13 20 36 15.0000000  0  6G 3G 8G13G16G23G27
   -780754.96146   -603140.50842  23417478.3524   23417479.4384
       339.1244
  -2071138.75048  -1594568.58243  23064827.3754   23064827.6484
      1584.1234
    424249.27049    325625.09447  20321202.1094   20321199.9384
      -644.6694
   4788906.15247   3681008.05942  24016261.5394   24016260.9534
     -4207.0104
   3323749.81349   2555378.64846  21376769.8914   21376766.5984
     -3048.9864
   -588610.14849   -454311.02046  21607854.3754   21607853.4884
       330.0224
 04  9 13 20 36 30.0000000  0  6G 3G 8G13G16G23G27
   -785731.52046   -607018.31242  23416531.6334   23416532.8984
       331.7714
  -2094861.76648  -1613054.03143  23060313.2194   23060313.3164
      1581.5344
    434016.44548    333235.88347  20323060.6724   20323058.4494
      -651.1454
   4852064.04747   3730221.96542  24028279.5634   24028278.9304
     -4210.5264
   3369570.35949   2591082.94546  21385489.4614   21385485.8134
     -3054.7034
   -593517.59449   -458135.00046  21606920.7274   21606919.2894
       327.1634
 04  9 13 20 36 45.0000000  0  6G 3G 8G13G16G23G27
   -790597.11346   -610809.63342  23415605.2814   23415606.8324
       324.3734
  -2118545.82848  -1631509.12543  23055806.2894   23055806.0984
      1578.9384
    443881.08649    340922.61746  20324937.9924   20324935.6454
      -657.6434
   4915274.60947   3779476.87542  24040308.0004   24040307.8134
     -4214.0374
   3415476.93049   2626854.27346  21394225.2584   21394221.6334
     -3060.4384
   -598381.91049   -461925.37146  21605995.2504   21605994.1804
       324.2884
 04  9 13 20 37  0.0000000  0  6G 3G 8G13G16G23G27
   -795352.75047   -614515.29342  23414700.7584   23414702.4534
       317.0424
  -2142192.43748  -1649935.02743  23051306.3754   23051306.5824
      1576.4414
    453842.17249    348684.49647  20326833.2734   20326831.0314
      -664.0724
   4978536.23447   3828771.57842  24052345.9064   24052346.2234
     -4217.4424
   3461468.23849   2662691.63746  21402977.1094   21402973.1564
     -3066.0874
   -603204.21949   -465683.01246  21605077.4774   21605076.0784
       321.4874
 04  9 13 20 37 15.0000000  0  6G 3G 8G13G16G23G27
   -799997.02347   -618134.18042  23413816.9454   23413817.7584
       309.6184
  -2165799.85948  -1668330.39143  23046813.9144   23046813.9694
      1573.8284
    463901.02749    356522.55946  20328747.6174   20328744.9964
      -670.5904
   5041849.87946   3878106.85542  24064394.6804   24064394.6174
     -4220.9104
   3507545.35949   2698595.87146  21411745.3054   21411741.4774
     -3071.8084
   -607983.43049   -469407.05945  21604168.1804   21604166.7664
       318.6144
 04  9 13 20 37 30.0000000  0  6G 3G 8G13G16G23G27
   -804529.03947   -621665.60242  23412954.2034   23412955.6844
       302.1344
  -2189367.48848  -1686694.75443  23042329.0784   23042329.5164
      1571.1754
    474058.34049    364437.34847  20330680.6564   20330677.9104
      -677.1544
   5105215.76647   3927482.78542  24076452.9774   24076452.9024
     -4224.3924
   3553708.89149   2734567.41846  21420529.6254   21420526.6174
     -3077.5694
   -612719.16849   -473097.23446  21603266.8054   21603265.5704
       315.7164
 04  9 13 20 37 45.0000000  0  6G 3G 8G13G16G23G27
   -808950.36746   -625110.74642  23412112.6484   23412114.7424
       294.7554
  -2212897.28548  -1705029.63743  23037851.6094   23037851.8444
      1568.6534
    484312.61349    372427.68447  20332631.9454   20332629.4264
      -683.6184
   5168631.80547   3976897.79742  24088521.2034   24088520.7154
     -4227.7364
   3599956.96549   2770604.85246  21429330.6954   21429327.3714
     -3083.2054
   -617413.03949   -476754.79746  21602373.3914   21602372.2154
       312.9254
 04  9 13 20 38  0.0000000  0  6G 3G 8G13G16G23G27
   -813259.54345   -628468.53142  23411292.2194   23411294.0084
       287.2784
  -2236388.00048  -1723334.05943  23033381.6484   23033381.6954
      1566.0484
    494664.96949    380494.45347  20334601.7814   20334599.3794
      -690.1574
   5232098.73047   4026352.48042  24100597.4614   24100597.8164
     -4231.1284
   3646290.52349   2806708.89146  21438147.7974   21438144.1334
     -3088.9044
   -622064.04749   -480378.94546  21601488.1334   21601486.7814
       310.0674
 04  9 13 20 38 15.0000000  0  6G 3G 8G13G16G23G27
   -817456.75046   -631739.04342  23410494.5234   23410494.5824
       279.8144
  -2259839.70348  -1741608.09043  23028918.9064   23028919.4844
      1563.4474
    505115.32449    388637.57847  20336590.4844   20336588.1524
      -696.6904
   5295615.92247   4075846.36342  24112684.3204   24112684.3754
     -4234.4794
   3692709.34849   2842879.38346  21446981.2274   21446977.0164
     -3094.5884
   -626672.59448   -483970.02046  21600611.5084   21600609.9264
       307.2364
 04  9 13 20 38 30.0000000  0  6G 3G 8G13G16G23G27
   -821540.60946   -634921.23443  23409717.6954   23409718.4184
       272.2574
  -2283251.57848  -1759851.07443  23024463.6024   23024463.7234
      1560.7924
    515664.71149    396857.88747  20338598.2194   20338595.5164
      -703.2924
   5359184.00847   4125379.87142  24124782.1644   24124781.5784
     -4237.8724
   3739214.28149   2879116.97746  21455830.6174   21455826.4064
     -3100.3294
   -631237.61348   -487527.16446  21599742.6414   21599741.2854
       304.3354
 04  9 13 20 38 45.0000000  0  6G 3G 8G13G16G23G27
   -825510.12146   -638014.33643  23408962.0864   23408963.4534
       264.6344
  -2306623.02348  -1778062.57043  23020016.3444   23020016.1804
      1558.0964
    526314.09849    405156.10247  20340624.5784   20340621.8954
      -709.9594
   5422803.54747   4174953.50042  24136888.2344   24136888.0004
     -4241.3034
   3785806.03549   2915422.21945  21464696.7194   21464692.5704
     -3106.1174
   -635758.44149   -491049.87945  21598882.1724   21598881.3324
       301.3894
 04  9 13 20 39  0.0000000  0  6G 3G 8G13G16G23G27
   -829364.48846   -641017.71143  23408228.3524   23408229.9024
       256.9584
  -2329953.23048  -1796241.92243  23015577.0234   23015577.3554
      1555.3474
    537064.13349    413532.74647  20342670.2894   20342667.6414
      -716.6694
   5486474.74247   4224567.34042  24149003.5634   24149004.4844
     -4244.7464
   3832485.14149   2951795.51645  21473579.4924   21473575.7234
     -3111.9404
   -640234.46549   -494537.68446  21598030.5164   21598029.6884
       298.4024
 04  9 13 20 39 15.0000000  0  6G 3G 8G13G16G23G27
   -833101.50047   -643929.64543  23407517.9304   23407518.2424
       249.1344
  -2353240.31648  -1814387.68443  23011145.2664   23011145.2624
      1552.4724
    547916.98048    421989.50847  20344735.5784   20344732.7854
      -723.5234
   5550199.16447   4274222.68842  24161130.4304   24161130.5594
     -4248.2954
   3879253.39849   2988238.28146  21482479.2814   21482475.5904
     -3117.8844
   -644663.90249   -497989.18746  21597187.7734   21597186.6884
       295.2964
 04  9 13 20 39 30.0000000  0  6G 3G 8G13G16G23G27
   -836722.03547   -646750.82443  23406828.5234   23406830.0204
       241.3694
  -2376485.41848  -1832500.71943  23006721.3134   23006721.9184
      1549.6734
    558871.57049    430525.54747  20346819.7584   20346817.5274
      -730.3064
   5613975.28947   4323918.31642  24173266.5944   24173266.9384
     -4251.7424
   3926109.64149   3024749.61746  21491396.0004   21491391.9384
     -3123.7494
   -649047.85249   -501405.23846  21596353.6094   21596352.2544
       292.2634
 04  9 13 20 39 45.0000000  0  6G 3G 8G13G16G23G27
   -840225.68747   -649480.91043  23406161.2894   23406162.8834
       233.5774
  -2399688.21148  -1850580.79343  23002305.9694   23002306.4654
      1546.8534
    569928.21549    439141.11746  20348923.9224   20348921.4304
      -737.1104
   5677802.97347   4373654.11742  24185412.5314   24185413.0234
     -4255.1794
   3973053.97749   3061329.59445  21500328.9774   21500325.6094
     -3129.6224
   -653386.21949   -504785.77746  21595528.0944   21595526.6684
       289.2244
 04  9 13 20 40  0.0000000  0  6G 3G 8G13G16G23G27
   -843612.19147   -652119.71143  23405517.2424   23405519.0474
       225.7674
  -2422848.72748  -1868627.91043  22997898.7894   22997899.3874
      1544.0344
    581086.93048    447836.21147  20351047.5474   20351044.8634
      -743.9144
   5741681.90247   4423429.84042  24197568.8364   24197568.9964
     -4258.5954
   4020086.24649   3097978.09445  21509278.8594   21509274.8754
     -3135.4854
   -657679.12149   -508130.89546  21594710.9144   21594709.7304
       286.1934
 04  9 13 20 40 15.0000000  0  6G 3G 8G13G16G23G27
   -846880.84046   -654666.67243  23404894.8524   23404897.0784
       217.9104
  -2445966.64148  -1886641.84443  22993499.6414   22993499.8324
      1541.1944
    592348.44148    456611.41447  20353190.2034   20353187.9654
      -750.7674
   5805612.14547   4473245.55542  24209734.1174   24209734.9844
     -4262.0164
   4067206.79749   3134695.38745  21518245.5784   21518240.9654
     -3141.3704
   -661925.98449   -511440.12946  21593903.0234   21593901.8164
       283.1244
 04  9 13 20 40 30.0000000  0  6G 3G 8G13G16G23G27
   -850030.20346   -657120.69542  23404295.8204   23404297.6054
       209.9584
  -2469040.52348  -1904621.47743  22989108.8834   22989109.4224
      1538.2594
    603714.14848    465467.80547  20355353.2194   20355350.6024
      -757.7144
   5869594.64847   4523102.02342  24221909.7194   24221909.9654
     -4265.5004
   4114416.92249   3171482.47345  21527229.0704   21527224.7234
     -3147.3424
   -666125.77749   -514712.68446  21593103.5004   21593102.2894
       279.9864
 04  9 13 20 40 45.0000000  0  6G 3G 8G13G16G23G27
   -853060.97347   -659482.30542  23403718.6254   23403719.8364
       202.0514
  -2492071.41848  -1922567.59043  22984726.0314   22984726.7664
      1535.3934
    615183.12948    474404.67246  20357535.6644   20357533.2344
      -764.5994
   5933628.10247   4572998.19142  24234095.3284   24234095.1884
     -4268.8974
   4161715.46949   3208338.44545  21536230.0784   21536225.5944
     -3153.2364
   -670279.39548   -517949.26246  21592313.3284   21592311.8484
       276.9084
 04  9 13 20 41  0.0000000  0  6G 3G 8G13G16G23G27
   -855972.63747   -661751.11742  23403164.8054   23403165.2774
       194.1114
  -2515058.99248  -1940479.95743  22980351.7664   22980351.9224
      1532.5054
    626755.78149    483422.32446  20359737.7424   20359735.3404
      -771.5104
   5997712.59047   4622934.07842  24246289.4064   24246291.2114
     -4272.2994
   4209102.62949   3245263.48045  21545247.7344   21545243.6764
     -3159.1444
   -674386.71949   -521149.76246  21591531.7344   21591530.3054
       273.8224
 04  9 13 20 41 15.0000000  0  6G 3G 8G13G16G23G27
   -858764.94947   -663926.92642  23402632.9924   23402633.9024
       186.1544
  -2538003.18448  -1958358.52043  22975985.3524   22975985.8484
      1529.6134
    638432.22348    492520.84447  20361959.6564   20361957.3014
      -778.4294
   6061847.71147   4672909.44142  24258494.7974   24258494.8244
     -4275.6754
   4256578.43849   3282257.58245  21554281.9454   21554277.9264
     -3165.0544
   -678447.71548   -524314.17246  21590758.6804   21590757.2974
       270.7334
 04  9 13 20 41 30.0000000  0  6G 3G 8G13G16G23G27
   -861437.52347   -666009.42243  23402124.6804   23402126.2424
       178.1724
  -2560903.67648  -1976203.03144  22971627.8984   22971628.2274
      1526.6994
    650212.79349    501700.50846  20364201.6884   20364199.1174
      -785.3714
   6126033.19147   4722924.04742  24270709.0084   24270709.0314
     -4279.0324
   4304142.92249   3319320.80545  21563332.7664   21563329.1054
     -3170.9664
   -682462.21549   -527442.34446  21589994.8204   21589993.5164
       267.6334
 04  9 13 20 41 45.0000000  0  6G 3G 8G13G16G23G27
   -863991.87147   -667999.78942  23401638.3914   23401640.1954
       170.2904
  -2583762.51648  -1994015.08244  22967277.7734   22967278.1134
      1523.9234
    662095.78148    510959.97746  20366462.8674   20366460.2304
      -792.1994
   6190266.93047   4772976.28142  24282932.2814   24282932.4494
     -4282.2494
   4351794.10949   3356451.56345  21572400.8674   21572396.5004
     -3176.7464
   -686432.08248   -530535.74245  21589239.2734   21589238.2304
       264.6584
 04  9 13 20 42  0.0000000  0  6G 3G 8G13G16G23G27
   -866427.15648   -669897.38343  23401175.3204   23401176.9694
       162.3524
  -2606578.98048  -2011794.12144  22962935.9534   22962936.3284
      1521.0984
    674081.90648    520299.81347  20368743.6484   20368741.0704
      -799.0754
   6254549.26247   4823066.38742  24295164.1174   24295164.0164
     -4285.4894
   4399532.53549   3393650.30945  21581485.2814   21581481.0594
     -3182.5624
   -690356.75448   -533593.92246  21588492.6024   21588491.0474
       261.6454
 04  9 13 20 42 15.0000000  0  6G 3G 8G13G16G23G27
   -868743.54347   -671702.34042  23400734.7034   23400735.9884
       154.4264
  -2629353.35948  -2029540.35543  22958602.1334   22958602.1604
      1518.2924
    686170.90649    529719.80547  20371044.2034   20371041.6564
      -805.9334
   6318879.40647   4873193.72742  24307406.2504   24307406.3874
     -4288.6764
   4447357.85249   3430916.75845  21590586.1644   21590581.8484
     -3188.3544
   -694236.67649   -536617.22746  21587754.3674   21587753.0204
       258.6614
 04  9 13 20 42 30.0000000  0  6G 3G 8G13G16G23G27
   -870941.59447   -673415.08242  23400315.9384   23400316.9654
       146.5374
  -2652086.52348  -2047254.47744  22954276.4384   22954276.6484
      1515.5444
    698362.28549    539219.58246  20373363.9614   20373361.6174
      -812.7594
   6383256.22347   4923357.41442  24319656.6564   24319656.9654
     -4291.7884
   4495268.95749   3468250.07045  21599703.1254   21599699.4614
     -3194.0744
   -698072.81248   -539606.41846  21587024.4144   21587023.2234
       255.7424
 04  9 13 20 42 45.0000000  0  6G 3G 8G13G16G23G27
   -873017.91047   -675032.96942  23399921.7194   23399921.5044
       138.4214
  -2674775.17648  -2064933.92244  22949958.9924   22949958.7034
      1512.5774
    710659.19949    548801.58646  20375704.2584   20375701.8674
      -819.7944
   6447682.66047   4973559.80142  24331916.5784   24331916.5434
     -4295.0964
   4543269.18849   3505652.82045  21608837.3594   21608833.6524
     -3200.0154
   -701861.85949   -542558.90646  21586303.0004   21586301.5314
       252.6034
 04  9 13 20 43  0.0000000  0  6G 3G 8G13G16G23G27
   -874974.81247   -676557.82043  23399548.6884   23399549.5164
       130.4604
  -2697421.84848  -2082580.65243  22945649.6024   22945649.2274
      1509.7784
    723059.16449    558463.89547  20378064.0084   20378061.3134
      -826.6644
   6512155.65247   5023798.46942  24344184.9774   24344185.3244
     -4298.1994
   4591355.80149   3543122.87945  21617987.8134   21617984.7464
     -3205.7744
   -705606.44949   -545476.76245  21585590.6024   21585589.4534
       249.6394
 04  9 13 20 43 15.0000000  0  6G 3G 8G13G16G23G27
   -876812.03147   -677989.39142  23399199.4614   23399200.0274
       122.4814
  -2720026.56248  -2100194.68744  22941347.4144   22941347.4654
      1506.9814
    735562.38749    568206.66447  20380443.5004   20380440.4414
      -833.5484
   6576675.10947   5074073.31642  24356463.5004   24356463.2234
     -4301.2974
   4639528.76249   3580660.21545  21627154.8444   21627151.7274
     -3211.5314
   -709306.62149   -548360.00045  21584886.3284   21584885.2854
       246.6784
 04  9 13 20 43 30.0000000  0  6G 3G 8G13G16G23G27
   -878527.56247   -679326.13742  23398872.4454   23398873.2584
       114.3694
  -2742587.41448  -2117774.54344  22937054.5164   22937054.6724
      1504.0574
    748170.72749    578031.34046  20382842.5394   20382839.6054
      -840.5564
   6641242.34047   5124385.39542  24368749.6724   24368749.8054
     -4304.4824
   4687789.77049   3618266.16445  21636338.9304   21636335.5784
     -3217.4014
   -712960.63349   -551207.27346  21584191.0314   21584189.8054
       243.6014
 04  9 13 20 43 45.0000000  0  6G 3G 8G13G16G23G27
   -880120.87148   -680567.64842  23398569.5944   23398570.1764
       106.2214
  -2765104.25048  -2135320.10543  22932769.4224   22932769.5314
      1501.1224
    760884.53949    587938.20747  20385262.0004   20385259.2114
      -847.5874
   6705857.43447   5174734.77742  24381045.9304   24381045.8054
     -4307.6734
   4736138.97749   3655940.84845  21645539.2504   21645535.7114
     -3223.2804
   -716568.18049   -554018.34046  21583504.9924   21583503.2464
       240.5034
 04  9 13 20 44  0.0000000  0  6G 3G 8G13G16G23G27
   -881592.60947   -681714.46142  23398289.0234   23398289.6374
        98.1164
  -2787577.82048  -2152831.93443  22928492.8364   22928492.9774
      1498.2384
    773703.08249    597926.67646  20387701.2274   20387698.4414
      -854.5704
   6770519.11347   5225120.45342  24393349.9064   24393350.7544
     -4310.7794
   4784575.31349   3693683.42245  21654756.7894   21654753.0044
     -3229.0894
   -720130.25449   -556793.97746  21582826.9614   21582825.4734
       237.4724
 04  9 13 20 44 15.0010000  0  6G 3G 8G13G16G23G27
   -882943.14847   -682766.77742  23398031.3884   23398032.8174
        90.0364
  -2810010.19548  -2170311.68743  22924224.2784   22924224.3994
      1495.4924
    786627.08649    607997.32047  20390160.4274   20390157.6814
      -861.6004
   6835230.92247   5275545.21942  24405663.7864   24405664.0914
     -4314.1214
   4833101.64149   3731496.12145  21663990.7944   21663987.2554
     -3235.0894
   -723647.48049   -559534.66846  21582157.3644   21582156.2354
       234.4824
 04  9 13 20 44 30.0010000  0  7G19G 3G 8G13G16G23G27
    -61732.83657    -46897.36352  24337611.8644   24337613.1264

   -884171.57048   -683723.97343  23397798.8644   23397799.4744
        81.8954
  -2832397.80148  -2187756.52744  22919963.9584   22919963.8604
      1492.5074
    799655.35949    618149.22347  20392639.6384   20392636.8994
      -868.5524
   6899984.39846   5326002.43442  24417986.9194   24417986.7674
     -4316.8984
   4881711.91049   3769374.22345  21673240.7554   21673237.3534
     -3240.6854
   -727118.99249   -562239.73046  21581496.9424   21581495.4504
       231.4344
 04  9 13 20 44 45.0010000  0  7G19G 3G 8G13G16G23G27
    -85650.88746    -65534.70342  24333060.0834   24333061.5914
      1594.5374
   -885278.21947   -684586.27042  23397587.9744   23397589.1304
        73.7774
  -2854742.52348  -2205167.96944  22915712.0134   22915711.9424
      1489.6484
    812788.35549    628382.71947  20395139.0134   20395136.0604
      -875.5334
   6964782.95346   5376494.73842  24430317.0214   24430317.5364
     -4319.9044
   4930408.60249   3807319.67245  21682507.7394   21682504.3024
     -3246.4464
   -730545.64549   -564909.84846  21580844.9504   21580843.5054
       228.4434
 04  9 13 20 45  0.0010000  0  6G19G 3G 8G13G23G27
   -109529.45746    -84141.27342  24328515.8254   24328517.2714
      1591.9054
   -886263.36747   -685353.90242  23397400.4194   23397401.4974
        65.6774
  -2877044.86748  -2222546.39143  22911468.2084   22911468.2204
      1486.8234
    826025.55949    638697.42646  20397657.5754   20397655.0134
      -882.4804
   4979191.13349   3845332.00845  21691790.9354   21691787.6964
     -3252.1694
   -733928.04749   -567545.47746  21580201.1384   21580199.7904
       225.4934
 04  9 13 20 45 15.0010000  0  6G19G 3G 8G13G23G27
   -133370.33646   -102718.48442  24323978.5214   24323980.7514
      1589.3924
   -887129.07047   -686028.44142  23397235.5524   23397236.2904
        57.7144
  -2899307.20348  -2239893.64144  22907231.5754   22907231.8604
      1484.1564
    839364.84849    649091.67246  20400196.2244   20400193.5994
      -889.2864
   5028057.30949   3883409.50846  21701089.9274   21701086.3334
     -3257.7454
   -737268.35549   -570148.30546  21579565.5284   21579564.3924
       222.6874
 04  9 13 20 45 30.0010000  0  6G19G 3G 8G13G23G27
   -157171.44546   -121264.68742  24319449.4424   24319451.3764
      1586.7414
   -887873.34048   -686608.35242  23397093.9354   23397094.9154
        49.6184
  -2921527.71148  -2257208.28544  22903003.1774   22903002.9114
      1481.3674
    852808.26249    659567.05947  20402754.1224   20402751.9624
      -896.2284
   5077008.64549   3921553.38745  21710405.1384   21710401.3804
     -3263.4224
   -740564.87549   -572717.01646  21578938.1614   21578937.0404
       219.7684
 04  9 13 20 45 45.0010000  0  6G19G 3G 8G13G23G27
   -180930.18446   -139777.91842  24314927.9424   24314929.2824
      1583.9164
   -888493.67247   -687091.71142  23396975.8104   23396976.9934
        41.3554
  -2943704.05948  -2274488.53943  22898783.1144   22898783.0444
      1478.4234
    866358.05149    670125.33247  20405333.0054   20405330.1184
      -903.3194
   5126047.42649   3959765.39845  21719736.6224   21719732.7824
     -3269.2524
   -743815.42249   -575249.89846  21578319.4424   21578318.1424
       216.7034
 04  9 13 20 46  0.0010000  0  6G19G 3G 8G13G23G27
   -204644.95746   -158256.85242  24310415.2394   24310416.7554
      1580.9854
   -888988.65648   -687477.38742  23396882.2554   23396883.1104
        32.9994
  -2965834.86348  -2291733.29743  22894571.3964   22894571.4854
      1475.3874
    880015.65649    680767.62147  20407931.8334   20407929.3844
      -910.5074
   5175174.79749   3998046.44145  21729085.1694   21729081.3414
     -3275.1584
   -747018.72349   -577745.97746  21577710.1694   21577708.3334
       213.5534
 04  9 13 20 46 15.0010000  0  6G19G 3G 8G13G23G27
   -228317.16046   -176702.65642  24305911.1694   24305911.6464
      1578.1474
   -889360.01248   -687766.71542  23396810.6774   23396811.9584
        24.7574
  -2987922.21548  -2308944.18743  22890368.5834   22890368.5524
      1472.4904
    893779.31649    691492.54747  20410550.9194   20410548.3454
      -917.5774
   5224388.62949   4036394.85245  21738450.2164   21738446.5364
     -3280.9224
   -750176.82049   -580206.81646  21577109.1064   21577107.9704
       210.5404
 04  9 13 20 46 30.0010000  0  6G19G 3G 8G13G23G27
   -251945.35946   -195114.14142  24301414.6464   24301415.4624
      1575.2134
   -889606.30547   -687958.59442  23396764.0994   23396764.3134
        16.4204
  -3009964.89848  -2326120.27744  22886174.0524   22886173.9274
      1469.5124
    907650.23449    702301.04746  20413190.2784   20413188.0054
      -924.7284
   5273690.02349   4074811.49245  21747832.1854   21747828.9464
     -3286.7604
   -753288.52749   -582631.51646  21576516.9974   21576515.7084
       207.4474
 04  9 13 20 46 45.0010000  0  6G19G 3G 8G13G23G27
   -275530.00847   -213491.70742  24296926.3174   24296927.4074
      1572.3104
   -889728.07047   -688053.44142  23396740.7164   23396741.0714
         8.1184
  -3031963.70748  -2343262.18443  22881987.7474   22881987.7124
      1466.5874
    921627.66049    713192.54746  20415850.3334   20415847.6464
      -931.8284
   5323078.12549   4113295.69946  21757230.6464   21757227.3964
     -3292.5404
   -756354.62949   -585020.67646  21575933.7784   21575932.2634
       204.4074
 04  9 13 20 47  0.0010000  0  6G19G 3G 8G13G23G27
   -299071.07846   -231835.31242  24292446.5834   24292446.8564
      1569.4054
   -889725.32847   -688051.29342  23396741.1384   23396742.1034
        -0.1834
  -3053918.80548  -2360370.02343  22877809.4974   22877809.4424
      1463.6734
    935711.46549    724166.93847  20418530.1224   20418527.8604
      -938.9204
   5372552.56649   4151847.18046  21766645.0054   21766641.9584
     -3298.2964
   -759375.44949   -587374.55946  21575358.5444   21575357.5794
       201.3884
 04  9 13 20 47 15.0010000  0  6G19G 3G 8G13G23G27
   -322566.41046   -250143.26242  24287975.6464   24287976.4504
      1566.3554
   -889596.19147   -687950.63342  23396765.8414   23396766.5834
        -8.6094
  -3075828.37148  -2377442.39143  22873640.8804   22873640.1304
      1460.6384
    949903.59049    735225.73847  20421230.9034   20421228.3884
      -946.1424
   5422115.07449   4190467.28945  21776076.4274   21776072.9464
     -3304.1674
   -762349.32849   -589691.85546  21574792.7004   21574791.4504
       198.2594
 04  9 13 20 47 30.0010000  0  6G19G 3G 8G13G23G27
   -346016.14146   -268415.67242  24283512.3804   24283513.6614
      1563.3154
   -889340.82447   -687751.61743  23396814.0674   23396815.8604
       -17.0244
  -3097692.98448  -2394479.72744  22869479.8964   22869479.2354
      1457.6414
    964203.67249    746368.65247  20423952.3804   20423949.6814
      -953.3394
   5471764.98849   4229155.50845  21785524.6854   21785521.1534
     -3309.9944
   -765276.84449   -591973.02746  21574235.7714   21574234.7314
       195.1684
 04  9 13 20 47 45.0010000  0  6G19G 3G 8G13G23G27
   -369419.98446   -286652.32842  24279059.3804   24279060.3214
      1560.2564
   -888959.35947   -687454.31242  23396886.4034   23396888.3924
       -25.4314
  -3119512.91448  -2411482.24644  22865327.4744   22865327.4784
      1454.6624
    978611.61349    757595.61347  20426693.8024   20426691.6814
      -960.5294
   5521502.04749   4267911.63345  21794989.3254   21794985.6774
     -3315.8044
   -768158.09849   -594218.15246  21573687.3644   21573686.2744
       192.0844
 04  9 13 20 48  0.0010000  0  6G19G 3G 8G13G23G27
   -392779.06647   -304854.10242  24274614.5214   24274614.7594
      1557.2724
   -888452.92647   -687059.66442  23396983.4034   23396984.6344
       -33.7624
  -3141289.26248  -2428450.78943  22861183.9194   22861183.4784
      1451.7574
    993126.04749    768905.55947  20429456.2004   20429453.2674
      -967.6294
   5571324.71149   4306734.45345  21804470.4034   21804466.4074
     -3321.5114
   -770994.64849   -596428.44546  21573147.5054   21573146.4424
       189.1034
 04  9 13 20 48 15.0010000  0  6G19G 3G 8G13G23G27
   -416093.89847   -323021.43442  24270177.7244   24270177.5794
      1554.3224
   -887822.32847   -686568.27043  23397102.9504   23397104.2314
       -42.0404
  -3163023.25448  -2445386.35543  22857047.8884   22857047.5134
      1448.9334
   1007746.22349    780297.90247  20432237.8964   20432235.2944
      -974.6784
   5621231.91849   4345623.15245  21813967.6144   21813964.1494
     -3327.1474
   -773787.38349   -598604.59446  21572615.9354   21572615.1464
       186.1824
 04  9 13 20 48 30.0010000  0  6G19G 3G 8G13G23G27
   -439362.15247   -341152.43442  24265750.0994   24265750.6734
      1551.2174
   -887065.11347   -685978.20343  23397247.1774   23397248.8294
       -50.4814
  -3184712.66448  -2462287.16444  22852920.0914   22852920.0244
      1445.9614
   1022474.49649    791774.47747  20435040.6384   20435038.0834
      -981.8854
   5671225.78549   4384579.38745  21823481.0054   21823477.8884
     -3332.9244
   -776534.30949   -600745.04746  21572093.3494   21572091.9384
       183.1284
 04  9 13 20 48 45.0010000  0  6G19G 3G 8G13G23G27
   -462584.07047   -359247.35242  24261330.8254   24261331.2044
      1548.1284
   -886181.82047   -685289.87942  23397415.4424   23397417.1814
       -58.8864
  -3206358.06248  -2479153.68443  22848801.2864   22848800.7904
      1443.0274
   1037310.10249    803334.68847  20437863.8254   20437861.4114
      -989.0404
   5721305.52749   4423602.54345  21833010.7864   21833007.8764
     -3338.6494
   -779236.10949   -602850.34046  21571579.3334   21571578.0564
       180.1204
 04  9 13 20 49  0.0010000  0  6G19G 3G 8G13G23G27
   -485763.03947   -377308.82842  24256920.2244   24256919.8494
      1545.2654
   -885176.01647   -684506.08642  23397606.8884   23397608.9784
       -67.0544
  -3227963.07048  -2495988.73844  22844690.3024   22844689.6424
      1440.3344
   1052249.43849    814975.73046  20440706.8104   20440704.2864
      -995.9564
   5771467.19949   4462689.51645  21842556.3254   21842553.1884
     -3344.1114
   -781896.60949   -604923.44546  21571073.1464   21571071.7864
       177.3674
 04  9 13 20 49 15.0010000  0  6G19G 3G 8G13G23G27
   -508897.15647   -395335.36342  24252517.7164   24252517.3174
      1542.2744
   -884045.88347   -683625.44542  23397821.8254   23397822.8254
       -75.3424
  -3249526.43048  -2512791.33644  22840586.9504   22840586.7164
      1437.5574
   1067294.14549    826698.87547  20443569.7394   20443567.2904
     -1002.9804
   5821712.29749   4501841.50445  21852117.8254   21852114.3534
     -3349.6734
   -784514.14849   -606963.08246  21570574.7554   21570573.5754
       174.5034
 04  9 13 20 49 30.0010000  0  6G19G 3G 8G13G23G27
   -531984.09048   -413325.06242  24248124.2634   24248124.2004
      1539.1294
   -882789.38347   -682646.31242  23398060.8334   23398061.4934
       -83.7674
  -3271046.09448  -2529559.87144  22836491.8564   22836491.5714
      1434.6444
   1082446.18849    838505.66846  20446453.0054   20446450.3804
     -1010.1364
   5872042.59049   4541059.88345  21861695.5994   21861692.0444
     -3355.3534
   -787087.00449   -608967.89146  21570085.2784   21570084.3214
       171.5244
 04  9 13 20 49 45.0010000  0  6G19G 3G 8G13G23G27
   -555024.51647   -431278.59042  24243740.1464   24243739.3644
      1536.0284
   -881407.24647   -681569.30142  23398323.5214   23398324.0404
       -92.1424
  -3292523.07848  -2546295.15644  22832404.7554   22832404.4624
      1431.7994
   1097704.68449    850395.39547  20449356.6534   20449353.8454
     -1017.2334
   5922456.96149   4580343.77745  21871289.2394   21871285.2864
     -3360.9584
   -789616.32049   -610938.78146  21569604.1064   21569602.8964
       168.6214
 04  9 13 20 50  0.0010000  0  6G19G 3G 8G13G23G27
   -578018.98847   -449196.28942  24239363.7714   24239364.5634
      1532.9654
   -879900.16847   -680394.91442  23398610.5524   23398611.1184
      -100.4724
  -3313958.14548  -2562997.77744  22828326.0604   22828325.5054
      1429.0044
   1113068.85949    862367.48047  20452280.0994   20452277.6304
     -1024.2784
   5972954.53949   4619692.52345  21880898.1774   21880894.1104
     -3366.5054
   -792102.91049   -612876.37946  21569130.9504   21569129.0674
       165.7734
 04  9 13 20 50 15.0010000  0  6G19G 3G 8G13G23G27
   -600966.22347   -467077.13343  24234996.4584   24234998.0484
      1529.8164
   -878267.12548   -679122.40642  23398922.0914   23398922.9854
      -108.8704
  -3335350.23448  -2579666.91844  22824254.8964   22824254.7984
      1426.1394
   1128539.80549    874422.76247  20455224.0444   20455221.6144
     -1031.3964
   6023535.98849   4659106.60545  21890523.4894   21890520.0014
     -3372.0974
   -794545.83249   -614779.94546  21568665.7004   21568664.6424
       162.8614
 04  9 13 20 50 30.0010000  0  6G19G 3G 8G13G23G27
   -623867.30947   -484922.05143  24230639.4114   24230640.0244
      1526.7394
   -876509.44547   -677752.75043  23399255.7244   23399257.8334
      -117.1794
  -3356700.99648  -2596303.84444  22820191.7784   22820191.7784
      1423.3844
   1144116.12949    886560.16447  20458188.5214   20458185.9424
     -1038.4224
   6074199.68449   4698584.77345  21900164.3414   21900161.5014
     -3377.5804
   -796946.63349   -616650.68746  21568208.9274   21568207.9354
       160.0534
 04  9 13 20 50 45.0010000  0  6G19G 3G 8G13G23G27
   -646718.92248   -502728.39543  24226290.5444   24226291.1144
      1523.4414
   -874623.89147   -676283.44542  23399614.3644   23399616.9894
      -125.7044
  -3378007.58248  -2612906.34444  22816137.3174   22816137.0524
      1420.4394
   1159800.91449    898782.06647  20461173.2554   20461170.3494
     -1045.6524
   6124948.50049   4738129.26645  21909821.8804   21909818.7244
     -3383.2544
   -799302.38349   -618486.32846  21567760.8644   21567759.4664
       157.0504
 04  9 13 20 51  0.0010000  0  6G19G 3G 8G13G23G27
   -669520.97347   -520496.13743  24221951.0134   24221952.0364
      1520.1374
   -872610.37148   -674714.44543  23399998.2864   23399998.6654
      -134.2354
  -3399269.96548  -2629474.40244  22812091.0524   22812090.6654
      1417.4924
   1175594.20349    911088.52747  20464178.3804   20464175.8334
     -1052.8864
   6175782.20349   4777739.90246  21919495.0054   21919491.8374
     -3388.9144
   -801613.37149   -620287.09446  21567320.8804   21567319.5284
       154.0664
 04  9 13 20 51 15.0010000  0  6G19G 3G 8G13G23G27
   -692274.80547   -538226.30943  24217621.8414   24217622.2514
      1516.9224
   -870470.51647   -673047.01642  23400405.0364   23400405.9814
      -142.6574
  -3420489.77748  -2646009.30144  22808053.2474   22808053.1104
      1414.6544
   1191494.06649    923478.03547  20467204.0754   20467201.1694
     -1059.9914
   6226699.03149   4817415.32446  21929184.3494   21929180.1184
     -3394.4554
   -803881.27049   -622054.27746  21566889.5604   21566888.1144
       151.1934
 04  9 13 20 51 30.0010000  0  6G19G 3G 8G13G23G27
   -714978.59847   -555917.48043  24213300.3564   24213301.7744
      1513.5864
   -868202.65647   -671279.84442  23400836.3024   23400837.4504
      -151.1914
  -3441665.89848  -2662510.14844  22804023.2714   22804023.5094
      1411.7414
   1207502.19949    935951.90247  20470250.3334   20470248.0444
     -1067.2094
   6277700.17649   4857156.45345  21938889.5834   21938885.4464
     -3400.0764
   -806104.81649   -623786.90646  21566466.2394   21566464.7284
       148.2364
 04  9 13 20 51 45.0010000  0  6G19G 3G 8G13G23G27
   -737631.66848   -573569.13743  24208990.5284   24208990.0564
      1510.2054
   -865806.34047   -669412.56242  23401292.6614   23401294.1224
      -159.7544
  -3462797.78548  -2678976.52344  22800002.0604   22800002.0994
      1408.7924
   1223618.98449    948510.43447  20473317.1064   20473314.9274
     -1074.4524
   6328785.91849   4896963.49245  21948610.7394   21948607.3604
     -3405.7164
   -808283.61349   -625484.66846  21566051.4894   21566050.0404
       145.2534
 04  9 13 20 52  0.0010000  0  6G19G 3G 8G13G23G27
   -760233.89547   -591181.18443  24204689.5674   24204689.2904
      1506.8154
   -863281.61347   -667445.21942  23401772.8334   23401774.7744
      -168.3154
  -3483885.88748  -2695408.77744  22795989.5754   22795989.0214
      1405.8734
   1239844.22749    961153.47747  20476404.6924   20476402.2394
     -1081.6834
   6379955.88749   4936836.14545  21958347.5674   21958345.0994
     -3411.3314
   -810418.11349   -627147.90246  21565645.3104   21565643.9784
       142.3004
 04  9 13 20 52 15.0010000  0  6G19G 3G 8G13G23G27
   -782784.32447   -608752.83643  24200398.3644   24200398.7514
      1503.3624
   -860627.61347   -665377.14542  23402278.0214   23402278.7824
      -176.9334
  -3504929.23048  -2711806.16444  22791984.8494   22791984.9354
      1402.8904
   1256178.82049    973881.72747  20479513.4114   20479510.5054
     -1088.9734
   6431210.72349   4976774.94545  21968101.7314   21968098.7784
     -3416.9894
   -812507.44549   -628775.94946  21565248.0524   21565246.7634
       139.2894
 04  9 13 20 52 30.0010000  0  6G19G 3G 8G13G23G27
   -805281.64547   -626283.12543  24196116.9354   24196117.3764
      1499.8214
   -857843.21947   -663207.46142  23402807.5754   23402808.8414
      -185.6264
  -3525926.85248  -2728167.91444  22787989.0214   22787988.7394
      1399.8414
   1272623.67649    986695.91047  20482642.6614   20482640.0634
     -1096.3244
   6482551.02049   5016780.33245  21977871.5754   21977868.5444
     -3422.6864
   -814550.95749   -630368.28546  21564859.2634   21564858.0994
       136.2344
 04  9 13 20 52 45.0010000  0  6G19G 3G 8G13G23G27
   -827725.71148   -643771.94943  24191845.5284   24191845.8104
      1496.2714
   -854928.40647   -660936.15643  23403361.8724   23403363.6224
      -194.3214
  -3546879.14848  -2744494.34444  22784002.2084   22784001.7824
      1396.8204
   1289178.69549    999595.92247  20485792.7634   20485790.3334
     -1103.6684
   6533976.52749   5056852.12545  21987657.3964   21987654.2984
     -3428.3674
   -816548.76649   -631925.01246  21564479.0364   21564477.3884
       133.1874
 04  9 13 20 53  0.0010000  0  6G19G 3G 8G13G23G27
   -850114.97747   -661218.04743  24187585.4504   24187586.2284
      1492.6184
   -851881.95747   -658562.27343  23403941.6534   23403943.9504
      -203.0974
  -3567785.00048  -2760784.59844  22780023.7314   22780023.7904
      1393.7234
   1305845.18049   1012582.79346  20488964.2314   20488961.8994
     -1111.0994
   6585488.38749   5096991.20345  21997459.7944   21997456.3644
     -3434.1244
   -818499.77049   -633445.27346  21564107.7784   21564106.0914
       130.0674
 04  9 13 20 53 15.0010000  0  6G19G 3G 8G13G23G27
   -872448.90247   -678621.02743  24183335.3024   24183335.2904
      1488.9284
   -848703.46547   -656085.52042  23404546.8964   23404548.5754
      -211.8994
  -3588643.93448  -2777038.28544  22776054.3564   22776054.0714
      1390.5964
   1322623.47749   1025656.78947  20492157.2784   20492154.9504
     -1118.5534
   6637086.70749   5137197.65245  22007278.0834   22007275.3064
     -3439.8884
   -820403.85549   -634928.96946  21563745.0834   21563743.6424
       126.9394
 04  9 13 20 53 30.0010000  0  6G19G 3G 8G13G23G27
   -894727.54347   -695980.93042  24179095.6304   24179096.0134
      1485.2434
   -845393.27047   -653506.13742  23405177.3884   23405178.0404
      -220.6804
  -3609456.55948  -2793255.88744  22772093.5914   22772093.8494
      1387.5084
   1339513.09849   1038817.52747  20495371.3724   20495368.9384
     -1125.9754
   6688770.80949   5177470.93845  22017113.8884   22017110.3644
     -3445.6074
   -822261.46949   -636376.44946  21563391.9034   21563390.0714
       123.8414
 04  9 13 20 53 45.0010000  0  6G19G 3G 8G13G23G27
   -916950.02047   -713297.02042  24174866.6924   24174867.2434
      1481.4984
   -841950.63747   -650823.53942  23405832.0054   23405832.6424
      -229.5094
  -3630222.26248  -2809436.91844  22768141.8564   22768141.8064
      1384.3804
   1356514.59049   1052065.43847  20498606.6384   20498604.2634
     -1133.4334
   6740541.08249   5217811.37545  22026965.7944   22026962.2864
     -3451.3524
   -824072.20349   -637787.40246  21563046.9114   21563045.6854
       120.7164
 04  9 13 20 54  0.0010000  0  6G19G 3G 8G13G23G27
   -939117.89547   -730570.60942  24170648.0284   24170647.7634
      1477.8584
   -838377.12547   -648038.98042  23406511.9974   23406513.2714
      -238.2344
  -3650943.04748  -2825582.95344  22764198.8494   22764198.7124
      1381.3864
   1373626.41449   1065399.32447  20501862.7714   20501860.3494
     -1140.7884
   6792395.63749   5258217.49645  22036833.2634   22036830.0794
     -3456.9704
   -825837.85249   -639163.22346  21562710.9974   21562709.4784
       117.7104
 04  9 13 20 54 15.0010000  0  6G19G 3G 8G13G23G27
   -961231.21147   -747801.69143  24166439.9584   24166439.8644
      1474.2214
   -834672.98047   -645152.60543  23407216.8024   23407218.2314
      -246.9434
  -3671619.05548  -2841694.09844  22760264.6464   22760264.6384
      1378.4014
   1390848.08249   1078818.80147  20505139.9504   20505137.4034
     -1148.1114
   6844333.83649   5298688.78945  22046716.6224   22046713.4894
     -3462.5474
   -827558.93749   -640504.32446  21562383.4424   21562382.3414
       114.7394
 04  9 13 20 54 30.0010000  0  6G19G 3G 8G13G23G27
   -983287.62147   -764988.40243  24162242.6144   24162243.3294
      1470.4274
   -830836.10548   -642162.81643  23407946.9814   23407947.8104
      -255.7924
  -3692248.35248  -2857768.84444  22756339.3024   22756339.0564
      1375.2864
   1408181.80549   1092325.60247  20508438.6304   20508435.8684
     -1155.5824
   6896357.61749   5339226.76645  22056616.2944   22056613.5444
     -3468.2524
   -829233.44549   -641809.12946  21562064.7474   21562063.7164
       111.6344
 04  9 13 20 54 45.0010000  0  6G19G 3G 8G13G23G27
  -1005287.34047   -782130.97343  24158055.9274   24158056.5324
      1466.6484
   -826866.94948   -639069.96143  23408702.3804   23408703.8294
      -264.6104
  -3712831.71948  -2873807.80544  22752422.0604   22752422.0674
      1372.2244
   1425626.89849   1105919.18047  20511758.1924   20511755.9464
     -1163.0064
   6948466.32049   5379830.90245  22066532.2004   22066529.5674
     -3473.9144
   -830862.11349   -643078.21146  21561755.1464   21561753.9034
       108.5784
 04  9 13 20 55  0.0010000  0  6G19G 3G 8G13G23G27
  -1027232.74247   -799231.20743  24153880.1694   24153880.5214
      1463.0274
   -822768.18048   -635876.09043  23409482.0134   23409483.4584
      -273.2514
  -3733371.72748  -2889812.98444  22748513.8724   22748513.4784
      1369.3344
   1443180.93449   1119597.64147  20515098.6924   20515096.0364
     -1170.2694
   7000656.95749   5420498.90245  22076463.8644   22076460.7244
     -3479.3764
   -832447.62949   -644313.68046  21561453.3644   21561452.1104
       105.7014
 04  9 13 20 55 15.0010000  0  6G19G 3G 8G13G23G27
  -1049121.05547   -816286.94543  24149715.2554   24149715.3644
      1459.2214
   -818536.96148   -632579.00043  23410287.2314   23410288.0484
      -282.0814
  -3753866.13748  -2905782.62544  22744613.5994   22744613.3454
      1366.2944
   1460846.49249   1133363.01647  20518460.1854   20518457.9894
     -1177.7044
   7052932.03949   5461232.70345  22086411.8414   22086408.4854
     -3485.0054
   -833987.60249   -645513.64546  21561160.3494   21561159.0604
       102.6654
 04  9 13 20 55 30.0010000  0  6G19G 3G 8G13G23G27
  -1070953.96147   -833299.52043  24145560.2244   24145560.0604
      1455.5274
   -814175.23848   -629180.24642  23411117.3494   23411117.2634
      -290.7824
  -3774316.71148  -2921718.11344  22740721.7394   22740721.6734
      1363.3724
   1478621.32849   1147213.52747  20521842.4744   20521840.2354
     -1184.9894
   7105289.28549   5502030.52345  22096374.8964   22096371.4154
     -3490.4834
   -835484.11749   -646679.75446  21560875.6614   21560874.4744
        99.7684
 04  9 13 20 55 45.0010000  0  6G19G 3G 8G13G23G27
  -1092730.42646   -850268.13743  24141416.3334   24141416.5604
      1451.7644
   -809682.15647   -625679.12943  23411972.3884   23411972.5834
      -299.5394
  -3794722.65648  -2937618.82444  22736838.6924   22736838.2674
      1360.3964
   1496506.32049   1161149.88347  20525246.0054   20525243.3254
     -1192.3334
   7157729.16449   5542892.74245  22106353.7634   22106351.0364
     -3495.9924
   -836936.62549   -647811.56646  21560598.9744   21560597.6814
        96.8344
 04  9 13 20 56  0.0010000  0  6G19G 3G 8G13G23G27
  -1114449.36746   -867191.88343  24137282.6224   24137283.7904
      1447.9294
   -805056.87948   -622074.99642  23412852.7714   23412853.2284
      -308.3524
  -3815083.62948  -2953484.49244  22732964.0834   22732963.6574
      1357.3984
   1514502.28549   1175172.71547  20528670.4744   20528667.8414
     -1199.7314
   7210252.44549   5583819.93445  22116348.4354   22116345.7474
     -3501.5524
   -838344.30549   -648908.45346  21560331.2634   21560329.7044
        93.8454
 04  9 13 20 56 15.0010000  0  6G19G 3G 8G13G23G27
  -1136111.37947   -884071.28942  24133160.6534   24133160.4934
      1444.1344
   -800300.22747   -618368.47742  23413757.7474   23413758.0794
      -317.1104
  -3835400.19148  -2969315.56244  22729098.3494   22729097.8254
      1354.4384
   1532608.30149   1189281.28947  20532116.2164   20532113.5794
     -1207.0684
   7262857.88749   5624811.14145  22126359.1064   22126355.7284
     -3507.0294
   -839708.11349   -649971.14846  21560071.6064   21560070.0634
        90.9214
 04  9 13 20 56 30.0010000  0  6G19G 3G 8G13G23G27
  -1157715.97746   -900905.96142  24129049.2944   24129048.8174
      1440.3074
   -795411.82447   -614559.30142  23414687.7314   23414688.2984
      -325.8934
  -3855672.46148  -2985112.11744  22725240.2314   22725239.9624
      1351.4854
   1550824.65649   1203475.84846  20535582.7554   20535580.1304
     -1214.4244
   7315545.62549   5665866.48445  22136385.7314   22136381.6384
     -3512.5164
   -841028.10549   -650999.70746  21559820.4274   21559818.8214
        87.9994
 04  9 13 20 56 45.0010000  0  6G19G 3G 8G13G23G27
  -1179261.65246   -917694.71542  24124949.2554   24124949.3764
      1436.3784
   -790390.39847   -610646.49643  23415642.9814   23415644.3254
      -334.7624
  -3875899.10248  -3000873.10944  22721391.2244   22721390.8644
      1348.4434
   1569152.68849   1217757.43447  20539070.0674   20539067.9624
     -1221.8694
   7368316.66849   5706986.75045  22146427.4274   22146423.4854
     -3518.0704
   -842303.13349   -651993.23046  21559578.0834   21559576.1694
        85.0024
 04  9 13 20 57  0.0010000  0  6G19G 3G 8G13G23G27
  -1200750.31247   -934439.04342  24120860.3884   24120859.6814
      1432.5774
   -785238.09047   -606631.68042  23416623.5834   23416624.2714
      -343.4874
  -3896082.53548  -3016600.43444  22717550.4584   22717550.3924
      1345.5624
   1587590.17649   1232124.30947  20542578.7394   20542576.4274
     -1229.1664
   7421168.56649   5748170.02045  22156484.7474   22156481.2314
     -3523.4604
   -843535.41049   -652953.43046  21559343.3964   21559342.1104
        82.1524
 04  9 13 20 57 15.0010000  0  6G19G 3G 8G13G23G27
  -1222180.39546   -951137.75842  24116782.3564   24116781.6424
      1428.6724
   -779953.41047   -602513.72343  23417629.3104   23417630.1924
      -352.3124
  -3916221.58248  -3032293.17244  22713718.3494   22713718.1264
      1342.6034
   1606138.30149   1246577.38347  20546108.0364   20546105.7434
     -1236.5424
   7474102.41049   5789417.13345  22166557.6224   22166554.2164
     -3528.9234
   -844723.96149   -653879.56246  21559117.3334   21559115.8294
        79.2374
 04  9 13 20 57 30.0010000  0  6G19G 3G 8G13G23G27
  -1243551.61747   -967790.57843  24112715.4584   24112716.0954
      1424.7484
   -774536.30547   -598292.56643  23418659.7084   23418660.3994
      -361.1404
  -3936315.99648  -3047951.14144  22709894.5524   22709894.1854
      1339.6284
   1624797.16049   1261116.75447  20549658.8724   20549656.5524
     -1243.9244
   7527118.07449   5830728.00045  22176646.2714   22176643.3104
     -3534.3784
   -845868.65249   -654771.52746  21558899.1304   21558897.9854
        76.3134
 04  9 13 20 57 45.0010000  0  6G19G 3G 8G13G23G27
  -1264865.07847   -984398.39843  24108659.1384   24108659.7314
      1420.8974
   -768988.12147   -593969.27343  23419715.9664   23419716.3294
      -369.8794
  -3956367.39548  -3063575.57844  22706078.8334   22706078.5284
      1336.7604
   1643565.34449   1275741.30547  20553230.4894   20553228.0994
     -1251.2124
   7580213.99649   5872101.39845  22186750.3414   22186747.4194
     -3539.7284
   -846970.97749   -655630.47346  21558689.6854   21558687.9704
        73.4884
 04  9 13 20 58  0.0010000  0  6G19G 3G 8G13G23G27
  -1286119.22347  -1000959.99243  24104614.7244   24104615.2674
      1416.9434
   -763307.41048   -589542.72343  23420796.7474   23420798.2084
      -378.7144
  -3976374.38348  -3079165.41444  22702271.4504   22702271.3214
      1333.7994
   1662444.21149   1290452.11347  20556822.9034   20556820.5484
     -1258.5914
   7633391.14849   5913538.11345  22196869.7084   22196866.2944
     -3545.1434
   -848029.91849   -656455.60546  21558488.1064   21558486.6184
        70.5964
 04  9 13 20 58 15.0010000  0  6G19G 3G 8G13G23G27
  -1307315.26247  -1017476.32042  24100581.0674   24100581.5874
      1413.0694
   -757495.62548   -585014.02743  23421903.1614   23421904.1924
      -387.4524
  -3996338.78148  -3094722.06244  22698471.9504   22698471.8174
      1330.9604
   1681432.18449   1305247.93047  20560436.5914   20560433.7284
     -1265.8654
   7686647.94149   5955036.88745  22207004.3174   22207000.3724
     -3550.4534
   -849046.96949   -657248.10546  21558294.6534   21558293.2864
        67.8034
 04  9 13 20 58 30.0010000  0  6G19G 3G 8G13G23G27
  -1328451.87947  -1033946.32843  24096558.8884   24096559.1814
      1409.1084
   -751551.84448   -580382.50043  23423034.2314   23423035.0364
      -396.2524
  -4016259.47748  -3110244.66044  22694681.2714   22694681.4034
      1328.0464
   1700530.25049   1320129.53547  20564070.1854   20564067.9384
     -1273.2044
   7739985.04349   5996598.23445  22217153.8564   22217149.8804
     -3555.8074
   -850021.32049   -658007.33246  21558108.8494   21558107.7284
        64.9574
 04  9 13 20 58 45.0010000  0  6G19G 3G 8G13G23G27
  -1349529.60547  -1050370.43442  24092548.0444   24092548.1534
      1405.1824
   -745476.77047   -575648.63743  23424190.3334   23424190.6104
      -405.0054
  -4036137.27748  -3125733.83644  22690898.5994   22690898.4464
      1325.1874
   1719737.78549   1335096.44947  20567725.6774   20567723.0994
     -1280.5024
   7793401.67649   6038221.55545  22227318.3884   22227314.5284
     -3561.1094
   -850953.84449   -658733.96146  21557931.7944   21557930.0524
        62.1684
 04  9 13 20 59  0.0010000  0  6G19G 3G 8G13G23G27
  -1370545.93747  -1066746.73442  24088548.5834   24088548.8174
      1401.0894
   -739268.05147   -570810.64843  23425371.2004   23425372.1694
      -413.9154
  -4055970.26648  -3141188.09044  22687124.5134   22687124.3804
      1322.1994
   1739056.85549   1350150.26247  20571401.9504   20571399.4354
     -1287.9384
   7846899.68048   6079908.28145  22237498.7084   22237495.1224
     -3566.5344
   -851842.43449   -659426.36346  21557762.4034   21557761.3964
        59.2394
 04  9 13 20 59 15.0010000  0  6G19G 3G 8G13G23G27
  -1391501.26247  -1083075.52042  24084561.2714   24084560.2394
      1397.0224
   -732926.13348   -565868.85943  23426578.3644   23426579.1224
      -422.7954
  -4075759.05148  -3156607.89844  22683358.9114   22683358.8104
      1319.2524
   1758486.94149   1365290.58247  20575099.3334   20575096.9544
     -1295.3394
   7900478.28949   6121657.80145  22247694.5364   22247691.3644
     -3571.9074
   -852687.81649   -660085.09046  21557601.4894   21557600.3454
        56.3594
 04  9 13 20 59 30.0010000  0  6G19G 3G 8G13G23G27
  -1412395.62147  -1099356.75443  24080585.2394   24080583.9784
      1392.9574
   -726451.28548   -560823.50843  23427810.8494   23427810.9464
      -431.6574
  -4095503.89548  -3171993.47344  22679601.4894   22679601.7004
      1316.3234
   1778027.75449   1380517.19147  20578817.5134   20578815.3024
     -1302.7214
   7954136.93049   6163469.69545  22257905.7554   22257902.3414
     -3577.2434
   -853490.44549   -660710.50846  21557448.8644   21557447.5954
        53.5094
 04  9 13 20 59 45.0010000  0  6G19G 3G 8G13G23G27
  -1433229.68047  -1115591.05142  24076619.9504   24076618.9814
      1388.9374
   -719844.44547   -555675.30543  23429066.9744   23429068.8064
      -440.4564
  -4115205.92248  -3187345.68044  22675852.1924   22675852.2314
      1313.4684
   1797678.18449   1395829.21147  20582556.9894   20582554.7394
     -1310.0294
   8007874.39849   6205343.01645  22268131.5214   22268128.2474
     -3582.4984
   -854251.43049   -661303.47746  21557304.0994   21557302.5094
        50.7324
 04  9 13 21  0  0.0010000  0  6G19G 3G 8G13G23G27
  -1454003.14847  -1131778.11342  24072667.1304   24072666.0954
      1384.8984
   -713105.60548   -550424.23043  23430350.0834   23430351.2044
      -449.2564
  -4134865.21948  -3202664.58644  22672111.1064   22672111.0134
      1310.6204
   1817438.25049   1411226.66847  20586317.1854   20586314.8564
     -1317.3384
   8061690.63349   6247277.70345  22278372.1774   22278368.6574
     -3587.7494
   -854970.69549   -661863.93446  21557167.3414   21557166.1964
        47.9514
 04  9 13 21  0 15.0010000  0  6G19G 3G 8G13G23G27
  -1474715.33248  -1147917.42243  24068726.7864   24068725.9354
      1380.8124
   -706234.38748   -545070.01243  23431657.9814   23431658.2284
      -458.0814
  -4154481.46148  -3217949.94944  22668378.7394   22668378.5134
      1307.7494
   1837308.31649   1426709.83247  20590098.5604   20590095.9704
     -1324.6714
   8115585.67648   6289273.81644  22288627.8724   22288624.7904
     -3593.0034
   -855648.29749   -662391.92646  21557038.1464   21557036.6304
        45.1734
 04  9 13 21  0 30.0010000  0  6G19G 3G 8G13G23G27
  -1495364.04747  -1164007.27343  24064796.7634   24064796.3804
      1376.5814
   -699228.57848   -539610.89843  23432991.0994   23432991.5714
      -467.0544
  -4174052.75048  -3233200.27344  22664654.0914   22664654.1384
      1304.7534
   1857290.41849   1442280.29347  20593900.9354   20593898.6264
     -1332.1404
   8169561.28548   6331332.69144  22298899.5134   22298895.7784
     -3598.3744
   -856282.12149   -662885.80546  21556917.3494   21556916.2204
        42.2554
 04  9 13 21  0 45.0010000  0  6G19G 3G 8G13G23G27
  -1515949.68447  -1180047.97343  24060879.3254   24060879.1774
      1372.3764
   -692088.87948   -534047.49243  23434349.0134   23434350.6344
      -475.9804
  -4193579.88748  -3248416.19544  22660938.5284   22660938.1104
      1301.8094
   1877383.82849   1457937.49647  20597724.7084   20597722.2164
     -1339.5614
   8223616.53549   6373453.62944  22309186.2314   22309182.3454
     -3603.6834
   -856873.10549   -663346.30146  21556805.2314   21556803.8134
        39.3994
 04  9 13 21  1  0.0010000  0  6G19G 3G 8G13G23G27
  -1536471.65647  -1196039.05543  24056973.9584   24056973.1464
      1368.1324
   -684814.86747   -528379.39543  23435733.9504   23435734.0874
      -484.9344
  -4213062.33648  -3263597.30544  22657231.1064   22657230.8334
      1298.8304
   1897588.91449   1473681.71947  20601569.5364   20601566.8964
     -1347.0064
   8277751.58649   6415636.76245  22319487.5214   22319484.0324
     -3609.0034
   -857420.84449   -663773.09846  21556700.8104   21556699.5634
        36.5164
 04  9 13 21  1 15.0010000  0  6G19G 3G 8G13G23G27
  -1556931.23047  -1211981.52043  24053080.7164   24053080.6424
      1363.9724
   -677407.97747   -522607.77043  23437143.0444   23437143.8604
      -493.7934
  -4232501.78548  -3278744.89844  22653531.9504   22653531.4194
      1295.9634
   1917904.19549   1489511.80547  20605435.4354   20605432.9974
     -1354.3524
   8331964.85249   6457880.83645  22329804.0284   22329800.7634
     -3614.2184
   -857927.01649   -664167.50446  21556604.6384   21556603.2554
        33.7454
 04  9 13 21  1 30.0010000  0  6G19G 3G 8G13G23G27
  -1577326.42247  -1227873.80543  24049199.5444   24049198.5484
      1359.6794
   -669866.40248   -516731.19943  23438577.9664   23438578.9814
      -502.7724
  -4251896.60549  -3293857.72344  22649841.0134   22649840.7674
      1292.9884
   1938331.46149   1505429.15647  20609322.8564   20609320.5134
     -1361.8184
   8386257.82049   6500187.01245  22340135.6224   22340132.7984
     -3619.5314
   -858390.05149   -664528.29746  21556516.6064   21556515.1104
        30.8694
 04  9 13 21  1 45.0010000  0  6G19G 3G 8G13G23G27
  -1597656.55147  -1243715.39143  24045330.3564   24045329.3804
      1355.3424
   -662189.80947   -510749.41043  23440038.7474   23440039.7244
      -511.7734
  -4271246.64148  -3308935.64544  22646158.6464   22646158.4504
      1290.0024
   1958871.03549   1521434.01647  20613231.0364   20613228.7514
     -1369.3054
   8440630.54748   6542555.32045  22350482.2004   22350479.3564
     -3624.8484
   -858809.66449   -664855.25446  21556436.4974   21556435.2434
        27.9744
 04  9 13 21  2  0.0010000  0  6G19G 3G 8G13G23G27
  -1617920.80147  -1259505.66442  24041474.3254   24041473.9274
      1350.9504
   -654377.68047   -504662.02343  23441525.6854   23441526.7164
      -520.8094
  -4290551.39848  -3323978.28144  22642485.6304   22642485.0364
      1286.9844
   1979523.24649   1537526.64547  20617161.0994   20617158.8684
     -1376.8144
   8495083.27348   6584985.97744  22360844.4114   22360840.8214
     -3630.1824
   -859185.64149   -665148.21546  21556364.9504   21556363.5794
        25.0654
 04  9 13 21  2 15.0010000  0  6G19G 3G 8G13G23G27
  -1638120.04347  -1275245.27743  24037630.2084   24037630.0364
      1346.6164
   -646431.00048   -498469.77743  23443037.5994   23443039.6064
      -529.7794
  -4309811.87548  -3338986.42244  22638820.0444   22638819.7084
      1284.0324
   2000286.97349   1553706.16847  20621112.2784   20621109.7594
     -1384.2484
   8549614.73048   6627477.99245  22371221.5754   22371217.2674
     -3635.4304
   -859519.06649   -665408.01246  21556301.6064   21556300.3414
        22.2284
 04  9 13 21  2 30.0010000  0  6G19G 3G 8G13G23G27
  -1658253.48447  -1290933.58643  24033799.7474   24033799.0874
      1342.2294
   -638349.18448   -492172.22743  23444575.9894   23444576.2204
      -538.7884
  -4329027.87548  -3353959.90244  22635163.3254   22635163.3214
      1281.0674
   2021163.01249   1569973.21546  20625085.1614   20625082.4784
     -1391.7364
   8604225.34449   6670031.68844  22381613.7084   22381610.1924
     -3640.7084
   -859809.43449   -665634.26246  21556246.2164   21556244.8844
        19.3584
 04  9 13 21  2 45.0010000  0  6G19G 3G 8G13G23G27
  -1678321.13346  -1306570.67643  24029980.1534   24029979.6184
      1337.8434
   -630132.63748   -485769.69543  23446139.2244   23446140.0214
      -547.7704
  -4348199.49648  -3368898.79744  22631515.3254   22631514.9034
      1278.1084
   2042150.73049   1586327.27747  20629078.7164   20629076.3924
     -1399.1814
   8658914.33249   6712646.45745  22392020.8174   22392017.7824
     -3645.9334
   -860057.32449   -665827.41446  21556199.3254   21556197.7514
        16.5264
 04  9 13 21  3  0.0010000  0  6G19G 3G 8G13G23G27
  -1698322.16447  -1322155.82843  24026174.6694   24026173.3174
      1333.4024
   -621780.50448   -479261.52343  23447728.1614   23447729.5634
      -556.8094
  -4367326.25048  -3383802.74244  22627875.3024   22627875.1184
      1275.1174
   2063250.86749   1602768.94147  20633094.2634   20633091.7004
     -1406.6764
   8713682.28548   6755322.75045  22402442.5214   22402439.7164
     -3651.1974
   -860262.16449   -665987.02046  21556159.9274   21556158.2944
        13.6564
 04  9 13 21  3 15.0010000  0  6G19G 3G 8G13G23G27
  -1718257.18046  -1337689.54743  24022381.2084   24022380.0094
      1329.0014
   -613293.78948   -472648.48443  23449343.8024   23449344.6654
      -565.7814
  -4386409.17648  -3398672.52044  22624244.2864   22624243.5134
      1272.1954
   2084462.40649   1619297.41447  20637130.5444   20637127.9504
     -1414.1034
   8768527.89548   6798059.54745  22412879.2004   22412876.9194
     -3656.3744
   -860425.01649   -666113.89846  21556129.2394   21556127.5364
        10.8574
 04  9 13 21  3 30.0010000  0  6G19G 3G 8G13G23G27
  -1738126.29746  -1353171.91443  24018599.6924   24018599.6654
      1324.6084
   -604672.66848   -465930.70343  23450984.2944   23450984.6884
      -574.7414
  -4405448.69948  -3413508.48444  22620621.0364   22620620.7714
      1269.3024
   2105785.08649   1635912.48847  20641188.2394   20641185.3644
     -1421.5124
   8823450.74648   6840856.52745  22423330.9354   22423328.2824
     -3661.5234
   -860546.28949   -666208.39146  21556105.7474   21556104.6814
         8.0854
 04  9 13 21  3 45.0010000  0  6G19G 3G 8G13G23G27
  -1757925.50047  -1368599.78543  24014832.0604   24014831.3964
      1319.9474
   -595913.44148   -459105.31243  23452650.8104   23452651.2084
      -583.9484
  -4424441.30948  -3428307.89544  22617006.9894   22617006.2004
      1266.1744
   2127222.65249   1652617.07847  20645267.6304   20645265.2204
     -1429.1714
   8878454.41448   6883716.50044  22433797.6614   22433794.8604
     -3666.9114
   -860622.37149   -666267.67246  21556091.6144   21556090.0324
         5.0724
 04  9 13 21  4  0.0010000  0  6G19G 3G 8G13G23G27
  -1777657.14147  -1383975.03543  24011076.8254   24011076.7244
      1315.4434
   -587018.89147   -452174.46143  23454342.7164   23454343.7744
      -592.9704
  -4443389.70748  -3443072.84844  22613400.5834   22613400.4854
      1263.2274
   2148772.30149   1669409.01247  20649368.3564   20649365.9854
     -1436.6434
   8933535.86748   6926637.07445  22444279.7864   22444276.1144
     -3672.0974
   -860656.09449   -666293.93746  21556085.1144   21556083.8724
         2.2484
 04  9 13 21  4 15.0010000  0  6G19G 3G 8G13G23G27
  -1797319.85947  -1399296.55143  24007335.0214   24007335.1924
      1310.8484
   -577987.55948   -445137.05143  23456061.3644   23456062.5954
      -602.0894
  -4462292.62548  -3457802.35944  22609803.6144   22609803.4034
      1260.1954
   2170435.26249   1686289.23847  20653490.4114   20653488.2514
     -1444.1974
   8988696.11348   6969619.05944  22454776.1144   22454772.7124
     -3677.3504
   -860646.30149   -666286.29346  21556087.2394   21556085.4504
        -0.6534
 04  9 13 21  4 30.0010000  0  6G19G 3G 8G13G23G27
  -1816913.05946  -1414563.90243  24003606.7554   24003606.2284
      1306.2134
   -568819.34447   -437992.97343  23457806.3494   23457807.7784
      -611.2144
  -4481149.98448  -3472496.37944  22606215.2864   22606214.9034
      1257.1574
   2192211.66449   1703257.86747  20657634.3414   20657632.1534
     -1451.7604
   9043935.08248   7012662.38744  22465287.6854   22465284.8964
     -3682.5984
   -860593.03149   -666244.77346  21556097.0134   21556095.7244
        -3.5514
 04  9 13 21  4 45.0010000  0  6G19G 3G 8G13G23G27
  -1836437.10945  -1429777.36743  23999891.5754   23999890.8254
      1301.6034
   -559514.69147   -430742.59043  23459576.8724   23459578.7314
      -620.3104
  -4499962.44548  -3487155.41844  22602635.4894   22602634.8294
      1254.1644
   2214100.99249   1720314.48047  20661799.7714   20661797.6654
     -1459.2894
   9099252.11748   7055766.53144  22475814.1384   22475811.6694
     -3687.8024
   -860496.81649   -666169.79746  21556115.5214   21556113.6734
        -6.4144
 04  9 13 21  5  0.0010000  0  6G19G 3G 8G13G23G27
  -1855893.19946  -1444937.87943  23996188.4274   23996188.8174
      1297.0734
   -550075.09047   -423387.03143  23461373.4424   23461374.9314
      -629.3074
  -4518731.45748  -3501780.59044  22599064.0674   22599063.6264
      1251.2674
   2236101.79349   1737457.96147  20665986.6774   20665984.2864
     -1466.7204
   9154645.46548   7098930.12545  22486355.6064   22486353.1224
     -3692.8904
   -860359.35549   -666062.66846  21556141.8644   21556139.9784
        -9.1644
 04  9 13 21  5 15.0010000  0  6G19G 3G 8G13G23G27
  -1875280.05547  -1460044.43443  23992499.5134   23992499.2714
      1292.4574
   -540499.38347   -415925.41843  23463195.6924   23463196.9234
      -638.3804
  -4537455.99648  -3516371.11744  22595500.6924   22595500.2394
      1248.3034
   2258215.05149   1754689.07447  20670194.6304   20670192.0874
     -1474.2174
   9210115.97748   7142153.85945  22496911.4424   22496909.0364
     -3698.0344
   -860179.50849   -665922.52046  21556175.3334   21556173.9664
       -11.9904
 04  9 13 21  5 30.0010000  0  6G19G 3G 8G13G23G27
  -1894597.64546  -1475097.05143  23988823.5674   23988823.7594
      1287.8394
   -530787.89847   -408358.03543  23465043.3174   23465044.0754
      -647.4324
  -4556136.39148  -3530927.23444  22591945.8724   22591945.2744
      1245.3604
   2280440.40649   1772007.53547  20674423.6924   20674421.2904
     -1481.6904
   9265663.03148   7185437.25445  22507481.3174   22507478.7204
     -3703.1374
   -859957.79749   -665749.75046  21556218.0284   21556216.2674
       -14.7814
 04  9 13 21  5 45.0010000  0  6G19G 3G 8G13G23G27
  -1913843.25046  -1490093.53543  23985160.9814   23985161.2244
      1283.0404
   -520938.12547   -400682.85943  23466917.9814   23466918.0214
      -656.6524
  -4574770.39548  -3545447.20744  22588399.8334   22588399.0444
      1242.2674
   2302780.28949   1789415.23447  20678674.7474   20678672.5914
     -1489.3264
   9321289.02748   7228782.14844  22518066.4584   22518063.5364
     -3708.4004
   -859691.85549   -665542.51246  21556268.6854   21556266.8214
       -17.7294
 04  9 13 21  6  0.0010000  0  6G19G 3G 8G13G23G27
  -1933016.02746  -1505033.29343  23981512.1144   23981512.3564
      1278.1854
   -510949.44148   -392899.45343  23468818.8884   23468818.8924
      -665.9124
  -4593357.34048  -3559930.51244  22584862.7554   22584862.3564
      1239.1304
   2325235.44949   1806912.75847  20682948.0134   20682945.7044
     -1497.0114
   9376994.23048   7272188.77744  22528666.7474   22528663.5484
     -3713.6804
   -859381.25449   -665300.47746  21556327.8644   21556326.1654
       -20.7074
 04  9 13 21  6 15.0010000  0  6G19G 3G 8G13G23G27
  -1952115.68746  -1519916.05543  23977878.3884   23977878.2244
      1273.3114
   -500821.81247   -385007.79343  23470745.9584   23470746.7944
      -675.1754
  -4611897.34048  -3574377.23844  22581334.7714   22581334.5364
      1236.0004
   2347805.72749   1824499.98847  20687243.1774   20687240.7474
     -1504.6854
   9432778.32848   7315656.86744  22539282.4814   22539279.3684
     -3718.9404
   -859026.03549   -665023.66846  21556395.1774   21556393.5014
       -23.6814
 04  9 13 21  6 30.0010000  0  6G19G 3G 8G13G23G27
  -1971142.00447  -1534741.68744  23974257.4194   23974257.7784
      1268.4214
   -490555.24247   -377007.84843  23472699.7944   23472700.8064
      -684.4384
  -4630390.52348  -3588787.48044  22577815.4974   22577815.5324
      1232.8794
   2370491.12149   1842176.92647  20691559.9584   20691557.4274
     -1512.3604
   9488641.23048   7359186.36344  22549913.5914   22549910.1734
     -3724.1934
   -858626.33649   -664712.20746  21556471.1304   21556469.6384
       -26.6474
 04  9 13 21  6 45.0010000  0  6G19G 3G 8G13G23G27
  -1990094.96147  -1549510.14543  23970650.7554   23970650.8374
      1263.5304
   -480149.85547   -368899.74243  23474679.7244   23474680.1034
      -693.6924
  -4648837.22748  -3603161.52044  22574305.1534   22574304.9664
      1229.7804
   2393291.46549   1859943.42247  20695898.5914   20695896.4194
     -1520.0234
   9544582.40248   7402776.85945  22560558.0214   22560555.4424
     -3729.4114
   -858182.46949   -664366.32846  21556555.7474   21556554.4194
       -29.5914
 04  9 13 21  7  0.0010000  0  6G19G 3G 8G13G23G27
  -2008972.87147  -1564220.14143  23967058.6304   23967058.0714
      1258.5274
   -469604.34047   -360682.45343  23476686.9664   23476686.6494
      -703.0344
  -4667236.33248  -3617498.45344  22570803.9974   22570803.7004
      1226.6074
   2416208.00449   1877800.46547  20700259.4194   20700257.2314
     -1527.7694
   9600603.09048   7446429.30545  22571218.3884   22571215.7744
     -3734.7124
   -857693.32849   -663985.17646  21556649.0674   21556647.3844
       -32.6094
 04  9 13 21  7 15.0010000  0  6G19G 3G 8G13G23G27
  -2027774.63347  -1578870.79743  23963480.7554   23963480.0714
      1253.4514
   -458917.87147   -352355.32843  23478720.1614   23478720.8564
      -712.4314
  -4685586.75848  -3631797.45744  22567312.0834   22567311.7784
      1223.3624
   2439241.52049   1895748.66047  20704642.7004   20704640.5564
     -1535.5684
   9656703.86748   7490144.16445  22581893.6144   22581891.1064
     -3740.0524
   -857158.03549   -663568.05146  21556750.8494   21556749.2044
       -35.6864
 04  9 13 21  7 30.0010000  0  6G19G 3G 8G13G23G27
  -2046503.37147  -1593464.53943  23959917.0364   23959916.2314
      1248.5834
   -448093.58247   -343920.79743  23480779.7474   23480780.7594
      -721.6194
  -4703891.91048  -3646061.18744  22563828.5134   22563828.3294
      1220.3434
   2462388.70349   1913785.41847  20709047.0674   20709044.9424
     -1543.1464
   9712881.15648   7533918.63344  22592583.9744   22592580.9584
     -3745.1534
   -856580.06649   -663117.68446  21556860.9894   21556859.4194
       -38.5314
 04  9 13 21  7 45.0010000  0  6G19G 3G 8G13G23G27
  -2065157.89147  -1608000.46143  23956366.5524   23956366.3374
      1243.6354
   -437130.65647   -335378.24243  23482866.0284   23482867.3884
      -730.8624
  -4722150.91848  -3660288.95744  22560354.2004   22560353.5054
      1217.2674
   2485650.36349   1931911.39147  20713474.1534   20713471.5134
     -1550.7774
   9769135.66048   7577753.27344  22603289.1464   22603285.4424
     -3750.3004
   -855958.58649   -662633.39846  21556979.0364   21556977.5174
       -41.4324
 04  9 13 21  8  0.0010000  0  6G19G 3G 8G13G23G27
  -2083735.98047  -1622476.81243  23952831.5134   23952831.1034
      1238.5394
   -426027.13747   -326726.14543  23484979.0444   23484979.7594
      -740.2354
  -4740362.07448  -3674479.43444  22556888.2004   22556888.2284
      1214.0774
   2509028.59849   1950128.19147  20717922.7164   20717920.2944
     -1558.5494
   9825468.98848   7621649.34444  22614009.3254   22614005.5284
     -3755.5554
   -855291.68049   -662113.72746  21557105.7784   21557104.3804
       -44.4604
 04  9 13 21  8 15.0010000  0  6G19G 3G 8G13G23G27
  -2102238.18447  -1636894.03943  23949310.5674   23949309.7204
      1233.4804
   -414783.82447   -317965.08643  23487118.3334   23487119.2124
      -749.5544
  -4758526.16448  -3688633.25444  22553432.1464   22553431.7744
      1210.9394
   2532522.41849   1968435.06347  20722393.3254   20722391.1654
     -1566.2554
   9881880.09448   7665606.02744  22624743.7474   22624740.3924
     -3760.7404
   -854580.43049   -661559.48846  21557241.2944   21557240.0444
       -47.4174
 04  9 13 21  8 30.0010000  0  6G19G 3G 8G13G23G27
  -2120666.66046  -1651253.82043  23945803.1384   23945803.4934
      1228.5654
   -403403.06647   -309096.94543  23489284.0914   23489285.2164
      -758.7174
  -4776645.58248  -3702752.24644  22549983.5914   22549983.6144
      1207.9614
   2556129.42249   1986830.12947  20726885.7244   20726883.3924
     -1573.8004
   9938366.50448   7709621.37944  22635492.4584   22635490.2354
     -3765.7614
   -853827.23849   -660972.58246  21557384.7004   21557383.0714
       -50.2134
 04  9 13 21  8 45.0010000  0  6G19G 3G 8G13G23G27
  -2139018.75447  -1665554.09043  23942310.8104   23942311.2394
      1223.4734
   -391882.64847   -300119.98443  23491476.2714   23491476.8564
      -768.0284
  -4794718.22348  -3716834.80144  22546544.8564   22546544.5874
      1204.8434
   2579851.85549   2005315.13747  20731399.9584   20731397.6884
     -1581.4964
   9994930.27048   7753696.98044  22646256.2864   22646254.3764
     -3770.9184
   -853029.88749   -660351.25846  21557535.9664   21557534.8454
       -53.1574
 04  9 13 21  9  0.0010000  0  6G19G 3G 8G13G23G27
  -2157294.17647  -1679794.59443  23938833.7084   23938832.9784
      1218.3614
   -380222.46148   -291034.10543  23493695.3254   23493696.1464
      -777.3464
  -4812744.02048  -3730880.84844  22543114.3334   22543114.3024
      1201.7204
   2603689.82049   2023890.16847  20735935.8644   20735933.5634
     -1589.1984
  10051571.23048   7797832.74644  22657035.1924   22657032.3214
     -3776.0644
   -852188.57449   -659695.68046  21557696.2634   21557695.0914
       -56.0874
 04  9 13 21  9 15.0010000  0  6G19G 3G 8G13G23G27
  -2175491.64148  -1693974.36743  23935370.9034   23935370.2784
      1213.1644
   -368421.32447   -281838.39843  23495940.5444   23495941.2244
      -786.7424
  -4830721.85548  -3744889.53144  22539693.9354   22539693.0404
      1198.5224
   2627644.35549   2042556.03947  20740494.7554   20740492.3134
     -1596.9694
  10108290.17248   7842029.28944  22667828.8724   22667825.1184
     -3781.2634
   -851302.16849   -659004.96146  21557865.2554   21557863.3964
       -59.0944
 04  9 13 21  9 30.0010000  0  6G19G 3G 8G13G23G27
  -2193610.68748  -1708093.04343  23931922.8964   23931922.1144
      1207.9364
   -356479.29348   -272532.88343  23498213.4894   23498214.0954
      -796.1354
  -4848651.83648  -3758860.91844  22536281.6384   22536281.2244
      1195.3324
   2651715.78149   2061312.98447  20745075.4894   20745072.8644
     -1604.7624
  10165087.01248   7886286.53944  22678636.6774   22678632.8374
     -3786.4564
   -850370.62549   -658279.07446  21558042.0914   21558040.5094
       -62.1034
 04  9 13 21  9 45.0010000  0  6G19G 3G 8G13G23G27
  -2211651.17247  -1722150.50043  23928490.0524   23928488.5484
      1202.6994
   -344396.37948   -263117.62143  23500512.9504   23500513.4314
      -805.5284
  -4866534.10548  -3772795.12544  22532878.7944   22532878.3104
      1192.1514
   2675903.46949   2080160.52047  20749678.0214   20749675.3024
     -1612.5124
  10221961.19948   7930604.06344  22689459.3964   22689455.6224
     -3791.6124
   -849394.34849   -657518.33646  21558228.2314   21558226.3564
       -65.0854
 04  9 13 21 10  0.0010000  0  6G19G 3G 8G13G23G27
  -2229612.60548  -1736146.36743  23925071.8804   23925071.0404
      1197.4294
   -332172.18048   -253592.26243  23502839.0284   23502839.6184
      -814.9474
  -4884368.41848  -3786691.96944  22529484.8174   22529484.4154
      1188.9544
   2700207.87549   2099099.01647  20754302.9894   20754300.8564
     -1620.2944
  10278913.10548   7974982.13744  22700296.6064   22700293.8294
     -3796.7944
   -848373.02749   -656722.48446  21558422.5134   21558420.9664
       -68.0884
 04  9 13 21 10 15.0010000  0  6G19G 3G 8G13G23G27
  -2247495.03947  -1750080.66843  23921668.5214   23921667.6814
      1192.1624
   -319806.94947   -243957.00843  23505191.8174   23505192.7554
      -824.3494
  -4902154.95748  -3800551.59044  22526100.2944   22526099.6574
      1185.7694
   2724628.85249   2118128.34847  20758950.2554   20758947.5404
     -1628.0654
  10335942.12148   8019420.28944  22711149.0524   22711146.1574
     -3801.9344
   -847306.96949   -655891.77746  21558625.1694   21558623.6774
       -71.0714
 04  9 13 21 10 30.0010000  0  6G19G 3G 8G13G23G27
  -2265298.39147  -1763953.34843  23918280.2554   23918279.6344
      1186.8904
   -307301.05547   -234212.14143  23507571.4744   23507572.5674
      -833.7264
  -4919894.23448  -3814374.37544  22522724.6384   22522724.1304
      1182.6184
   2749165.81349   2137248.05547  20763619.4744   20763616.8684
     -1635.7974
  10393047.68448   8063918.07044  22722016.3494   22722013.5094
     -3807.0374
   -846196.72349   -655026.64546  21558836.6854   21558835.1654
       -74.0164
 04  9 13 21 10 45.0020000  0  6G19G 3G 8G13G23G27
  -2283024.13747  -1777765.54743  23914907.2294   23914907.2794
      1181.7164
   -294654.19947   -224357.43743  23509978.0964   23509978.6704
      -843.1244
  -4937587.86748  -3828161.59445  22519357.7134   22519356.8344
      1179.5764
   2773820.04749   2156459.13747  20768311.0104   20768308.6314
     -1643.6164
  10450232.89548   8108477.93444  22732898.1434   22732895.7364
     -3812.3474
   -845042.70349   -654127.39846  21559056.5254   21559054.4754
       -76.9354
 04  9 13 21 11  0.0020000  0  6G19G 3G 8G13G23G27
  -2300668.72347  -1791514.51643  23911550.0964   23911548.7954
      1176.3064
   -281867.10247   -214393.44943  23512411.7134   23512411.7174
      -852.4734
  -4955232.89548  -3841910.94145  22515999.4244   22515999.4434
      1176.3354
   2798589.10249   2175759.69547  20773024.2444   20773021.7214
     -1651.2704
  10507490.75048   8153094.42244  22743793.7364   22743790.8544
     -3817.1904
   -843844.35549   -653193.62146  21559284.3074   21559282.6624
       -79.8904
 04  9 13 21 11 15.0020000  0  6G19G 3G 8G13G23G27
  -2318233.66847  -1805201.42243  23908207.3854   23908206.8934
      1170.9964
   -268939.58247   -204320.05543  23514871.3224   23514871.8424
      -861.8354
  -4972830.98848  -3855623.71144  22512651.0644   22512650.3344
      1173.2064
   2823474.02749   2195150.54347  20777759.7994   20777757.3464
     -1658.9954
  10564824.21548   8197769.81344  22754703.9164   22754700.2484
     -3822.2314
   -842602.26249   -652225.73846  21559520.4084   21559518.9244
       -82.8064
 04  9 13 21 11 30.0020000  0  6G19G 3G 8G13G23G27
  -2335720.44147  -1818827.42643  23904879.6194   23904878.6544
      1165.7854
   -255873.37947   -194138.57043  23517357.9794   23517358.1354
      -871.0804
  -4990384.25448  -3869301.55945  22509310.9004   22509310.3384
      1170.2184
   2848473.03549   2214630.28947  20782516.9324   20782514.4284
     -1666.6014
  10622231.40248   8242502.65244  22765628.2364   22765624.6004
     -3827.1464
   -841318.14849   -651225.12946  21559764.8464   21559763.3424
       -85.6084
 04  9 13 21 11 45.0020000  0  6G19G 3G 8G13G23G27
  -2353127.87147  -1832391.59043  23901567.2054   23901565.7294
      1160.4954
   -242667.49647   -183848.26243  23519871.3694   23519871.5254
      -880.3924
  -5007891.57448  -3882943.60245  22505979.1894   22505978.4084
      1167.1554
   2873586.91849   2234199.53947  20787295.9554   20787293.5334
     -1674.2594
  10679713.00048   8287293.45344  22776566.7134   22776564.4164
     -3832.1074
   -839991.32449   -650191.22746  21560017.5104   21560016.1154
       -88.4554
 04  9 13 21 12  0.0020000  0  6G19G 3G 8G13G23G27
  -2370453.78548  -1845892.26643  23898270.4324   23898268.9084
      1155.0614
   -229320.14847   -173447.71143  23522410.7834   23522411.6584
      -889.8234
  -5025351.07448  -3896548.38745  22502657.1434   22502655.9634
      1163.9674
   2898817.54749   2253859.77047  20792097.1824   20792094.8034
     -1682.0424
  10737270.64848   8332143.52344  22787520.0964   22787517.4084
     -3837.1774
   -838620.00849   -649122.66046  21560278.4004   21560276.7174
       -91.4214
 04  9 13 21 12 15.0020000  0  6G19G 3G 8G13G23G27
  -2387698.19548  -1859329.39843  23894988.9164   23894986.4394
      1149.6274
   -215831.38747   -162936.98443  23524977.6584   23524978.3344
      -899.2514
  -5042762.85548  -3910115.97344  22499343.4634   22499342.7564
      1160.7854
   2924164.77749   2273610.85947  20796920.5414   20796918.2794
     -1689.8154
  10794903.85948   8377052.47344  22798487.5724   22798484.8344
     -3842.2144
   -837204.44149   -648019.61346  21560547.5414   21560545.8464
       -94.3714
 04  9 13 21 12 30.0020000  0  6G19G 3G 8G13G23G27
  -2404860.75048  -1872702.78143  23891722.8074   23891721.2364
      1144.1704
   -202201.21547   -152316.05143  23527571.1044   23527571.4944
      -908.6784
  -5060127.38748  -3923646.75845  22496039.1824   22496038.0764
      1157.6354
   2949628.46149   2293452.68847  20801766.1894   20801763.9394
     -1697.5794
  10852612.52748   8422020.23444  22809468.8694   22809466.1624
     -3847.2454
   -835744.66449   -646882.10946  21560825.5254   21560823.7364
       -97.3184
 04  9 13 21 12 45.0020000  0  6G19G 3G 8G13G23G27
  -2421941.52347  -1886012.42243  23888472.1744   23888470.5574
      1138.7184
   -188429.98448   -141585.19143  23530192.0724   23530192.2914
      -918.0824
  -5077444.78948  -3937140.81245  22492743.7684   22492742.9864
      1154.4934
   2975208.40649   2313385.10947  20806633.7604   20806631.4124
     -1705.3304
  10910396.06348   8467046.32044  22820464.2604   22820460.9794
     -3852.2364
   -834241.10949   -645710.50046  21561111.4554   21561109.9984
      -100.2374
 04  9 13 21 13  0.0020000  0  6G19G 3G 8G13G23G27
  -2438939.24247  -1899257.32843  23885237.5104   23885236.6154
      1133.1814
   -174516.73848   -130743.70743  23532839.0884   23532840.3184
      -927.5504
  -5094714.03148  -3950597.34045  22489457.3074   22489456.9044
      1151.2834
   3000905.46149   2333408.78547  20811523.8854   20811521.5184
     -1713.1374
  10968255.20348   8512131.33244  22831473.9714   22831470.7914
     -3857.2764
   -832692.84849   -644504.05546  21561406.3224   21561404.7134
      -103.2174
 04  9 13 21 13 15.0020000  0  6G19G 3G 8G13G23G27
  -2455852.87147  -1912436.71143  23882018.9714   23882018.0184
      1127.5754
   -160460.64547   -119790.89543  23535514.1194   23535514.7714
      -937.0734
  -5111934.41048  -3964015.79345  22486180.1894   22486179.8304
      1148.0254
   3026720.51649   2353524.41047  20816436.3074   20816433.9474
     -1721.0044
  11026190.68448   8557275.80944  22842499.5574   22842496.6504
     -3862.3654
   -831099.21949   -643262.26246  21561709.4634   21561707.9514
      -106.2424
 04  9 13 21 13 30.0020000  0  6G19G 3G 8G13G23G27
  -2472681.79347  -1925550.07843  23878816.0964   23878815.5574
      1121.9284
   -146261.36348   -108726.51243  23538216.3694   23538216.8854
      -946.6194
  -5129105.73048  -3977396.02045  22482912.4324   22482912.2564
      1144.7554
   3052653.92249   2373732.26647  20821370.9084   20821368.9944
     -1728.8944
  11084202.52348   8602479.80545  22853539.1584   22853536.7364
     -3867.4564
   -829459.91449   -641984.86746  21562021.4864   21562019.7174
      -109.2874
 04  9 13 21 13 45.0020000  0  6G19G 3G 8G13G23G27
  -2489424.87947  -1938596.59043  23875629.9164   23875628.2954
      1116.2064
   -131918.13748    -97549.95743  23540945.7834   23540946.8074
      -956.2154
  -5146227.22748  -3990737.42244  22479654.8304   22479654.2054
      1141.4334
   3078706.33249   2394032.84047  20826328.7754   20826326.4044
     -1736.8274
  11142291.27348   8647743.73044  22864593.5024   22864590.8304
     -3872.5834
   -827774.27349   -640671.37146  21562342.0804   21562340.4324
      -112.3764
 04  9 13 21 14  0.0020000  0  7G19G 3G 8G13G10G23G27
  -2506083.83647  -1951577.54743  23872459.9864   23872458.3074
      1110.5974
   -117432.86348    -86262.72743  23543702.2134   23543703.5494
      -965.6854
  -5163300.89848  -4004041.55544  22476405.1824   22476404.7604
      1138.2454
   3104875.66049   2414424.52347  20831308.6744   20831306.2174
     -1744.6224
    -51075.21157    -34489.22352  24622658.0724   24622658.2564

  11200454.66848   8693065.81644  22875660.4714   22875658.7094
     -3877.5604
   -826044.23849   -639323.28546  21562671.4004   21562669.8264
      -115.3364
 04  9 13 21 14 15.0020000  0  7G19G 3G 8G13G10G23G27
  -2522658.53947  -1964492.83643  23869306.1194   23869304.7794
      1104.9804
   -102805.71948    -74864.94943  23546485.6664   23546486.2174
      -975.1434
  -5180326.96148  -4017308.60545  22473165.6114   22473164.5764
      1135.0714
   3131161.85249   2434907.26647  20836310.5024   20836308.3964
     -1752.4134
    -71062.07047    -50063.37942  24618854.5884   24618854.9364
      1332.4574
  11258692.40648   8738445.80944  22886742.6664   22886740.3814
     -3882.5164
   -824270.16849   -637940.88746  21563008.8384   21563006.9284
      -118.2714
 04  9 13 21 14 30.0020000  0  7G19G 3G 8G13G10G23G27
  -2539148.71148  -1977342.26243  23866168.1504   23866166.8224
      1099.3454
    -88036.64848    -63356.56243  23549296.0254   23549296.9714
      -984.6054
  -5197305.44948  -4030538.57445  22469934.6194   22469933.7714
      1131.8994
   3157564.95749   2455481.11346  20841334.7834   20841332.7174
     -1760.2074
    -90938.08246    -65551.15242  24615071.8384   24615072.6934
      1325.0674
  11317004.30148   8783883.59844  22897839.7054   22897836.7054
     -3887.4604
   -822452.03949   -636524.15246  21563354.8224   21563353.2644
      -121.2094
 04  9 13 21 14 45.0020000  0  7G19G 3G 8G13G10G23G27
  -2555554.62947  -1990126.02743  23863045.4554   23863045.0254
      1093.7284
    -73126.26248    -51738.06243  23552132.9474   23552134.0064
      -994.0264
  -5214237.09048  -4043732.04345  22466712.5724   22466712.0884
      1128.7764
   3184084.21149   2476145.46547  20846381.5024   20846378.8574
     -1767.9504
   -110703.54347    -80952.79742  24611311.3144   24611311.2644
      1317.6974
  11375389.62948   8829378.62944  22908950.5254   22908946.8264
     -3892.3554
   -820590.52349   -635073.61746  21563708.8614   21563707.5534
      -124.1014
 04  9 13 21 15  0.0020000  0  7G19G 3G 8G13G10G23G27
  -2571878.21148  -2002845.64543  23859939.8774   23859938.5724
      1088.2394
    -58076.62148    -40011.07043  23554997.3614   23554997.6864
     -1003.3094
  -5231123.59448  -4056890.33645  22463499.3774   22463498.9084
      1125.7674
   3210717.59449   2496898.74647  20851449.7134   20851447.3264
     -1775.5594
   -130360.27047    -96269.71142  24607570.2134   24607570.7294
      1310.4484
  11433845.91848   8874928.95744  22920074.4474   22920070.7484
     -3897.0864
   -818687.78149   -633590.95346  21564071.1114   21564069.4244
      -126.8494
 04  9 13 21 15 15.0020000  0  7G19G 3G 8G13G10G23G27
  -2588118.66047  -2015500.49643  23856849.2134   23856847.7214
      1082.6974
    -42887.26248    -28175.18743  23557887.5964   23557888.3074
     -1012.6244
  -5247964.86748  -4070013.39145  22460294.7444   22460294.1274
      1122.7524
   3237465.60249   2517741.34447  20856539.4864   20856537.1824
     -1783.2014
   -149907.64547   -111501.39842  24603850.9004   24603850.9634
      1303.1584
  11492373.48448   8920534.81644  22931211.1584   22931208.5024
     -3901.8384
   -816743.41849   -632075.85546  21564441.1434   21564439.2684
      -129.6244
 04  9 13 21 15 30.0020000  0  7G19G 3G 8G13G10G23G27
  -2604273.69146  -2028088.77343  23853775.1744   23853774.1974
      1077.0024
    -27556.15648    -16228.87143  23560805.1974   23560806.0764
     -1022.0744
  -5264758.79748  -4083099.54745  22457098.2914   22457097.8264
      1119.5954
   3264330.16049   2538674.76647  20861651.9474   20861649.5064
     -1790.9714
   -169343.30947   -126646.06642  24600152.0024   24600152.7644
      1295.7114
  11550974.16848   8966197.64144  22942362.2364   22942360.4004
     -3906.7124
   -814755.50449   -630526.83246  21564819.5104   21564817.7054
      -132.5284
 04  9 13 21 15 45.0020000  0  7G19G 3G 8G13G10G23G27
  -2620345.36747  -2040612.08643  23850716.0574   23850715.6504
      1071.4454
    -12085.85248     -4174.07443  23563748.6744   23563748.9944
     -1031.3544
  -5281507.82448  -4096150.71945  22453911.6274   22453910.8144
      1116.6024
   3291308.80149   2559697.07847  20866785.5884   20866783.5924
     -1798.5764
   -188669.68047   -141705.55942  24596474.0964   24596475.0104
      1288.4254
  11609645.35248   9011915.37544  22953527.2444   22953525.3304
     -3911.4124
   -812726.41449   -628945.70746  21565205.4794   21565203.7404
      -135.2734
 04  9 13 21 16  0.0020000  0  7G19G 3G 8G13G10G23G27
  -2636329.97747  -2053067.54343  23847674.2294   23847674.2994
      1065.6414
      3527.20748      7991.94143  23566720.1194   23566720.3304
     -1040.8714
  -5298208.80148  -4109164.44545  22450733.3144   22450732.5724
      1113.3984
   3318404.89149   2580810.91447  20871942.1274   20871939.5574
     -1806.4064
   -207883.13347   -156677.06242  24592817.8074   24592818.4004
      1280.8974
  11668390.20748   9057690.53144  22964706.6664   22964703.9474
     -3916.3244
   -810653.00049   -627330.05946  21565600.4474   21565598.6314
      -138.2284
 04  9 13 21 16 15.0020000  0  7G19G 3G 8G13G10G23G27
  -2652229.12947  -2065456.42643  23844649.0644   23844648.5144
      1059.9434
     19281.10248     20267.72343  23569718.3774   23569718.3854
     -1050.2604
  -5314863.42648  -4122142.05545  22447564.0574   22447562.9394
      1110.3084
   3345616.56349   2602014.81346  20877120.1894   20877117.9204
     -1814.1114
   -226985.27747   -171561.82842  24589183.5964   24589184.1784
      1273.4764
  11727206.57848   9103521.42644  22975899.2134   22975895.9714
     -3921.0914
   -808537.12149   -625681.32046  21566002.7914   21566000.8074
      -141.0594
 04  9 13 21 16 30.0020000  0  7G19G 3G 8G13G10G23G27
  -2668041.57846  -2077777.75843  23841640.4794   23841639.8384
      1054.1634
     35176.85948     32654.04343  23572742.7994   23572743.0184
     -1059.7174
  -5331470.61348  -4135082.69545  22444403.8074   22444402.7644
      1107.1464
   3372944.91849   2623309.62947  20882320.5024   20882318.1824
     -1821.8904
   -245974.86747   -186358.89142  24585569.3544   24585570.3424
      1265.9734
  11786095.32448   9149408.73844  22987104.9394   22987101.5214
     -3925.9164
   -806377.75049   -623998.68446  21566413.6894   21566411.9864
      -143.9584
 04  9 13 21 16 45.0020000  0  7G19G 3G 8G13G10G23G27
  -2683766.71546  -2090031.04743  23838647.3854   23838647.2954
      1048.3424
     51214.80948     45151.15643  23575794.3304   23575795.4944
     -1069.1974
  -5348030.13748  -4147986.20345  22441252.4554   22441251.5334
      1103.9684
   3400390.12949   2644695.50447  20887543.3694   20887540.8774
     -1829.6814
   -264851.37547   -201067.82442  24581977.5494   24581977.8184
      1258.4344
  11845056.60948   9195352.56644  22998325.1664   22998321.8424
     -3930.7524
   -804174.64549   -622281.97746  21566832.5334   21566831.1864
      -146.8744
 04  9 13 21 17  0.0020000  0  7G19G 3G 8G13G10G23G27
  -2699402.96147  -2102215.04743  23835671.8224   23835671.8814
      1042.4164
     67396.37147     57760.16843  23578874.0574   23578874.2364
     -1078.7714
  -5364540.79748  -4160851.62545  22438110.6354   22438109.7324
      1100.7114
   3427953.60949   2666173.53547  20892788.4244   20892786.0924
     -1837.5654
   -283613.31246   -215687.50842  24578406.4084   24578407.5574
      1250.7964
  11904091.53148   9241353.75844  23009558.1274   23009555.8304
     -3935.6614
   -801926.57049   -620530.22746  21567260.8464   21567259.2404
      -149.8724
 04  9 13 21 17 15.0020000  0  7G19G 3G 8G13G10G23G27
  -2714950.00047  -2114329.56243  23832713.6354   23832713.1004
      1036.4694
     83721.33647     70480.92643  23581980.1584   23581981.1004
     -1088.3314
  -5381002.78148  -4173679.12545  22434977.9084   22434976.9674
      1097.4664
   3455635.19149   2687743.59447  20898055.8774   20898053.8304
     -1845.4394
   -302260.41846   -230217.70742  24574858.2684   24574859.3074
      1243.1404
  11963199.87947   9287412.14844  23020806.4634   23020803.6894
     -3940.5574
   -799633.55949   -618743.46146  21567696.8774   21567695.3144
      -152.8674
 04  9 13 21 17 30.0020000  0  7G19G 3G 8G13G10G23G27
  -2730410.35247  -2126376.53144  23829771.5024   23829770.7834
      1030.6904
    100186.89148     83311.23443  23585113.8224   23585114.7714
     -1097.7044
  -5397418.73448  -4186470.75845  22431854.1274   22431853.2484
      1094.3974
   3483431.98449   2709403.43847  20903345.5104   20903343.4124
     -1853.1204
   -320795.32047   -244660.44142  24571331.5494   24571332.0574
      1235.6604
  12022378.38748   9333525.23044  23032068.2364   23032065.7214
     -3945.2344
   -797298.67249   -616924.06246  21568141.4554   21568139.6004
      -155.6594
 04  9 13 21 17 45.0020000  0  7G19G 3G 8G13G10G23G27
  -2745782.02347  -2138354.39143  23826846.4554   23826845.8694
      1024.7784
    116794.83647     96252.49643  23588274.1194   23588274.4124
     -1107.1964
  -5413786.85948  -4199225.10945  22428739.4004   22428738.9824
      1091.2084
   3511345.90249   2731154.53547  20908657.1354   20908654.9514
     -1860.9284
   -339216.05546   -259014.23842  24567825.7604   24567826.4434
      1228.0494
  12081628.84048   9379694.37144  23043344.0104   23043341.0374
     -3950.0304
   -794920.04749   -615070.58246  21568593.8304   21568592.3264
      -158.5754
 04  9 13 21 18  0.0020000  0  7G19G 3G 8G13G10G23G27
  -2761065.01247  -2150263.15243  23823938.1274   23823936.7014
      1018.8664
    133544.84447    109304.45743  23591461.6044   23591462.3654
     -1116.6674
  -5430107.59048  -4211942.54745  22425634.2444   22425633.3074
      1088.0494
   3539376.59449   2752996.62947  20913991.5494   20913989.1394
     -1868.7134
   -357522.77046   -273279.18442  24564342.4164   24564342.9044
      1220.4484
  12140950.69948   9425919.15644  23054632.0724   23054629.2524
     -3954.7914
   -792498.06249   -613183.32446  21569054.8614   21569053.3774
      -161.4664
 04  9 13 21 18 15.0020000  0  7G19G 3G 8G13G10G23G27
  -2776258.25047  -2162101.97343  23821046.9164   23821045.6114
      1012.8834
    150437.71147    122467.73443  23594676.4084   23594677.2174
     -1126.1914
  -5446380.11348  -4224622.40645  22422536.5804   22422536.1314
      1084.8354
   3567524.82849   2774930.30547  20919347.8614   20919345.5184
     -1876.5494
   -375714.38346   -287454.44942  24560879.9864   24560881.0064
      1212.7744
  12200344.47748   9472199.98444  23065933.8934   23065931.2174
     -3959.5854
   -790032.00449   -611261.70746  21569524.2214   21569522.0764
      -164.4044
 04  9 13 21 18 30.0020000  0  7G19G 3G 8G13G10G23G27
  -2791362.47347  -2173871.43043  23818172.1354   23818171.1584
      1006.9484
    167472.40248    135741.52043  23597918.0724   23597919.1894
     -1135.6464
  -5462605.43448  -4237265.48045  22419449.4554   22419448.4754
      1081.6884
   3595789.59449   2796954.80147  20924726.2054   20924723.9714
     -1884.3184
   -393791.78946   -301540.71942  24557440.6504   24557441.2444
      1205.1604
  12259809.00048   9518535.94544  23077249.7134   23077246.4434
     -3964.3024
   -787522.82449   -609306.50046  21570001.4084   21569999.8854
      -167.2794
 04  9 13 21 18 45.0020000  0  7G19G 3G 8G13G10G23G27
  -2806376.95347  -2185570.95743  23815315.5254   23815314.1314
      1000.9654
    184649.33647    149126.14843  23601186.1354   23601187.2684
     -1145.1294
  -5478783.18048  -4249871.49645  22416371.0334   22416370.3964
      1078.5164
   3624171.19949   2819070.32847  20930127.2994   20930124.9434
     -1892.1074
   -411754.22746   -315537.40642  24554022.6894   24554023.0804
      1197.4964
  12319344.42647   9564927.14844  23088578.9714   23088576.0844
     -3969.0284
   -784970.28549   -607317.50846  21570487.3384   21570485.6044
      -170.1694
 04  9 13 21 19  0.0020000  0  7G19G 3G 8G13G10G23G27
  -2821303.50447  -2197201.97343  23812474.5184   23812473.2484
       995.1034
    201966.57847    162620.10943  23604481.0494   23604482.5254
     -1154.4834
  -5494915.34048  -4262441.98045  22413301.1584   22413300.1004
      1075.4774
   3652667.50449   2841275.23447  20935550.1974   20935547.7834
     -1899.7544
   -429603.64847   -329446.00842  24550625.9394   24550626.4204
      1189.9614
  12378948.60248   9611371.90644  23099921.5414   23099919.2954
     -3973.6124
   -782376.48449   -605296.36346  21570980.7444   21570979.3424
      -172.9204
 04  9 13 21 19 15.0020000  0  7G19G 3G 8G13G10G23G27
  -2836140.50047  -2208763.19144  23809650.6744   23809650.0494
       989.1334
    219425.30547    176224.32843  23607804.0574   23607804.9554
     -1163.9154
  -5511000.83648  -4274976.11345  22410240.1974   22410239.1504
      1072.3664
   3681279.93049   2863570.62947  20940994.7214   20940992.6894
     -1907.4954
   -447338.49646   -343265.35942  24547251.0494   24547251.6584
      1182.3234
  12438622.59448   9657871.07844  23111277.5184   23111275.1744
     -3978.2664
   -779740.18049   -603242.09046  21571482.4004   21571480.9674
      -175.7544
 04  9 13 21 19 30.0020000  0  7G19G 3G 8G13G10G23G27
  -2850887.57446  -2220254.35943  23806844.8144   23806843.6194
       983.1384
    237025.63347    189938.87543  23611153.2214   23611153.9594
     -1173.3554
  -5527039.56648  -4287473.80145  22407188.1044   22407187.1004
      1069.2494
   3710008.50849   2885956.52747  20946461.4394   20946459.2954
     -1915.2394
   -464958.39146   -356995.10942  24543897.8304   24543898.4554
      1174.6604
  12498366.19948   9704424.49244  23122645.9634   23122643.8574
     -3982.9074
   -777061.22749   -601154.59846  21571992.1504   21571990.8894
      -178.5974
 04  9 13 21 19 45.0020000  0  7G19G 3G 8G13G10G23G27
  -2865545.59447  -2231676.13343  23804055.4714   23804054.2564
       977.2014
    254766.33247    203762.80143  23614528.9004   23614529.8074
     -1182.7134
  -5543032.53148  -4299935.82045  22404144.7604   22404143.8814
      1066.1984
   3738851.94549   2908431.92647  20951950.5724   20951947.8964
     -1922.8964
   -482464.46147   -370636.18442  24540566.6504   24540567.1004
      1167.0714
  12558178.03148   9751031.06644  23134027.5024   23134025.7174
     -3987.4554
   -774340.93049   -599034.87946  21572510.0574   21572508.4044
      -181.3534
 04  9 13 21 20  0.0020000  0  8G19G 3G 8G13G10G28G23G27
  -2880113.78547  -2243027.88744  23801283.3464   23801282.5644
       971.2134
    272647.97747    217696.54743  23617931.7444   23617932.4394
     -1192.1104
  -5558979.42648  -4312361.95345  22401110.2294   22401109.4004
      1063.1264
   3767810.82849   2930997.28547  20957460.9244   20957458.5764
     -1930.5924
   -499856.03546   -384188.00842  24537257.1274   24537257.7954
      1159.4384
    -91905.28957    -62613.54352  24800989.5184   24800992.0294

  12618058.47747   9797691.10944  23145422.4634   23145419.5844
     -3992.0304
   -771578.91849   -596882.65646  21573035.4394   21573033.8734
      -184.1344
 04  9 13 21 20 15.0020000  0  8G19G 3G 8G13G10G28G23G27
  -2894592.30947  -2254309.78144  23798527.4164   23798526.8964
       965.2354
    290670.13347    231739.77343  23621361.3074   23621361.8304
     -1201.4774
  -5574880.73848  -4324752.55545  22398084.0724   22398083.1864
      1060.0884
   3796884.79349   2953652.31647  20962993.6664   20962991.3114
     -1938.2644
   -517133.19146   -397650.70342  24533969.2754   24533970.2754
      1151.8104
   -127931.98047    -90686.21142  24794134.0884   24794136.1974
      2401.7794
  12678006.93847   9844404.15244  23156830.2604   23156826.7834
     -3996.5644
   -768775.48049   -594698.15246  21573569.1974   21573567.5064
      -186.8964
 04  9 13 21 20 30.0020000  0  8G19G 3G 8G13G10G28G23G27
  -2908980.89547  -2265521.60944  23795790.5884   23795788.2524
       959.2394
    308832.65247    245892.38743  23624818.0024   23624817.8854
     -1210.8354
  -5590736.60548  -4337107.75045  22395066.9794   22395066.4004
      1057.0584
   3826073.50449   2976396.75447  20968548.2214   20968545.6004
     -1945.9144
   -534295.79747   -411024.12942  24530703.7214   24530704.5414
      1144.1744
   -163925.01647   -118732.65642  24787284.0884   24787286.5024
      2399.5364
  12738023.08648   9891169.95344  23168251.6274   23168248.0294
     -4001.0774
   -765930.72749   -592481.45746  21574110.5104   21574109.0844
      -189.6504
 04  9 13 21 20 45.0020000  0  8G19G 3G 8G13G10G28G23G27
  -2923277.55947  -2276661.79744  23793069.5964   23793067.8384
       953.1114
    327137.27347    260155.73043  23628300.6194   23628301.4904
     -1220.3084
  -5606544.92248  -4349425.89845  22392058.7604   22392057.6504
      1053.8884
   3855378.89849   2999232.12147  20974124.7604   20974122.4364
     -1953.6934
   -551341.75447   -424306.66442  24527459.0574   24527460.1624
      1136.3974
   -199882.38347   -146751.27342  24780442.4394   24780445.1504
      2397.1584
  12798108.36747   9937989.62144  23179685.5334   23179682.2684
     -4005.6854
   -763043.07449   -590231.34046  21574659.9474   21574657.9794
      -192.5104
 04  9 13 21 21  0.0020000  0  8G19G 3G 8G13G10G28G23G27
  -2937482.14548  -2287730.25844  23790366.3614   23790364.7684
       946.9724
    345583.98447    274529.79743  23631811.1114   23631812.3694
     -1229.7814
  -5622305.85548  -4361707.11745  22389059.5104   22389058.6004
      1050.7294
   3884800.73849   3022158.21947  20979723.4004   20979721.1044
     -1961.4564
   -568271.02746   -437498.29342  24524237.6824   24524238.6664
      1128.6184
   -235803.95347   -174742.01642  24773606.4164   24773609.1194
      2394.7714
  12858262.59048   9984863.00044  23191132.1354   23191130.0454
     -4010.2824
   -760112.66449   -587947.89846  21575217.7604   21575215.6464
      -195.3614
 04  9 13 21 21 15.0020000  0  8G19G 3G 8G13G10G28G23G27
  -2951594.18748  -2298726.57043  23787680.8384   23787679.7014
       940.8034
    364172.91847    289014.66843  23635348.4324   23635348.8144
     -1239.2624
  -5638019.41848  -4373951.42645  22386069.0184   22386068.2994
      1047.5714
   3914339.23449   3045175.21547  20985344.4634   20985341.9634
     -1969.2334
   -585083.29747   -450598.72742  24521038.7524   24521039.4794
      1120.8184
   -271689.57847   -202704.73042  24766777.9004   24766779.7054
      2392.3754
  12918485.74247  10031790.07444  23202592.0184   23202590.0614
     -4014.8774
   -757139.28949   -585630.97746  21575783.4714   21575781.5644
      -198.2254
 04  9 13 21 21 30.0020000  0  8G19G 3G 8G13G10G28G23G27
  -2965614.05948  -2309651.09443  23785012.9554   23785011.7294
       934.6584
    382903.20347    303609.69543  23638912.8774   23638913.5214
     -1248.6864
  -5653686.46148  -4386159.48445  22383087.9394   22383087.0534
      1044.4704
   3943993.45749   3068282.39847  20990987.6504   20990985.4794
     -1976.9484
   -601779.21147   -463608.50842  24517861.2834   24517862.0294
      1113.0614
   -307539.86347   -230639.95342  24759955.1354   24759956.3074
      2390.0194
  12978776.76247  10078770.02044  23214065.0334   23214063.1434
     -4019.4014
   -754123.81249   -583281.25446  21576357.3464   21576355.5294
      -201.0324
 04  9 13 21 21 45.0020000  0  8G19G 3G 8G13G10G28G23G27
  -2979541.89547  -2320503.88743  23782362.5024   23782361.0254
       928.5224
    401774.57448    318314.66043  23642504.1044   23642504.8464
     -1258.0914
  -5669307.09848  -4398331.39145  22380115.2054   22380114.4984
      1041.3764
   3973763.20749   3091479.59447  20996652.6274   20996650.3144
     -1984.6504
   -618358.87547   -476527.70742  24514706.1584   24514707.3934
      1105.3114
   -343354.94547   -258547.70342  24753139.8224   24753141.3734
      2387.6724
  13039135.12147  10125802.46944  23225551.4324   23225548.5764
     -4023.8914
   -751066.61749   -580899.01246  21576939.0804   21576937.4004
      -203.8134
 04  9 13 21 22  0.0020000  0  8G19G 3G 8G13G10G28G23G27
  -2993375.74248  -2331283.43044  23779729.8074   23779728.9714
       922.2574
    420788.53147    333130.74643  23646122.4244   23646123.0334
     -1267.5974
  -5684880.03148  -4410466.12145  22377151.9634   22377150.9434
      1038.1964
   4003649.96948   3114767.97746  21002339.7604   21002337.4794
     -1992.4514
   -634820.48446   -489354.90242  24511574.0884   24511574.9754
      1097.4414
   -379132.98447   -286426.59842  24746331.2134   24746332.6584
      2385.2034
  13099562.16047  10172888.43044  23237050.5184   23237047.1624
     -4028.4694
   -747966.19149   -578483.09046  21577528.9714   21577527.1004
      -206.6954
 04  9 13 21 22 15.0020000  0  8G19G 3G 8G13G10G28G23G27
  -3007115.12948  -2341989.39544  23777115.4554   23777114.6004
       915.9594
    439945.29748    348058.10243  23649767.5494   23649768.7684
     -1277.1184
  -5700404.92248  -4422563.41845  22374197.7134   22374196.2954
      1034.9934
   4033653.97749   3138147.71146  21008049.6114   21008047.1504
     -2000.2674
   -651163.59045   -502089.76242  24508463.7604   24508464.5574
      1089.5404
   -414873.52047   -314276.25842  24739530.1114   24739531.3614
      2382.7024
  13160058.00848  10220028.02044  23248562.0964   23248559.4004
     -4033.0574
   -744822.23849   -576033.25046  21578127.1744   21578125.3964
      -209.5974
 04  9 13 21 22 30.0020000  0  8G19G 3G 8G13G10G28G23G27
  -3020760.04747  -2352621.72344  23774518.9084   23774517.7404
       909.6614
    459244.60548    363096.50443  23653440.0494   23653441.5334
     -1286.6214
  -5715881.99248  -4434623.44145  22371252.4324   22371251.5614
      1031.8054
   4063775.00049   3161618.62946  21013781.3074   21013779.0374
     -2008.0684
   -667388.11346   -514732.23842  24505376.5884   24505377.2174
      1081.6354
   -450576.75847   -342096.87142  24732736.5184   24732737.4084
      2380.2164
  13220622.19147  10267220.84844  23260087.0964   23260084.2834
     -4037.6124
   -741635.12149   -573549.77346  21578734.0334   21578732.1154
      -212.4744
 04  9 13 21 22 45.0020000  0  8G19G 3G 8G13G10G28G23G27
  -3034310.81247  -2363180.70744  23771939.3074   23771938.6824
       903.3844
    478685.91848    378245.58243  23657139.4324   23657140.6704
     -1296.0874
  -5731311.88348  -4446646.71945  22368315.8464   22368315.1744
      1028.6594
   4094012.41448   3185180.24646  21019535.4324   21019532.9794
     -2015.8284
   -683494.37147   -527282.55542  24502311.5334   24502311.7324
      1073.7514
   -486243.13347   -369888.73042  24725948.7294   24725950.4594
      2377.7584
  13281253.91847  10314466.29744  23271624.0104   23271622.9324
     -4042.1154
   -738405.31649   -571033.03146  21579348.5184   21579346.5494
      -215.3204
 04  9 13 21 23  0.0020000  0  8G19G 3G 8G13G10G28G23G27
  -3047768.46547  -2373667.10943  23769378.8304   23769377.8224
       897.1774
    498267.77048    393504.15643  23660866.3614   23660866.2564
     -1305.4574
  -5746695.77348  -4458634.13745  22365388.6194   22365387.7054
      1025.5934
   4124364.94149   3208831.55546  21025311.2054   21025308.9944
     -2023.5024
   -699483.64847   -539741.70342  24499269.6114   24499269.2254
      1065.9524
   -521873.79347   -397652.79342  24719168.3224   24719170.3264
      2375.3774
  13341951.64147  10361763.15644  23283174.9474   23283173.9124
     -4046.5154
   -735134.36749   -568484.23446  21579970.6354   21579968.9674
      -218.0634
 04  9 13 21 23 15.0020000  0  8G19G 3G 8G13G10G28G23G27
  -3061131.35547  -2384079.69543  23766835.8934   23766834.5924
       890.8594
    517991.52048    408873.32043  23664619.0724   23664619.7794
     -1314.9174
  -5762032.56648  -4470584.86345  22362469.9634   22362469.4514
      1022.4534
   4154833.67249   3232573.41846  21031109.0884   21031106.5924
     -2031.2494
   -715354.34047   -552108.47742  24496248.9474   24496249.2524
      1058.0464
   -557467.23447   -425387.85542  24712395.2604   24712396.4824
      2372.8964
  13402716.44547  10409112.28944  23294738.7364   23294736.8814
     -4050.9874
   -731821.00049   -565902.37946  21580601.0964   21580599.4824
      -220.8914
 04  9 13 21 23 30.0020000  0  8G19G 3G 8G13G10G28G23G27
  -3074399.00448  -2394418.05543  23764311.7994   23764309.6624
       884.5104
    537857.35948    424353.18443  23668399.8694   23668400.0334
     -1324.3894
  -5777322.02048  -4482498.70745  22359560.5414   22359559.6744
      1019.2974
   4185418.86348   3256406.03146  21036929.4944   21036927.0294
     -2039.0134
   -731105.99647   -564382.45742  24493251.1194   24493251.6234
      1050.1104
   -593022.96547   -453093.48842  24705629.4004   24705630.4824
      2370.3824
  13463548.28948  10456513.68444  23306315.0024   23306312.6664
     -4055.4564
   -728464.89849   -563287.22746  21581239.9474   21581237.8734
      -223.7404
 04  9 13 21 23 45.0020000  0  8G19G 3G 8G13G10G28G23G27
  -3087571.93748  -2404682.61344  23761804.6824   23761803.3734
       878.1964
    557864.46148    439943.14843  23672207.0724   23672207.7134
     -1333.8074
  -5792564.93448  -4494376.28545  22356659.7134   22356659.1354
      1016.1944
   4216119.78149   3280328.81647  21042771.5334   21042769.0184
     -2046.7284
   -746739.34047   -576564.26642  24490276.4714   24490276.3854
      1042.2234
   -628541.78547   -480770.39842  24698869.8614   24698871.4394
      2367.9214
  13524446.21148  10503966.57444  23317903.4324   23317900.1194
     -4059.8614
   -725066.98849   -560639.49246  21581886.5644   21581884.4514
      -226.5274
 04  9 13 21 24  0.0020000  0  8G19G 3G 8G13G10G28G23G27
  -3100647.89847  -2414871.60543  23759316.3464   23759315.0534
       871.7314
    578014.82448    455644.72743  23676041.3304   23676041.8344
     -1343.3584
  -5807759.40248  -4506216.10945  22353768.8694   22353767.5924
      1012.9654
   4246938.34849   3304343.27347  21048635.9864   21048633.8264
     -2054.5714
   -762252.10247   -588652.10542  24487325.0414   24487324.7834
      1034.1844
   -664021.30147   -508416.66042  24692118.1744   24692119.8384
      2365.3014
  13585412.07848  10551472.41843  23329504.2684   23329501.7404
     -4064.3914
   -721625.19949   -557957.57846  21582541.2754   21582539.5724
      -229.4534
 04  9 13 21 24 15.0020000  0  8G19G 3G 8G13G10G28G23G27
  -3113628.10248  -2424986.00044  23756846.7994   23756844.4754
       865.3474
    598306.96148    471456.78143  23679902.6894   23679903.3184
     -1352.8094
  -5822906.70348  -4518019.17645  22350885.8074   22350885.2214
      1009.8204
   4277872.98849   3328448.17647  21054522.9554   21054520.5614
     -2062.3094
   -777645.65247   -600647.07042  24484395.6274   24484395.3934
      1026.2374
   -699463.04347   -536033.47742  24685374.2754   24685375.5844
      2362.7834
  13646444.11347  10599029.79344  23341118.2604   23341116.3734
     -4068.8024
   -718141.17249   -555242.74646  21583204.4244   21583202.4124
      -232.2684
 04  9 13 21 24 30.0020000  0  8G19G 3G 8G13G10G28G23G27
  -3126511.26247  -2435024.75843  23754394.3934   23754392.9554
       858.8774
    618741.67248    487379.93843  23683791.5494   23683791.8964
     -1362.3144
  -5838005.84048  -4529784.71945  22348013.1114   22348011.9204
      1006.6094
   4308924.73049   3352644.33647  21060431.7684   21060429.3464
     -2070.1164
   -792918.82047   -612548.22342  24481488.9394   24481489.2874
      1018.2114
   -734865.74247   -563619.90242  24678636.8934   24678638.1074
      2360.1804
  13707543.06347  10646639.29344  23352745.0644   23352743.3734
     -4073.2634
   -714614.01649   -552494.30946  21583875.6194   21583873.8304
      -235.1444
 04  9 13 21 24 45.0020000  0  8G19G 3G 8G13G10G28G23G27
  -3139297.94147  -2444988.34444  23751961.4084   23751959.8544
       852.4454
    639318.16048    503413.56643  23687706.8544   23687707.8504
     -1371.7664
  -5853057.83248  -4541513.52045  22345148.5644   22345147.2644
      1003.4664
   4340092.65649   3376931.02347  21066362.6744   21066360.3654
     -2077.8624
   -808072.12147   -624355.97742  24478605.4394   24478605.5024
      1010.2204
   -770230.09847   -591176.43742  24671907.1974   24671908.4474
      2357.6244
  13768707.92647  10694300.16044  23364385.1824   23364383.1504
     -4077.6584
   -711044.45749   -549712.82446  21584554.7444   21584553.2364
      -237.9714
 04  9 13 21 25  0.0020000  0  8G19G 3G 8G13G10G28G23G27
  -3151986.18447  -2454875.22744  23749546.3774   23749545.2684
       845.8834
    660038.07848    519558.94543  23691649.8464   23691650.6824
     -1381.3284
  -5868060.89148  -4553204.19945  22342293.3074   22342292.3734
      1000.2044
   4371378.28549   3401309.42247  21072316.4004   21072313.6464
     -2085.7094
   -823103.78147   -636068.95342  24475744.7294   24475745.0494
      1002.1114
   -805554.26247   -618701.67242  24665185.4474   24665186.2714
      2354.9444
  13829940.11748  10742013.51244  23376037.0494   23376035.1974
     -4082.1464
   -707431.03149   -546897.16046  21585242.5104   21585240.8814
      -240.8954
 04  9 13 21 25 15.0020000  0  8G19G 3G 8G13G10G28G23G27
  -3164576.17647  -2464685.55543  23747151.0334   23747149.2094
       839.3334
    680900.96148    535815.74243  23695620.0104   23695620.2874
     -1390.8594
  -5883015.48849  -4564857.10945  22339447.7214   22339446.8614
       996.9734
   4402781.42649   3425779.39847  21078292.1824   21078289.9754
     -2093.5434
   -838013.87947   -647687.16842  24472907.5334   24472907.8304
       994.0074
   -840838.55147   -646195.83642  24658470.5494   24658471.4634
      2352.2864
  13891239.04748  10789778.85544  23387702.0414   23387699.4474
     -4086.5954
   -703773.98049   -544047.50446  21585938.2604   21585936.2604
      -243.8034
 04  9 13 21 25 30.0020000  0  8G19G 3G 8G13G10G28G23G27
  -3177068.14848  -2474419.50843  23744774.2054   23744772.3144
       832.7984
    701906.19548    552183.46943  23699616.5494   23699617.0334
     -1400.3494
  -5897922.26249  -4576472.75445  22336610.8694   22336609.8424
       993.7854
   4434301.22749   3450340.27346  21084290.0964   21084287.7994
     -2101.3204
   -852803.01246   -659211.15242  24470092.7364   24470093.5884
       985.9424
   -876083.39847   -673659.25842  24651763.8074   24651764.7994
      2349.6574
  13952603.87148  10837595.55944  23399379.2754   23399376.8424
     -4090.9884
   -700074.11749   -541164.48846  21586642.4244   21586640.8464
      -246.6584
 04  9 13 21 25 45.0020000  0  8G19G 3G 8G13G10G28G23G27
  -3189461.34047  -2484076.49643  23742415.6974   23742413.5684
       826.2134
    723054.25848    568662.47343  23703641.1974   23703642.1234
     -1409.8714
  -5912780.64148  -4588050.69545  22333783.4244   22333782.5534
       990.5594
   4465938.21149   3474992.45746  21090310.3304   21090308.0454
     -2109.1324
   -867470.35947   -670640.23042  24467301.7054   24467302.6314
       977.8234
   -911288.02347   -701091.33642  24645064.8144   24645065.4714
      2346.9754
  14014035.03947  10885463.94543  23411069.2604   23411066.0614
     -4095.4114
   -696330.82849   -538247.63346  21587354.7364   21587352.9164
      -249.5534
 04  9 13 21 26  0.0020000  0  8G19G 3G 8G13G10G28G23G27
  -3201756.24647  -2493656.88343  23740075.6434   23740073.5844
       819.6604
    744344.35948    585252.16443  23707692.5574   23707693.4984
     -1419.3404
  -5927591.48049  -4599591.58645  22330965.4004   22330964.2684
       987.3894
   4497691.60249   3499735.35546  21096353.0254   21096350.4514
     -2116.8934
   -882016.50847   -681974.87142  24464533.9864   24464534.0104
       969.7434
   -946453.09447   -728492.62142  24638372.3304   24638373.4824
      2344.3384
  14075531.44548  10933383.18044  23422772.1894   23422768.5924
     -4099.7604
   -692545.03949   -535297.66046  21588075.1354   21588073.5644
      -252.3864
 04  9 13 21 26 15.0020000  0  8G19G 3G 8G13G10G28G23G27
  -3213951.60247  -2503159.69543  23737754.7134   23737752.9794
       813.0244
    765777.50848    601953.33243  23711771.8614   23711772.1074
     -1428.8774
  -5942353.72749  -4611094.61345  22328155.9944   22328155.1864
       984.1504
   4529562.38749   3524569.72746  21102417.9004   21102415.1544
     -2124.7194
   -896440.10547   -693214.02342  24461788.6274   24461789.2604
       961.5734
   -981577.36347   -755862.10242  24631688.9864   24631690.0494
      2341.6184
  14137093.88748  10981353.87144  23434486.9714   23434484.2524
     -4104.1634
   -688715.67249   -532313.73446  21588803.8854   21588802.3964
      -255.2914
 04  9 13 21 26 30.0020000  0  8G19G 3G 8G13G10G28G23G27
  -3226047.51247  -2512585.02343  23735452.8464   23735451.0454
       806.3944
    787353.16848    618765.53943  23715877.0494   23715877.1864
     -1438.3774
  -5957067.80948  -4622560.11345  22325355.8774   22325354.9004
       980.9394
   4561549.99649   3549495.12546  21108504.5494   21108502.2254
     -2132.5074
   -910741.55546   -704358.00042  24459067.5184   24459067.7604
       953.4304
  -1016661.15247   -783200.02042  24625012.5574   24625013.6894
      2338.9194
  14198721.69547  11029375.49244  23446213.8854   23446212.1784
     -4108.5214
   -684843.16449   -529296.18446  21589540.6114   21589539.1504
      -258.1674
 04  9 13 21 26 45.0020000  0  8G19G 3G 8G13G10G28G23G27
  -3238044.08247  -2521932.96543  23733170.3224   23733168.1624
       799.7714
    809071.03548    635688.55543  23720010.0494   23720010.2444
     -1447.8584
  -5971734.23449  -4633988.47745  22322565.0644   22322563.9004
       977.7624
   4593654.17249   3574511.35946  21114614.1274   21114611.6744
     -2140.2784
   -924920.90247   -715406.81642  24456369.8384   24456369.6044
       945.2904
  -1051704.50447   -810506.43742  24618344.1504   24618345.3814
      2336.2234
  14260414.39847  11077447.66444  23457953.2684   23457951.7484
     -4112.8474
   -680927.94149   -526245.35946  21590285.8774   21590283.9514
      -261.0154
 04  9 13 21 27  0.0020000  0  8G19G 3G 8G13G10G28G23G27
  -3249940.97747  -2531203.22743  23730906.2444   23730904.5644
       793.1264
    830931.07048    652722.34443  23724169.3694   23724170.5184
     -1457.3364
  -5986352.76649  -4645379.52045  22319782.9714   22319782.2644
       974.5694
   4625874.89549   3599618.40646  21120745.5184   21120743.1544
     -2148.0484
   -938977.95747   -726360.35542  24453694.4474   24453694.6624
       937.1374
  -1086707.32847   -837781.29342  24611682.5724   24611684.9084
      2333.5224
  14322171.75447  11125570.21944  23469705.3854   23469703.6074
     -4117.1574
   -676969.90249   -523161.16446  21591039.0724   21591037.3614
      -263.8694
 04  9 13 21 27 15.0020000  0  8G19G 3G 8G13G10G28G23G27
  -3261737.22347  -2540395.05944  23728661.4164   23728659.7214
       786.4164
    852933.75048    669867.29743  23728356.4944   23728357.2404
     -1466.8454
  -6000922.90649  -4656732.85945  22317010.4004   22317009.0254
       971.3434
   4658212.78549   3624816.75846  21126899.0104   21126896.3964
     -2155.8594
   -952911.93447   -737217.97742  24451043.1434   24451043.1434
       928.9324
  -1121668.78947   -865023.91442  24605029.9474   24605031.2914
      2330.7644
  14383994.33247  11173743.57443  23481469.8384   23481468.0534
     -4121.5054
   -672968.55549   -520043.22746  21591800.3074   21591798.6234
      -266.7574
 04  9 13 21 27 30.0020000  0  8G19G 3G 8G13G10G28G23G27
  -3273433.32847  -2549508.87943  23726436.0414   23726433.9824
       779.7404
    875078.39848    687122.86743  23732570.3694   23732571.2644
     -1476.3104
  -6015445.22749  -4668048.93445  22314246.8144   22314245.9714
       968.1554
   4690667.05949   3650105.78946  21133075.0184   21133072.5024
     -2163.6184
   -966723.40246   -747980.12542  24448414.4554   24448415.0924
       920.7654
  -1156589.38347   -892234.69142  24598385.1664   24598385.8074
      2328.0404
  14445881.08648  11221966.97743  23493247.2914   23493244.5614
     -4125.7844
   -668924.62549   -516892.10246  21592569.8144   21592568.2404
      -269.5954
 04  9 13 21 27 45.0020000  0  8G19G 3G 8G13G10G28G23G27
  -3285029.37947  -2558544.69943  23724229.3224   23724227.5964
       773.0704
    897364.71948    704488.84043  23736812.0334   23736812.2444
     -1485.7554
  -6029919.90249  -4679327.87945  22311492.5574   22311491.6154
       964.9784
   4723237.33649   3675485.21946  21139273.0574   21139270.5024
     -2171.3524
   -980412.32445   -758646.79742  24445810.4084   24445809.9944
       912.5954
  -1191469.28547   -919413.75442  24591747.8224   24591748.3734
      2325.3274
  14507831.52047  11270240.00443  23505036.5334   23505033.3504
     -4130.0294
   -664838.34049   -513707.98046  21593347.5644   21593345.9674
      -272.4194
 04  9 13 21 28  0.0020000  0  8G19G 3G 8G13G10G28G23G27
  -3296524.21546  -2567501.67243  23722041.7134   23722040.6624
       766.3224
    919793.44948    721965.76643  23741079.4164   23741080.3964
     -1495.2494
  -6044346.19549  -4690569.12145  22308747.2294   22308746.1544
       961.7534
   4755924.44149   3700955.68047  21145493.0644   21145490.6744
     -2179.1404
   -993977.75446   -769217.23442  24443228.3544   24443228.8344
       904.3624
  -1226307.48847   -946560.32842  24585117.8144   24585118.7714
      2322.5474
  14569846.39848  11318563.24244  23516837.0644   23516834.9554
     -4134.3254
   -660709.01249   -510490.32046  21594133.3614   21594131.5804
      -275.2894
 04  9 13 21 28 15.0020000  0  8G19G 3G 8G13G10G28G23G27
  -3307918.23047  -2576380.10543  23719873.0334   23719872.2994
       759.6014
    942363.81348    739553.05943  23745374.4474   23745375.2134
     -1504.6914
  -6058724.94949  -4701773.32845  22306011.0334   22306010.0184
       958.5844
   4788727.75449   3726516.69546  21151735.4634   21151732.7644
     -2186.8874
  -1007420.17247   -779691.82042  24440669.6894   24440670.9284
       896.1614
  -1261104.46947   -973674.77342  24578495.9634   24578497.3384
      2319.7994
  14631924.68047  11366935.87144  23528650.2994   23528648.8734
     -4138.5524
   -656537.24649   -507239.58246  21594927.2834   21594925.4124
      -278.1184
 04  9 13 21 28 30.0020000  0  8G19G 3G 8G13G10G28G23G27
  -3319212.13347  -2585180.48843  23717723.7294   23717723.0414
       752.9274
    965074.69548    757249.86343  23749696.0884   23749697.1154
     -1514.0594
  -6073057.14849  -4712941.25845  22303283.4864   22303282.4324
       955.4804
   4821646.12949   3752167.37146  21157999.5334   21157997.0804
     -2194.5584
  -1020740.32847   -790071.14142  24438135.7294   24438135.5534
       888.0104
  -1295861.15647  -1000757.83642  24571882.1354   24571883.4514
      2317.1134
  14694065.07848  11415356.86343  23540475.0184   23540473.8654
     -4142.6934
   -652324.14549   -503956.64546  21595728.6664   21595726.8854
      -280.8734
 04  9 13 21 28 45.0020000  0  8G19G 3G 8G13G10G28G23G27
  -3330404.55947  -2593901.81243  23715594.4864   23715593.1394
       746.1624
    987927.13348    775056.96543  23754044.7524   23754046.5254
     -1523.4964
  -6087341.78149  -4724072.11345  22300565.2294   22300564.4864
       952.3094
   4854680.55949   3777908.47347  21164285.7054   21164283.4284
     -2202.2954
  -1033937.18046   -800354.36742  24435624.4394   24435624.8774
       879.7904
  -1330576.25847  -1027808.47742  24565276.0414   24565277.1354
      2314.3404
  14756268.45348  11463826.95343  23552311.9714   23552310.6864
     -4146.8924
   -648068.64149   -500640.66846  21596538.7444   21596536.7324
      -283.7004
 04  9 13 21 29  0.0020000  0  8G19G 3G 8G13G10G28G23G27
  -3341496.14847  -2602544.56643  23713483.4394   23713481.7684
       739.4394
   1010920.30548    792973.70343  23758420.5724   23758421.4904
     -1532.8784
  -6101579.58249  -4735166.48445  22297856.0024   22297855.3264
       949.1874
   4887830.14849   3803739.30946  21170594.0184   21170591.6464
     -2209.9734
  -1047011.17646   -810541.87142  24433136.4324   24433137.1044
       871.6004
  -1365250.49647  -1054827.28542  24558677.3854   24558679.0924
      2311.6164
  14818533.79348  11512345.33643  23564161.1744   23564158.5334
     -4151.0234
   -643771.66049   -497292.36346  21597356.6114   21597354.7324
      -286.4654
 04  9 13 21 29 15.0020000  0  8G19G 3G 8G13G10G28G23G27
  -3352486.71547  -2611108.61343  23711392.1274   23711390.5024
       732.7044
   1034054.07048    811000.02043  23762822.5104   23762822.6894
     -1542.2514
  -6115770.66449  -4746224.44945  22295155.6044   22295154.4864
       946.0724
   4921094.75449   3829659.77746  21176924.0804   21176921.4904
     -2217.6404
  -1059962.11347   -820633.48842  24430671.8614   24430672.4084
       863.3964
  -1399883.72347  -1081814.12542  24552086.5644   24552088.1464
      2308.8824
  14880860.89848  11560911.89143  23576021.7054   23576018.6544
     -4155.1404
   -639433.23049   -493911.77046  21598181.9084   21598180.0724
      -289.2294
 04  9 13 21 29 30.0020000  0  8G19G 3G 8G13G10G28G23G27
  -3363376.55547  -2619594.16043  23709319.8384   23709318.3464
       725.9894
   1057327.84848    829135.42643  23767251.0964   23767252.1974
     -1551.5854
  -6129915.39849  -4757246.30145  22292464.0254   22292462.9474
       942.9824
   4954473.95748   3855669.53146  21183275.9554   21183273.7054
     -2225.2804
  -1072790.46147   -830629.57042  24428230.5574   24428231.2404
       855.2234
  -1434476.27047  -1108769.28942  24545504.5024   24545505.0064
      2306.1704
  14943249.03148  11609526.00043  23587893.4634   23587890.5144
     -4159.2094
   -635053.99648   -490499.37146  21599015.3384   21599013.5494
      -291.9494
 04  9 13 21 29 45.0020000  0  8G19G 3G 8G13G10G28G23G27
  -3374163.99647  -2627999.93043  23707267.1194   23707265.1864
       719.1634
   1080742.95748    847380.97343  23771706.6354   23771707.7834
     -1561.0074
  -6144012.49249  -4768231.03145  22289781.2054   22289780.3774
       939.8064
   4987969.07449   3881769.61347  21189649.7914   21189647.3224
     -2233.0084
  -1085494.73846   -840528.99242  24425812.7834   24425813.2054
       846.9524
  -1469026.61747  -1135691.57042  24538930.0494   24538929.9594
      2303.3574
  15005699.25848  11658188.45343  23599776.6974   23599775.1624
     -4163.3484
   -630632.47749   -487054.03146  21599856.4634   21599855.0614
      -294.7684
 04  9 13 21 30  0.0020000  0  8G19G 3G 8G13G10G28G23G27
  -3384847.52047  -2636324.72744  23705233.8224   23705232.2014
       712.2354
   1104300.48448    865737.47743  23776189.8074   23776190.4284
     -1570.5024
  -6158060.82449  -4779177.76645  22287108.0184   22287107.2054
       936.5554
   5021581.09449   3907960.78147  21196045.8224   21196043.4674
     -2240.8014
  -1098073.52046   -850330.62542  24423419.4714   24423419.8544
       838.5854
  -1503533.30147  -1162579.82842  24532362.7134   24532363.9514
      2300.4464
  15068212.59848  11706900.07443  23611673.0574   23611671.7324
     -4167.5564
   -626167.56248   -483574.87146  21600706.2754   21600704.6824
      -297.6614
 04  9 13 21 30 15.0020000  0  8G19G 3G 8G13G10G28G23G27
  -3395427.67247  -2644568.96144  23703221.0024   23703219.1544
       705.3434
   1127999.66848    884204.37143  23780699.6584   23780700.0494
     -1579.9464
  -6172061.24249  -4790087.16045  22284443.4714   22284442.9394
       933.3614
   5055309.14848   3934242.37947  21202464.2754   21202461.7324
     -2248.5374
  -1110527.56247   -860035.05942  24421049.1664   24421050.2874
       830.2704
  -1537997.10947  -1189434.65642  24525804.7684   24525805.9124
      2297.5874
  15130787.98448  11755660.02043  23623580.7994   23623579.2014
     -4171.6924
   -621660.19148   -480062.62546  21601564.1974   21601562.3344
      -300.4914
 04  9 13 21 30 30.0020000  0  8G19G 3G 8G13G10G28G23G27
  -3405904.87947  -2652732.97744  23701226.6194   23701225.3304
       698.4804
   1151839.86348    902781.15243  23785236.2054   23785237.1664
     -1589.3464
  -6186014.38349  -4800959.71945  22281788.4474   22281787.6584
       930.2094
   5089152.59449   3960613.88746  21208904.4164   21208902.0964
     -2256.2304
  -1122857.18047   -869642.51242  24418703.0334   24418703.8224
       821.9744
  -1572418.52748  -1216256.47342  24519254.5644   24519255.4394
      2294.7614
  15193424.57048  11804467.69544  23635500.5414   23635498.3854
     -4175.7724
   -617110.85248   -476517.69546  21602429.7444   21602427.8934
      -303.2894
 04  9 13 21 30 45.0020000  0  8G19G 3G 8G13G10G28G23G27
  -3416279.57047  -2660817.11344  23699252.5184   23699250.9554
       691.6464
   1175820.19548    921467.10243  23789799.5254   23789800.6074
     -1598.6894
  -6199920.76649  -4811795.84445  22279142.4004   22279141.4674
       927.0924
   5123110.80548   3987074.81346  21215366.2524   21215364.1274
     -2263.8814
  -1135062.84047   -879153.40242  24416380.8304   24416381.0254
       813.7114
  -1606797.94147  -1243045.54742  24512712.6894   24512712.8814
      2291.9614
  15256121.51648  11853322.41443  23647431.4944   23647429.2834
     -4179.7964
   -612520.32448   -472940.64846  21603303.2994   21603301.5924
      -306.0354
 04  9 13 21 31  0.0020000  0  8G19G 3G 8G13G10G28G23G27
  -3426550.00047  -2668820.01244  23697297.8854   23697295.8464
       684.6954
   1199942.07047    940263.37542  23794389.8694   23794390.3144
     -1608.1254
  -6213779.09049  -4822594.52345  22276505.0964   22276504.1974
       923.8884
   5157185.00448   4013626.12947  21221850.3854   21221848.3074
     -2271.6134
  -1147142.94147   -888566.43042  24414081.2444   24414082.5454
       805.3404
  -1641133.92647  -1269800.78142  24506178.2524   24506179.1114
      2289.0664
  15318879.93448  11902225.02743  23659373.7214   23659371.4754
     -4183.8954
   -607887.17648   -469330.39846  21604184.8854   21604183.1624
      -308.8774
 04  9 13 21 31 15.0020000  0  8G19G 3G 8G13G10G28G23G27
  -3436715.37947  -2676741.04744  23695363.9244   23695362.5064
       677.6924
   1224205.93048    959170.27043  23799007.0574   23799007.4124
     -1617.5914
  -6227588.79349  -4833355.31245  22273876.9324   22273876.0064
       920.6474
   5191375.71548   4040268.23046  21228356.6974   21228354.5294
     -2279.3814
  -1159096.81247   -897881.12542  24411806.7444   24411807.6274
       796.9254
  -1675425.72347  -1296521.57442  24499652.5184   24499653.2174
      2286.1204
  15381700.26248  11951175.89543  23671327.4324   23671325.1434
     -4188.0224
   -603210.98848   -465686.61346  21605074.7214   21605073.3264
      -311.7464
 04  9 13 21 31 30.0020000  0  8G19G 3G 8G13G10G28G23G27
  -3446774.95347  -2684579.65644  23693449.5804   23693448.6584
       670.6384
   1248612.18848    978188.13743  23803651.4944   23803651.6004
     -1627.0844
  -6241349.38349  -4844077.83646  22271258.6974   22271257.7294
       917.3734
   5225683.42248   4067001.49247  21234885.0964   21234883.0454
     -2287.1804
  -1170923.71147   -907096.85942  24409556.4164   24409557.4044
       788.4604
  -1709672.57847  -1323207.36342  24493135.3304   24493136.6044
      2283.1244
  15444582.71547  12000175.14543  23683294.0804   23683291.8034
     -4192.1644
   -598491.18748   -462008.84846  21605973.0104   21605971.5644
      -314.6534
 04  9 13 21 31 45.0020000  0  8G19G 3G 8G13G10G28G23G27
  -3456728.60547  -2692335.70744  23691555.6824   23691553.6354
       663.5774
   1273160.68048    997316.82443  23808323.3074   23808323.7484
     -1636.5664
  -6255060.88349  -4854762.09445  22268649.4394   22268648.1824
       914.1004
   5260107.90249   4093825.75446  21241435.9714   21241434.0144
     -2294.9654
  -1182623.67646   -916213.69142  24407330.4714   24407330.7684
       779.9984
  -1743874.49247  -1349858.14142  24486627.4004   24486628.2914
      2280.1284
  15507526.89548  12049222.48044  23695272.1664   23695270.8694
     -4196.2794
   -593727.97349   -458297.24246  21606879.1824   21606877.8034
      -317.5484
 04  9 13 21 32  0.0020000  0  8G19G 3G 8G13G10G28G23G27
  -3466575.53947  -2700008.60944  23689681.8854   23689679.9284
       656.4624
   1297851.75448   1016556.61743  23813021.8074   23813021.8964
     -1646.0724
  -6268722.91449  -4865407.82045  22266049.6974   22266048.4324
       910.8024
   5294649.62549   4120741.37146  21248009.2444   21248006.9674
     -2302.7824
  -1194195.91447   -925230.98842  24405127.8224   24405128.1314
       771.4834
  -1778030.84447  -1376473.38342  24480127.1044   24480127.8424
      2277.0904
  15570533.14148  12098318.19144  23707262.3074   23707260.8854
     -4200.4164
   -588920.80549   -454551.39846  21607794.1744   21607791.9394
      -320.4784
 04  9 13 21 32 15.0020000  0  8G19G 3G 8G13G10G28G23G27
  -3476315.82847  -2707598.41844  23687827.6974   23687826.6974
       649.3534
   1322685.08248   1035907.25043  23817746.8694   23817747.0724
     -1655.5554
  -6282335.80549  -4876015.25045  22263459.0574   22263457.6544
       907.5264
   5329308.16849   4147748.01246  21254604.6894   21254602.4244
     -2310.5704
  -1205640.66446   -934148.94942  24402949.5184   24402950.2294
       762.9834
  -1812141.71947  -1403053.19142  24473636.0104   24473637.0294
      2274.0584
  15633600.98848  12147461.89844  23719263.4164   23719261.6584
     -4204.5234
   -584070.11349   -450771.63346  21608717.2834   21608715.2794
      -323.3794
 04  9 13 21 32 30.0020000  0  8G19G 3G 8G13G10G28G23G27
  -3485949.23047  -2715104.92644  23685994.7214   23685993.2794
       642.2274
   1347660.51648   1055368.62143  23822500.0804   23822500.1544
     -1665.0294
  -6295899.64549  -4886584.45745  22260878.0494   22260876.7324
       904.2564
   5364083.51649   4174845.68046  21261222.0644   21261219.8224
     -2318.3574
  -1216957.75846   -942967.45342  24400796.3694   24400796.6194
       754.4734
  -1846207.01247  -1429597.49242  24467153.9794   24467154.5144
      2271.0204
  15696730.13348  12196653.38743  23731276.0964   23731274.9244
     -4208.6104
   -579175.87149   -446957.93746  21609648.6974   21609646.8654
      -326.2834
 04  9 13 21 32 45.0020000  0  8G19G 3G 8G13G10G28G23G27
  -3495475.16447  -2722527.67644  23684181.8544   23684180.2914
       635.0624
   1372778.35247   1074940.96143  23827279.7834   23827280.0684
     -1674.5224
  -6309414.00049  -4897115.10945  22258306.4244   22258305.1934
       900.9574
   5398975.78949   4202034.44946  21267861.6584   21267859.4044
     -2326.1524
  -1228146.77346   -951686.13342  24398666.9394   24398667.0294
       745.9344
  -1880226.30147  -1456105.95342  24460680.1824   24460681.0964
      2267.9534
  15759920.66048  12245892.68843  23743300.4394   23743298.8114
     -4212.7024
   -574237.87949   -443110.14846  21610588.2604   21610586.4244
      -329.1994
 04  9 13 21 33  0.0020000  0  8G19G 3G 8G13G10G28G23G27
  -3504893.37547  -2729866.50444  23682390.0184   23682388.8384
       627.8814
   1398038.42647   1094624.14543  23832086.5184   23832087.0414
     -1684.0054
  -6322878.91049  -4907607.23445  22255744.1194   22255743.1154
       897.6614
   5433985.15249   4229314.46146  21274523.7524   21274521.5334
     -2333.9584
  -1239207.58247   -960304.92242  24396562.0724   24396562.6584
       737.3874
  -1914199.41447  -1482578.40642  24454214.6194   24454215.9044
      2264.8744
  15823172.33648  12295179.64843  23755337.7364   23755334.9904
     -4216.7784
   -569255.98049   -439228.15246  21611536.1744   21611534.6704
      -332.1274
 04  9 13 21 33 15.0020000  0  8G19G 3G 8G13G10G28G23G27
  -3514203.37547  -2737121.02344  23680618.3384   23680616.3464
       620.6674
   1423440.81648   1114418.19943  23836920.5494   23836920.9554
     -1693.4934
  -6336294.05549  -4918060.57845  22253191.2134   22253189.8614
       894.3434
   5469111.62149   4256685.71946  21281208.4864   21281206.0254
     -2341.7654
  -1250139.68746   -968823.42242  24394481.7834   24394482.5684
       728.8074
  -1948125.93747  -1509014.58642  24447759.1044   24447759.8574
      2261.7684
  15886485.15248  12344514.25843  23767386.4244   23767383.6314
     -4220.8544
   -564230.16449   -435311.92646  21612492.9244   21612490.8694
      -335.0544
 04  9 13 21 33 30.0020000  0  8G19G 3G 8G13G10G28G23G27
  -3523405.42247  -2744291.39844  23678867.1194   23678865.5614
       613.4704
   1448985.39147   1134323.05143  23841781.2134   23841782.2444
     -1702.9724
  -6349659.85549  -4928475.46945  22250647.9474   22250646.9594
       891.0534
   5504354.89549   4284148.00846  21287914.9474   21287912.3774
     -2349.5524
  -1260943.28546   -977241.79342  24392426.3304   24392426.6974
       720.2404
  -1982006.02047  -1535414.55542  24441311.4794   24441312.5764
      2258.6724
  15949858.46148  12393896.00444  23779445.9244   23779443.7214
     -4224.8874
   -559160.71548   -431361.69146  21613456.9164   21613455.4984
      -337.9634
 04  9 13 21 33 45.0020000  0  8G19G 3G 8G13G10G28G23G27
  -3532499.21148  -2751377.42644  23677136.7754   23677134.4714
       606.2534
   1474671.77747   1154338.41843  23846669.5804   23846669.8964
     -1712.4264
  -6362976.44949  -4938852.02345  22248113.8774   22248112.3344
       887.7734
   5539714.74249   4311701.11746  21294643.6894   21294641.3734
     -2357.3234
  -1271618.34446   -985559.99242  24390394.6434   24390395.4004
       711.6714
  -2015839.64847  -1561778.32442  24434873.9004   24434874.7754
      2255.5754
  16013291.98048  12443324.65644  23791516.9794   23791515.7214
     -4228.9014
   -554047.73049   -427377.54746  21614430.0644   21614428.7444
      -340.8664
 04  9 13 21 34  0.0020000  0  8G19G 3G 8G13G10G28G23G27
  -3541483.85547  -2758378.40644  23675427.1194   23675424.4324
       598.9764
   1500500.58647   1174464.75842  23851584.1824   23851584.5724
     -1721.9214
  -6376243.28149  -4949189.80145  22245588.9944   22245587.9864
       884.4554
   5575191.68449   4339345.46946  21301394.7524   21301392.5574
     -2365.1294
  -1282164.02046   -993777.39542  24388387.7914   24388388.2644
       703.0454
  -2049626.00447  -1588105.26642  24428443.7364   24428444.9204
      2252.4244
  16076786.27748  12492800.66044  23803598.6744   23803597.6664
     -4232.9534
   -548890.55948   -423358.96946  21615411.4714   21615409.6434
      -343.8114
 04  9 13 21 34 15.0020000  0  8G19G 3G 8G13G10G28G23G27
  -3550360.26647  -2765295.04744  23673737.3934   23673735.8654
       591.7614
   1526470.45748   1194701.03943  23856526.1584   23856526.6274
     -1731.3254
  -6389461.42249  -4959489.64145  22243073.7684   22243072.4284
       881.2094
   5610784.44949   4367080.08246  21308167.7524   21308165.3814
     -2372.8514
  -1292581.32447  -1001894.73842  24386405.4394   24386406.0644
       694.4874
  -2083366.03147  -1614396.09442  24422022.9474   24422024.4554
      2249.3354
  16140339.90647  12542322.88743  23815692.2214   23815691.8114
     -4236.9094
   -543690.50848   -419306.98046  21616400.9944   21616399.4864
      -346.6704
 04  9 13 21 34 30.0020000  0  8G19G 3G 8G13G10G28G23G27
  -3559128.75847  -2772127.59844  23672068.8854   23672067.9324
       584.5664
   1552580.77048   1215046.73043  23861494.8934   23861496.2404
     -1740.6874
  -6402631.14149  -4969751.74245  22240567.5724   22240566.4394
       877.9814
   5646492.56648   4394904.58246  21314962.6434   21314960.3424
     -2380.5414
  -1302870.61747  -1009912.35542  24384447.4474   24384447.6194
       685.9534
  -2117060.08247  -1640651.11342  24415611.6744   24415612.5334
      2246.2704
  16203952.05947  12591890.69944  23827797.9004   23827796.7094
     -4240.8104
   -538448.08648   -415221.96946  21617398.5644   21617397.0644
      -349.4954
 04  9 13 21 34 45.0020000  0  8G19G 3G 8G13G10G28G23G27
  -3567789.03147  -2778875.84444  23670420.9634   23670418.6934
       577.3524
   1578831.59048   1235501.91443  23866490.1044   23866491.0574
     -1750.0554
  -6415752.70349  -4979976.31645  22238070.8224   22238069.6744
       874.7714
   5682315.94549   4422818.88746  21321779.6894   21321777.4904
     -2388.2254
  -1313031.61346  -1017829.99242  24382514.0334   24382514.0724
       677.4004
  -2150708.00847  -1666870.19942  24409208.7134   24409209.1274
      2243.1954
  16267622.44948  12641503.92643  23839914.6974   23839912.8384
     -4244.6934
   -533163.13748   -411103.82846  21618404.1504   21618402.7324
      -352.3304
 04  9 13 21 35  0.0020000  0  8G19G 3G 8G13G10G28G23G27
  -3576340.41047  -2785539.21944  23668793.9634   23668791.4284
       570.0924
   1605223.12548   1256066.75443  23871513.3384   23871512.8264
     -1759.4364
  -6428825.43749  -4990162.85246  22235583.0494   22235581.7484
       871.5164
   5718254.94549   4450823.28946  21328618.8224   21328616.2094
     -2395.9334
  -1323063.85246  -1025647.29342  24380605.3304   24380605.0374
       668.8164
  -2184309.22748  -1693052.88742  24402814.7214   24402815.1464
      2240.0814
  16331351.34848  12691162.76643  23852041.6894   23852039.0534
     -4248.5934
   -527835.44948   -406952.37546  21619417.9554   21619416.6624
      -355.1794
 04  9 13 21 35 15.0020000  0  8G19G 3G 8G13G10G28G23G27
  -3584784.27747  -2792118.81244  23667186.8144   23667185.7294
       562.9244
   1631753.79348   1276739.99643  23876561.0724   23876561.2914
     -1768.7114
  -6441851.26649  -5000312.83245  22233104.2294   22233103.0804
       868.3894
   5754307.96548   4478916.53546  21335479.4164   21335477.1664
     -2403.5354
  -1332968.70746  -1033365.35242  24378720.6894   24378720.6004
       660.3244
  -2217865.30148  -1719200.39542  24396429.0024   24396429.8464
      2237.0724
  16395137.03548  12740865.85243  23864179.9164   23864177.2294
     -4252.3794
   -522466.54748   -402768.81646  21620439.8614   21620438.1744
      -357.9274
 04  9 13 21 35 30.0020000  0  8G19G 3G 8G13G10G28G23G27
  -3593121.19147  -2798615.07444  23665600.0104   23665599.3574
       555.7944
   1658422.62948   1297520.89843  23881636.0104   23881636.2914
     -1777.9224
  -6454831.02049  -5010426.91445  22230634.4244   22230633.1664
       865.3174
   5790474.09848   4507097.93046  21342361.4864   21342359.2324
     -2411.0764
  -1342746.91846  -1040984.72742  24376859.2684   24376859.4794
       651.8814
  -2251376.62148  -1745313.02342  24390051.4244   24390052.6004
      2234.0884
  16458978.39147  12790612.31343  23876327.8304   23876326.1354
     -4256.0904
   -517057.31248   -398553.82446  21621469.0414   21621467.5184
      -360.6164
 04  9 13 21 35 45.0020000  0  8G19G 3G 8G13G10G28G23G27
  -3601350.43747  -2805027.40644  23664035.0574   23664032.2294
       548.6164
   1685230.08647   1318409.82043  23886737.6274   23886737.6114
     -1787.1644
  -6467764.01249  -5020504.55545  22228173.1584   22228172.1864
       862.1994
   5826753.75448   4535367.78146  21349265.6114   21349263.1354
     -2418.6444
  -1352397.84446  -1048504.91842  24375022.8224   24375022.8694
       643.3954
  -2284842.76248  -1771390.47742  24383683.4164   24383684.2444
      2231.0764
  16522875.73847  12840402.36343  23888487.0884   23888486.2994
     -4259.8234
   -511607.12548   -394306.91446  21622506.2604   21622504.5684
      -363.3464
 04  9 13 21 36  0.0020000  0  8G19G 3G 8G13G10G28G23G27
  -3609471.25448  -2811355.29744  23662488.7134   23662486.9324
       541.3884
   1712176.43848   1339406.98443  23891865.7294   23891865.4824
     -1796.4234
  -6480649.79749  -5030545.40645  22225721.0104   22225719.9164
       859.0524
   5863147.16849   4563726.27346  21356190.8934   21356188.4474
     -2426.2284
  -1361920.88346  -1055925.44542  24373210.6744   24373211.1234
       634.8694
  -2318263.12147  -1797432.24642  24377323.4244   24377324.2054
      2228.0244
  16586829.19147  12890236.11343  23900656.6584   23900656.0104
     -4263.5644
   -506115.77049   -390027.93746  21623551.0724   21623549.6744
      -366.0904
 04  9 13 21 36 15.0020000  0  8G19G 3G 8G13G10G28G23G27
  -3617482.97747  -2817598.14544  23660964.0494   23660963.3964
       534.1154
   1739262.08647   1360512.68843  23897019.0184   23897019.9394
     -1805.7104
  -6493488.04749  -5040549.22345  22223278.0644   22223276.8304
       855.8834
   5899654.77049   4592173.73846  21363137.6584   21363135.8934
     -2433.8404
  -1371315.34446  -1063245.78942  24371423.3074   24371423.4824
       626.2974
  -2351637.02747  -1823437.79742  24370972.8384   24370973.3344
      2224.9274
  16650839.16848  12940113.93043  23912838.4244   23912836.6704
     -4267.3324
   -500582.62549   -385716.39146  21624604.2684   21624602.0614
      -368.8764
 04  9 13 21 36 30.0020000  0  8G19G 3G 8G13G10G28G23G27
  -3625386.63347  -2823756.78544  23659460.3774   23659458.4204
       526.9104
   1766485.61747   1381725.81343  23902199.8694   23902200.4164
     -1814.9024
  -6506279.95749  -5050516.93045  22220843.8384   22220842.2994
       852.7944
   5936275.29749   4620709.20746  21370106.5104   21370104.7254
     -2441.3684
  -1380582.43046  -1070466.87142  24369659.7604   24369659.5924
       617.8064
  -2384965.58647  -1849408.02742  24364630.5334   24364631.0334
      2221.9044
  16714903.93848  12990034.49243  23925029.7754   23925026.6544
     -4270.9854
   -495009.13749   -381373.41446  21625664.7524   21625662.8814
      -371.5664
 04  9 13 21 36 45.0020000  0  8G19G 3G 8G13G10G28G23G27
  -3633181.32447  -2829830.53944  23657977.0804   23657974.6044
       519.6464
   1793847.55547   1403046.78943  23907406.9084   23907407.4204
     -1824.1294
  -6519024.93449  -5060448.07045  22218418.4554   22218417.2604
       849.6654
   5973009.19149   4649333.00846  21377097.0334   21377094.6504
     -2448.9264
  -1389721.28946  -1077588.05942  24367920.5334   24367920.5924
       609.2574
  -2418248.00447  -1875342.28942  24358297.0494   24358297.6044
      2218.8284
  16779024.00047  13039998.14543  23937230.9634   23937228.2134
     -4274.6714
   -489394.63349   -376998.47346  21626733.3544   21626731.4124
      -374.3004
 04  9 13 21 37  0.0030000  0  8G19G 3G 8G13G10G28G23G27
  -3640868.76247  -2835820.71144  23656514.1874   23656512.6204
       512.4964
   1821348.26247   1424475.91443  23912639.3584   23912640.5304
     -1833.3804
  -6531725.21949  -5070344.37546  22216001.6014   22216000.5734
       846.6864
   6009857.48049   4678045.94546  21384108.9134   21384106.3434
     -2456.5534
  -1398733.81646  -1084610.79342  24366205.2414   24366205.2534
       600.8354
  -2451487.74247  -1901243.30942  24351971.4524   24351972.0344
      2215.9834
  16843201.98847  13090006.90643  23949443.1014   23949441.3274
     -4278.5334
   -483740.12949   -372592.35946  21627809.1874   21627807.4794
      -376.9674
 04  9 13 21 37 15.0030000  0  8G19G 3G 8G13G10G28G23G27
  -3648445.74248  -2841724.80144  23655072.1554   23655071.0694
       505.1324
   1848985.93447   1446011.75843  23917899.1634   23917899.4174
     -1842.5114
  -6544377.14849  -5080203.01245  22213593.9604   22213592.8354
       843.4624
   6046817.07449   4706845.61746  21391142.1244   21391139.6164
     -2463.9734
  -1407616.73446  -1091532.53142  24364514.8664   24364514.8434
       592.1954
  -2484678.32047  -1927106.03142  24345655.4294   24345656.1444
      2212.7054
  16907431.15647  13140055.52743  23961665.7264   23961664.5854
     -4281.9454
   -478044.50849   -368154.21546  21628893.0774   21628891.1554
      -379.7084
 04  9 13 21 37 30.0030000  0  8G19G 3G 8G13G10G28G23G27
  -3655912.80547  -2847543.27344  23653651.3584   23653648.9794
       497.8044
   1876761.95747   1467655.41043  23923184.4054   23923185.3744
     -1851.7354
  -6556981.63749  -5090024.67645  22211195.6084   22211194.2614
       840.2994
   6083890.20349   4735733.75846  21398196.8514   21398194.6244
     -2471.5424
  -1416370.68446  -1098353.77342  24362848.7724   24362849.2884
       583.5974
  -2517822.03147  -1952932.22342  24339348.7024   24339348.9254
      2209.5814
  16971715.16048  13190146.87143  23973899.2414   23973897.7414
     -4285.6004
   -472307.61749   -363683.90246  21629984.6554   21629983.0464
      -382.4594
 04  9 13 21 37 45.0030000  0  8G19G 3G 8G13G10G28G23G27
  -3663270.26648  -2853276.31644  23652251.2024   23652248.9054
       490.4974
   1904675.70347   1489406.36343  23928496.3904   23928497.1874
     -1860.9164
  -6569539.40649  -5099809.94145  22208805.8124   22208804.3824
       837.1854
   6121076.14849   4764709.80546  21405273.1554   21405271.0304
     -2479.0634
  -1424996.08647  -1105074.85242  24361207.6714   24361207.6084
       575.0274
  -2550919.21147  -1978722.17642  24333050.3044   24333050.6084
      2206.4794
  17036053.29748  13240280.39843  23986142.6324   23986140.9334
     -4289.2094
   -466529.96549   -359181.84046  21631084.3274   21631082.5154
      -385.1774
 04  9 13 21 38  0.0030000  0  8G19G 3G 8G13G10G28G23G27
  -3670517.50448  -2858923.49644  23650872.7264   23650871.3394
       483.1494
   1932727.37148   1511264.78543  23933834.4604   23933835.4564
     -1870.1114
  -6582050.21149  -5109558.60545  22206425.3434   22206423.9294
       834.0544
   6158375.22349   4793774.01246  21412371.0624   21412368.8704
     -2486.6054
  -1433492.57446  -1111695.47742  24359591.0464   24359590.8904
       566.4334
  -2583969.41848  -2004475.52042  24326760.7334   24326761.2654
      2203.3474
  17100445.54748  13290456.12543  23998395.6244   23998394.2454
     -4292.8174
   -460711.40249   -354647.88346  21632191.4374   21632189.7924
      -387.9044
 04  9 13 21 38 15.0030000  0  8G19G 3G 8G13G10G28G23G27
  -3677654.26247  -2864484.56644  23649513.7334   23649512.0544
       475.7844
   1960916.94548   1533230.68843  23939198.4994   23939199.9334
     -1879.3054
  -6594513.77749  -5119270.45745  22204053.3744   22204052.2574
       830.9044
   6195787.32449   4822926.28946  21419490.1164   21419488.1014
     -2494.1404
  -1441859.77346  -1118215.36342  24357998.8974   24357998.8274
       557.8134
  -2616972.49648  -2030192.15242  24320480.6634   24320481.1674
      2200.2054
  17164891.89147  13340673.98843  24010659.6634   24010658.0034
     -4296.4234
   -454851.71149   -350081.89546  21633306.4764   21633304.6904
      -390.6464
 04  9 13 21 38 30.0030000  0  8G19G 3G 8G13G10G28G23G27
  -3684680.53948  -2869959.54744  23648176.6794   23648174.1984
       468.4184
   1989244.18847   1555303.84043  23944589.3354   23944590.5074
     -1888.4834
  -6606930.35249  -5128945.69545  22201690.7184   22201689.2494
       827.7724
   6233312.31349   4852166.52746  21426630.9374   21426629.1474
     -2501.6664
  -1450097.90647  -1124634.68042  24356431.0304   24356431.4294
       549.2094
  -2649928.31248  -2055871.93742  24314209.5384   24314209.8314
      2197.0544
  17229391.92647  13390933.69142  24022932.7184   24022931.6874
     -4300.0024
   -448951.19949   -345484.09046  21634429.1404   21634427.3124
      -393.3674
 04  9 13 21 38 45.0030000  0  8G19G 3G 8G13G10G28G23G27
  -3691596.11747  -2875348.28944  23646861.2104   23646858.5114
       461.0394
   2017708.82448   1577484.06343  23950006.1164   23950007.2924
     -1897.6424
  -6619300.03949  -5138584.39846  22199336.7574   22199335.6404
       824.6464
   6270949.94149   4881494.53146  21433793.1634   21433791.0114
     -2509.1754
  -1458206.75446  -1130953.24642  24354888.0624   24354888.4994
       540.5904
  -2682836.92647  -2081514.95742  24307946.7804   24307947.2294
      2193.9084
  17293945.27347  13441234.94143  24035217.8274   24035215.6874
     -4303.5574
   -443009.96149   -340854.55146  21635559.8434   21635558.2494
      -396.0834
 04  9 13 21 39  0.0030000  0  8G19G 3G 8G13G10G28G23G27
  -3698399.99647  -2880649.98844  23645565.7574   23645564.4134
       453.5924
   2046311.41447   1599771.78543  23955448.7884   23955450.2764
     -1906.8394
  -6631622.20749  -5148186.08246  22196991.6474   22196990.3664
       821.4784
   6308700.86349   4910910.82846  21440976.9374   21440974.7224
     -2516.7284
  -1466185.51247  -1137170.43742  24353369.7414   24353369.7454
       531.9174
  -2715697.38347  -2107120.43442  24301694.0774   24301694.5584
      2190.6974
  17358552.45348  13491578.14843  24047512.3904   24047510.7924
     -4307.1454
   -437027.19549   -336192.64846  21636698.2104   21636696.7334
      -398.8514
 04  9 13 21 39 15.0030000  0  8G19G 3G 8G13G10G28G23G27
  -3705092.16848  -2885864.64144  23644292.4914   23644290.1474
       446.1454
   2075051.84047   1622166.90643  23960918.0854   23960919.3944
     -1916.0284
  -6643896.84849  -5157750.71945  22194656.0464   22194654.7804
       818.3094
   6346564.92249   4940415.28146  21448182.1554   21448180.0624
     -2524.2714
  -1474034.13347  -1143286.24642  24351875.7884   24351876.4684
       523.2414
  -2748509.58247  -2132688.30942  24295449.8824   24295450.3314
      2187.4804
  17423213.02348  13541962.93843  24059817.2654   24059815.6904
     -4310.7054
   -431003.00449   -331498.46946  21637844.8904   21637842.8004
      -401.6134
 04  9 13 21 39 30.0030000  0  8G19G 3G 8G13G10G28G23G27
  -3711672.82047  -2890992.40644  23643040.4374   23643037.5694
       438.7104
   2103929.61747   1644669.05143  23966413.1084   23966415.0264
     -1925.1854
  -6656124.27049  -5167278.57846  22192329.0694   22192327.8974
       815.1614
   6384541.58649   4970007.47746  21455409.0154   21455406.8944
     -2531.7784
  -1481752.79746  -1149300.77342  24350407.4134   24350407.1514
       514.5784
  -2781273.78547  -2158218.80942  24289214.7494   24289214.9764
      2184.2804
  17487926.55948  13592388.99643  24072131.3824   24072130.1984
     -4314.2364
   -424937.83649   -326772.36746  21638998.8354   21638997.3044
      -404.3454
 04  9 13 21 39 45.0030000  0  8G19G 3G 8G13G10G28G23G27
  -3718141.07447  -2896032.59044  23641809.6794   23641807.6984
       431.2174
   2132945.12947   1667278.49643  23971934.8904   23971936.0934
     -1934.3674
  -6668304.03949  -5176769.29746  22190011.4294   22190010.3704
       811.9854
   6422631.41449   4999687.85246  21462657.2654   21462655.1754
     -2539.3224
  -1489340.89546  -1155213.56242  24348963.2574   24348963.1474
       505.8734
  -2813989.36748  -2183711.40242  24282989.1084   24282989.3864
      2181.0394
  17552693.35248  13642856.53543  24084456.0154   24084455.0224
     -4317.7864
   -418831.05949   -322013.84446  21640160.9994   21640159.4294
      -407.1184
 04  9 13 21 40  0.0030000  0  8G19G 3G 8G13G10G28G23G27
  -3724496.29348  -2900984.67244  23640600.4524   23640598.1084
       423.6814
   2162098.41448   1689995.36343  23977482.9374   23977483.2334
     -1943.5524
  -6680435.75049  -5186222.57045  22187702.7494   22187701.4794
       808.7814
   6460834.41849   5029456.41846  21469926.9374   21469924.8704
     -2546.8674
  -1496798.09846  -1161024.35942  24347544.0854   24347544.1794
       497.1474
  -2846656.00848  -2209165.85542  24276773.3124   24276773.2144
      2177.7764
  17617513.28548  13693365.51243  24096791.0304   24096789.5654
     -4321.3294
   -412682.70349   -317222.91447  21641330.7724   21641329.4054
      -409.8904
 04  9 13 21 40 15.0030000  0  8G19G 3G 8G13G10G28G23G27
  -3730738.10948  -2905848.41044  23639412.0304   23639409.3474
       416.1214
   2191389.78548   1712819.78943  23983056.1404   23983057.1554
     -1952.7584
  -6692519.21149  -5195638.23846  22185403.4604   22185402.3474
       805.5644
   6499151.03949   5059313.51246  21477218.5854   21477215.9564
     -2554.4414
  -1504123.84847  -1166732.71942  24346150.0074   24346150.1404
       488.3834
  -2879273.11748  -2234581.73842  24270565.7724   24270566.2614
      2174.4744
  17682386.50848  13743915.98843  24109136.3274   24109134.6364
     -4324.8824
   -406492.22349   -312399.16046  21642508.7184   21642507.4404
      -412.6994
 04  9 13 21 40 30.0030000  0  8G19G 3G 8G13G10G28G23G27
  -3736866.99247  -2910624.14144  23638246.2414   23638243.7764
       408.5924
   2220818.32448   1735751.09043  23988656.4524   23988657.9874
     -1961.9034
  -6704555.26249  -5205016.97746  22183113.0074   22183112.1124
       802.4034
   6537580.24649   5089258.34046  21484531.3664   21484528.9214
     -2561.9474
  -1511318.75846  -1172339.13742  24344781.0074   24344780.9954
       479.6614
  -2911841.23848  -2259959.43742  24264368.8744   24264368.3314
      2171.2084
  17747312.02048  13794507.22743  24121490.6714   24121489.1754
     -4328.3674
   -400260.43749   -307543.21546  21643694.7964   21643693.4094
      -415.4524
 04  9 13 21 40 45.0030000  0  8G19G 3G 8G13G10G28G23G27
  -3742882.93047  -2915311.84844  23637101.0854   23637099.9954
       401.0634
   2250383.66047   1758788.99243  23994282.4604   23994283.9794
     -1971.0224
  -6716544.06649  -5214358.89145  22180831.4294   22180830.3944
       799.2544
   6576121.76249   5119290.68046  21491865.5074   21491863.2724
     -2569.4344
  -1518383.07846  -1177843.79342  24343436.4134   24343436.4954
       470.9554
  -2944360.53948  -2285299.09842  24258180.4214   24258180.3394
      2167.9534
  17812289.31348  13845138.83243  24133855.9524   24133853.8904
     -4331.8204
   -393987.66449   -302655.34046  21644888.2574   21644886.9914
      -418.1854
 04  9 13 21 41  0.0030000  0  8G19G 3G 8G13G10G28G23G27
  -3748784.94548  -2919910.80944  23635978.1404   23635975.7724
       393.4684
   2280086.46548   1781934.02343  23999934.6634   23999936.8544
     -1980.1874
  -6728484.84049  -5223663.38345  22178559.3744   22178558.4794
       796.0524
   6614776.24249   5149411.04746  21499220.9374   21499218.7654
     -2576.9654
  -1525315.83646  -1183245.93042  24342117.5694   24342117.4214
       462.1844
  -2976830.09448  -2310599.98843  24252001.4914   24252001.4684
      2164.6374
  17877318.96548  13895811.24243  24146230.6404   24146229.1754
     -4335.3104
   -387673.04749   -297734.85546  21646090.1474   21646088.6444
      -420.9744
 04  9 13 21 41 15.0030000  0  8G19G 3G 8G13G10G28G23G27
  -3754573.34448  -2924421.21944  23634876.2804   23634874.0114
       385.8934
   2309926.10547   1805185.66843  24005613.1014   24005614.2414
     -1989.3094
  -6740378.03549  -5232930.79345  22176296.2804   22176295.2574
       792.8804
   6653543.10249   5179618.97346  21506598.4134   21506595.9994
     -2584.4574
  -1532117.38346  -1188545.82042  24340823.3044   24340823.1124
       453.4364
  -3009250.30547  -2335862.43442  24245831.7334   24245832.7064
      2161.3474
  17942400.22748  13946523.84043  24158615.0694   24158614.1204
     -4338.7514
   -381317.22349   -292782.26246  21647299.5624   21647297.6514
      -423.7224
 04  9 13 21 41 30.0030000  0  8G19G 3G 8G13G10G28G23G27
  -3760247.82048  -2928842.85544  23633796.2654   23633794.5894
       378.2984
   2339902.48848   1828543.87943  24011317.4604   24011318.6794
     -1998.4264
  -6752223.51649  -5242161.03145  22174041.9684   22174041.0034
       789.6994
   6692422.36749   5209914.49646  21513996.9524   21513994.8124
     -2591.9514
  -1538787.42646  -1193743.24242  24339553.5304   24339554.1474
       444.6704
  -3041620.82048  -2361086.14542  24239672.6084   24239672.8314
      2158.0344
  18007532.93048  13997276.48843  24171009.3274   24171008.4014
     -4342.1804
   -374919.99649   -287797.41446  21648516.9054   21648515.2694
      -426.4824
 04  9 13 21 41 45.0030000  0  8G19G 3G 8G13G10G28G23G27
  -3765807.71147  -2933175.21944  23632738.3904   23632737.1284
       370.6594
   2370016.04748   1852008.95343  24017048.0224   24017049.3354
     -2007.5714
  -6764020.77349  -5251353.68746  22171797.0544   22171796.1474
       786.4844
   6731414.27049   5240297.78546  21521416.8904   21521414.5654
     -2599.4604
  -1545325.47746  -1198837.82842  24338309.4444   24338309.5974
       435.8704
  -3073941.08648  -2386270.70743  24233521.5624   24233522.2494
      2154.6844
  18072717.22347  14048069.35943  24183413.7654   24183413.0544
     -4345.6204
   -368481.01649   -282780.02346  21649742.2104   21649740.8394
      -429.2654
 04  9 13 21 42  0.0030000  0  8G19G 3G 8G13G10G28G23G27
  -3771254.16047  -2937419.16444  23631701.5694   23631699.6044
       363.0974
   2400265.20748   1875579.71143  24022804.1084   24022805.6714
     -2016.6114
  -6775771.33649  -5260509.95745  22169560.9994   22169559.9404
       783.3714
   6770517.48449   5270767.81646  21528857.7964   21528855.7454
     -2606.8814
  -1551732.68446  -1203830.45742  24337090.3274   24337090.1364
       427.1474
  -3106212.25848  -2411417.01243  24227381.3974   24227381.1984
      2151.4114
  18137951.72347  14098901.35243  24195827.8824   24195825.8154
     -4348.9674
   -362001.57849   -277731.10546  21650975.2104   21650973.4134
      -431.9624
 04  9 13 21 42 15.0030000  0  8G19G 3G 8G13G10G28G23G27
  -3776585.81247  -2941573.66844  23630687.2964   23630685.4174
       355.4434
   2430650.94547   1899256.89143  24028586.1794   24028587.6014
     -2025.7164
  -6787474.07049  -5269628.95746  22167334.1244   22167333.0194
       780.1824
   6809732.98849   5301325.33646  21536320.1554   21536318.0694
     -2614.3674
  -1558007.96546  -1208720.27042  24335896.3044   24335896.5194
       418.3524
  -3138433.09848  -2436524.10943  24221249.6554   24221249.7724
      2148.0564
  18203237.18448  14149773.09043  24208251.3354   24208249.3354
     -4352.3644
   -355480.59849   -272649.82846  21652216.3194   21652214.2694
      -434.7324
 04  9 13 21 42 30.0030000  0  8G19G 3G 8G13G10G28G23G27
  -3781802.28947  -2945638.42644  23629694.4684   23629693.7334
       347.7654
   2461173.29747   1923040.52043  24034394.4374   24034396.2334
     -2034.8234
  -6799128.89849  -5278710.63346  22165116.3584   22165115.1634
       776.9894
   6849060.97749   5331970.51647  21543804.0694   21543801.7414
     -2621.8664
  -1564150.84445  -1213506.92242  24334727.4604   24334727.1284
       409.5254
  -3170603.25848  -2461591.70343  24215127.6554   24215127.6444
      2144.6774
  18268573.68047  14200684.57843  24220684.5154   24220682.3124
     -4355.7664
   -348917.89849   -267536.03946  21653464.9684   21653463.3784
      -437.5134
 04  9 13 21 42 45.0030000  0  8G19G 3G 8G13G10G28G23G27
  -3786902.96147  -2949612.92244  23628723.9834   23628721.6594
       340.0454
   2491832.71947   1946930.96542  24040228.6404   24040230.4134
     -2043.9614
  -6810735.21549  -5287754.51246  22162907.5934   22162906.7064
       773.7544
   6888501.78549   5362703.60246  21551309.6474   21551307.5544
     -2629.3874
  -1570160.77746  -1218189.97742  24333583.7414   24333583.6244
       400.6624
  -3202722.20348  -2486619.39143  24209015.4524   24209015.6014
      2141.2634
  18333961.23447  14251635.86343  24233127.0694   24233125.6084
     -4359.1704
   -342313.01249   -262389.37146  21654721.8194   21654720.7224
      -440.3264
 04  9 13 21 43  0.0030000  0  8G19G 3G 8G13G10G28G23G27
  -3791886.71947  -2953496.36744  23627775.5304   23627772.9214
       332.2514
   2522629.77047   1970928.64142  24046088.9604   24046090.8274
     -2053.1374
  -6822292.23049  -5296759.96546  22160708.3974   22160707.1474
       770.4684
   6928056.07049   5393525.11346  21558836.3194   21558834.1014
     -2636.9524
  -1576036.92646  -1222768.78142  24332465.2964   24332464.9054
       391.7434
  -3234788.90648  -2511606.37543  24202913.4834   24202913.4214
      2137.7804
  18399400.59047  14302627.50043  24245579.2104   24245578.7184
     -4362.6244
   -335665.12149   -257209.19146  21655987.1634   21655985.1714
      -443.1934
 04  9 13 21 43 15.0030000  0  8G19G 3G 8G13G10G28G23G27
  -3796755.74247  -2957290.35544  23626849.1324   23626847.9604
       324.6024
   2553562.02747   1995031.69142  24051974.8904   24051976.6204
     -2062.1514
  -6833802.27749  -5305728.82046  22158518.0154   22158516.9254
       767.3364
   6967721.32849   5424433.08646  21566384.4834   21566382.3584
     -2644.3514
  -1581781.31646  -1227244.92242  24331372.7264   24331371.9994
       382.9594
  -3266805.58648  -2536554.38743  24196820.9604   24196820.6124
      2134.4454
  18464889.06347  14353657.37943  24258041.5774   24258040.8274
     -4365.8984
   -328976.62949   -251997.38746  21657259.4994   21657258.1324
      -445.8994
 04  9 13 21 43 30.0030000  0  8G19G 3G 8G13G10G28G23G27
  -3801508.16448  -2960993.50444  23625944.7494   23625942.9994
       316.8284
   2584630.89147   2019241.20742  24057887.0074   24057888.0544
     -2071.2584
  -6845263.51649  -5314659.64546  22156336.9374   22156335.8124
       764.0834
   7007499.05549   5455428.70746  21573953.9054   21573951.8944
     -2651.8484
  -1587392.32846  -1231617.13742  24330304.1404   24330303.9994
       374.0674
  -3298770.43748  -2561462.00443  24190738.1014   24190737.4914
      2130.9904
  18530427.97347  14404726.56343  24270513.6714   24270512.9834
     -4369.2614
   -322245.96149   -246752.70746  21658540.3744   21658539.1014
      -448.7114
 04  9 13 21 43 45.0030000  0  8G19G 3G 8G13G10G28G23G27
  -3806143.03147  -2964605.06644  23625062.4834   23625060.3584
       308.9914
   2615837.02047   2043557.65642  24063825.8584   24063826.7724
     -2080.4094
  -6856675.43749  -5323552.04345  22154165.2804   22154163.9914
       760.7954
   7047389.96149   5486512.51646  21581545.0154   21581542.6364
     -2659.3944
  -1592869.11346  -1235884.75842  24329262.7334   24329261.9604
       365.1194
  -3330682.71948  -2586328.66843  24184664.8434   24184664.9294
      2127.4854
  18596017.94548  14455835.55543  24282995.7494   24282994.2334
     -4372.6654
   -315472.34449   -241474.56646  21659829.3194   21659827.9524
      -451.5744
 04  9 13 21 44  0.0030000  0  8G19G 3G 8G13G10G28G23G27
  -3810660.59447  -2968125.19144  23624202.8824   23624201.3004
       301.1714
   2647179.77347   2067980.55542  24069789.7334   24069791.9214
     -2089.5174
  -6868038.35949  -5332406.25045  22152003.1164   22152001.7764
       757.5284
   7087393.47349   5517684.07846  21589157.1474   21589155.1984
     -2666.9014
  -1598212.06246  -1240048.07442  24328245.4834   24328245.1124
       356.1974
  -3362542.68748  -2611154.54742  24178602.0074   24178603.0544
      2123.9984
  18661658.26248  14506983.78543  24295485.8974   24295484.9294
     -4376.0214
   -308656.17249   -236163.25846  21661126.4994   21661124.9564
      -454.4114
 04  9 13 21 44 15.0030000  0  8G19G 3G 8G13G10G28G23G27
  -3815060.16847  -2971553.40244  23623365.5694   23623364.1874
       293.3054
   2678659.39147   2092510.09042  24075780.4444   24075782.2144
     -2098.6414
  -6879351.83249  -5341221.93446  22149849.9764   22149848.9914
       754.2324
   7127509.89549   5548943.62146  21596791.1874   21596788.8904
     -2674.4284
  -1603420.56645  -1244106.64142  24327254.2334   24327254.6044
       347.2344
  -3394349.69148  -2635939.17643  24172549.2494   24172550.0894
      2120.4674
  18727349.22347  14558171.46143  24307986.1404   24307985.1904
     -4379.3974
   -301797.11349   -230818.53946  21662431.8664   21662429.9014
      -457.2714
 04  9 13 21 44 30.0030000  0  8G19G 3G 8G13G10G28G23G27
  -3819341.20347  -2974889.23444  23622551.1164   23622548.2654
       285.4024
   2710276.13347   2117146.50442  24081797.0464   24081798.5654
     -2107.7834
  -6890615.52349  -5349998.83246  22147706.8824   22147705.4484
       750.9134
   7167739.47349   5580291.32846  21604446.7884   21604444.0624
     -2681.9724
  -1608494.18446  -1248060.11342  24326289.0774   24326289.2264
       338.2414
  -3426103.27348  -2660682.16843  24166506.9524   24166507.7104
      2116.9054
  18793090.81347  14609398.60243  24320496.4134   24320495.9254
     -4382.7734
   -294894.68449   -225440.01646  21663745.3744   21663743.8394
      -460.1624
 04  9 13 21 44 45.0030000  0  8G19G 3G 8G13G10G28G23G27
  -3823504.57048  -2978133.37544  23621758.9294   23621756.0384
       277.5584
   2742028.80547   2141888.82442  24087839.5854   24087840.9374
     -2116.8454
  -6901830.37949  -5358737.66846  22145572.4684   22145571.4134
       747.6574
   7208081.17249   5611726.40646  21612123.2494   21612121.3434
     -2689.4474
  -1613433.76647  -1251909.13742  24325348.5694   24325348.8664
       329.3054
  -3457804.19947  -2685384.14143  24160474.3354   24160475.0424
      2113.3954
  18858881.82447  14660664.24243  24333016.7264   24333015.5894
     -4386.0674
   -287950.02349   -220028.60246  21665066.7104   21665065.0934
      -462.9774
 04  9 13 21 45  0.0030000  0  8G19G 3G 8G13G10G28G23G27
  -3827549.37948  -2981285.15244  23620989.0774   23620987.2614
       269.6544
   2773917.98447   2166737.53542  24093907.7964   24093908.9834
     -2125.9454
  -6912996.05549  -5367438.17646  22143447.9294   22143446.7924
       744.3784
   7248535.51249   5643249.25446  21619821.6164   21619819.4564
     -2696.9564
  -1618238.63746  -1255653.18442  24324434.4994   24324434.8234
       320.3254
  -3489451.77048  -2710044.53543  24154452.4134   24154452.0624
      2109.8384
  18924722.59047  14711968.65643  24345545.7024   24345544.4254
     -4389.3844
   -280962.49649   -214583.77046  21666396.3044   21666395.0384
      -465.8354
 04  9 13 21 45 15.0030000  0  8G19G 3G 8G13G10G28G23G27
  -3831475.46147  -2984344.39144  23620241.6874   23620238.8974
       261.7394
   2805943.50447   2191692.46542  24100002.2264   24100002.7534
     -2135.0354
  -6924112.39149  -5376100.24245  22141332.3744   22141331.6164
       741.0894
   7289102.13749   5674859.60246  21627541.4134   21627539.1554
     -2704.4424
  -1622908.71146  -1259292.19543  24323545.8354   24323546.1554
       311.3384
  -3521045.86347  -2734663.24643  24148439.9054   24148439.9644
      2106.2734
  18990612.82848  14763311.61343  24358084.3514   24358083.9014
     -4392.6834
   -273932.12549   -209105.55947  21667734.1164   21667732.8194
      -468.6914
 04  9 13 21 45 30.0030000  0  8G19G 3G 8G13G10G28G23G27
  -3835282.40647  -2987310.81244  23619517.6714   23619515.3664
       253.7964
   2838105.27747   2216753.57842  24106122.2104   24106123.2614
     -2144.1184
  -6935179.12149  -5384723.66046  22139226.1164   22139225.4254
       737.7824
   7329781.35249   5706557.67646  21635282.5304   21635279.9214
     -2711.9484
  -1627443.60547  -1262825.87942  24322682.8904   24322683.3824
       302.3264
  -3552586.18048  -2759240.05943  24142437.9764   24142437.8194
      2102.6884
  19056552.51648  14814693.10543  24370632.1794   24370631.9994
     -4395.9794
   -266858.60949   -203593.73046  21669080.5774   21669078.7184
      -471.5684
 04  9 13 21 45 45.0030000  0  8G19G 3G 8G13G10G28G23G27
  -3838970.08247  -2990184.28544  23618815.4524   23618814.4684
       245.8454
   2870403.19147   2241920.75442  24112268.2804   24112269.9094
     -2153.1944
  -6946196.24649  -5393308.41846  22137129.7724   22137128.8354
       734.4754
   7370572.91849   5738343.29746  21643044.5624   21643042.3864
     -2719.4384
  -1631843.34446  -1266254.24242  24321845.4134   24321845.9174
       293.3164
  -3584072.57448  -2783774.86342  24136445.8824   24136446.4374
      2099.0934
  19122541.30147  14866112.84443  24383189.4684   24383188.8864
     -4399.2524
   -259742.16049   -198048.44546  21670434.5304   21670432.9724
      -474.4304
 04  9 13 21 46  0.0030000  0  8G19G 3G 8G13G10G28G23G27
  -3842538.72748  -2992964.99644  23618136.5934   23618134.8314
       237.9104
   2902836.55947   2267193.51642  24118440.4444   24118441.2184
     -2162.2244
  -6957164.39849  -5401855.02046  22135042.9764   22135041.8194
       731.2104
   7411476.22749   5770215.99646  21650828.3514   21650826.2884
     -2726.8874
  -1636108.29746  -1269577.56643  24321034.4604   24321034.1594
       284.3304
  -3615505.44948  -2808267.94543  24130465.0224   24130465.0074
      2095.5254
  19188578.59047  14917570.39543  24395756.1014   24395755.5074
     -4402.4864
   -252583.23049   -192470.06246  21671796.8044   21671795.1874
      -477.2624
 04  9 13 21 46 15.0030000  0  8G19G 3G 8G13G10G28G23G27
  -3845988.52748  -2995653.13344  23617480.2264   23617477.9834
       229.9874
   2935404.84847   2292571.38342  24124637.9054   24124638.1834
     -2171.2194
  -6968083.80149  -5410363.63346  22132965.3044   22132963.9214
       727.9604
   7452490.83249   5802175.41446  21658633.1404   21658631.1044
     -2734.3074
  -1640238.80147  -1272796.14142  24320247.6794   24320248.0114
       275.3674
  -3646885.03948  -2832719.52743  24124493.5154   24124493.7334
      2091.9734
  19254663.71547  14969065.20343  24408331.4684   24408330.7614
     -4405.6754
   -245382.23049   -186858.89546  21673167.1244   21673165.4094
      -480.0674
 04  9 13 21 46 30.0030000  0  8G19G 3G 8G13G10G28G23G27
  -3849317.71547  -2998247.26644  23616846.7574   23616844.8044
       221.9464
   2968109.52047   2318055.52342  24130861.8044   24130862.2454
     -2180.3114
  -6978952.98849  -5418833.12146  22130896.6794   22130895.6794
       724.6124
   7493618.37549   5834222.83646  21666459.4914   21666457.1284
     -2741.8364
  -1644233.03147  -1275908.52742  24319487.7654   24319488.0384
       266.2824
  -3678209.48448  -2857128.12543  24118532.8194   24118532.6284
      2088.2964
  19320798.08247  15020598.40642  24420916.6164   24420915.8124
     -4408.9584
   -238137.47749   -181213.63747  21674545.9134   21674544.1874
      -482.9844
 04  9 13 21 46 45.0030000  0  8G19G 3G 8G13G10G28G23G27
  -3852526.28148  -3000747.41044  23616235.6554   23616234.1164
       213.9044
   3000950.19947   2343645.66442  24137110.9214   24137111.6084
     -2189.3794
  -6989772.12149  -5427263.60946  22128837.8044   22128836.3824
       721.2764
   7534858.46549   5866357.96146  21674307.2184   21674305.1634
     -2749.3394
  -1648091.08246  -1278914.79342  24318753.7264   24318754.0544
       257.2034
  -3709478.92248  -2881493.87543  24112582.3744   24112581.9994
      2084.6294
  19386981.19147  15072169.59043  24433510.8744   24433510.2144
     -4412.2074
   -230849.14549   -175534.41846  21675932.7104   21675930.9334
      -485.8894
 04  9 13 21 47  0.0030000  0  8G19G 3G 8G13G10G28G23G27
  -3855614.27748  -3003153.59844  23615648.2884   23615645.9794
       205.8664
   3033926.52747   2369341.48442  24143386.2024   24143386.8314
     -2198.4224
  -7000541.20749  -5435655.09846  22126788.4684   22126787.2884
       717.9394
   7576210.63349   5898580.41046  21682176.0854   21682174.4874
     -2756.8114
  -1651813.14146  -1281815.09842  24318045.8194   24318045.8664
       248.1374
  -3740693.35948  -2905816.77743  24106642.0694   24106641.6634
      2080.9634
  19453212.56348  15123778.37543  24446114.6084   24446113.9294
     -4415.4254
   -223517.54749   -169821.48446  21677327.9374   21677326.4014
      -488.7734
 04  9 13 21 47 15.0030000  0  8G19G 3G 8G13G10G28G23G27
  -3858581.69148  -3005465.84444  23615083.4294   23615081.7184
       197.8284
   3067037.93847   2395142.56342  24149687.1714   24149687.3944
     -2207.4274
  -7011260.58249  -5444007.84446  22124748.9524   22124747.3704
       714.6254
   7617674.52349   5930889.91846  21690066.4764   21690064.4874
     -2764.2594
  -1655399.37947  -1284609.57042  24317363.3434   24317363.0694
       239.0834
  -3771852.97348  -2930096.93043  24100712.6714   24100712.2264
      2077.3084
  19519491.71547  15175424.37943  24458727.1164   24458726.4134
     -4418.6104
   -216142.96949   -164075.05947  21678731.2264   21678729.5654
      -491.6394
 04  9 13 21 47 30.0030000  0  8G19G 3G 8G13G10G28G23G27
  -3861429.66047  -3007684.98844  23614541.6944   23614540.1324
       189.8654
   3100282.99247   2421047.79342  24156013.9764   24156013.8944
     -2216.3374
  -7021931.57049  -5452322.89146  22122718.0074   22122716.8784
       711.3994
   7659248.69549   5963285.35946  21697977.9684   21697976.0734
     -2771.6114
  -1658851.06646  -1287299.18742  24316705.8904   24316706.3004
       230.1134
  -3802958.88748  -2954335.25443  24094793.2804   24094792.8194
      2073.7284
  19585817.20747  15227106.47742  24471348.4684   24471347.9914
     -4421.6994
   -208726.64549   -158296.10946  21680142.3514   21680140.7844
      -494.4224
 04  9 13 21 47 45.0030000  0  8G19G 3G 8G13G10G28G23G27
  -3864157.34048  -3009810.43044  23614022.5384   23614020.3944
       181.8454
   3133662.26647   2447057.58642  24162365.2334   24162365.2264
     -2225.2854
  -7032553.67249  -5460599.84046  22120696.9764   22120695.4254
       708.1404
   7700933.70349   5995767.17246  21705910.3514   21705908.0504
     -2779.0014
  -1662167.29746  -1289883.26243  24316075.4444   24316075.3544
       221.0824
  -3834010.34848  -2978531.14543  24088884.6794   24088884.0154
      2070.0974
  19652189.32847  15278824.93042  24483978.3354   24483977.9134
     -4424.8084
   -201267.94549   -152484.14146  21681562.0154   21681560.1874
      -497.2474
 04  9 13 21 48  0.0030000  0  8G19G 3G 8G13G10G28G23G27
  -3866763.83648  -3011841.43444  23613526.3824   23613524.7264
       173.7664
   3167176.37947   2473172.46942  24168742.6084   24168742.7764
     -2234.2744
  -7043125.99649  -5468838.01246  22118685.0384   22118683.7064
       704.8224
   7742730.20749   6028335.85946  21713864.1084   21713861.9334
     -2786.4344
  -1665347.29746  -1292361.17242  24315470.0854   24315470.1444
       212.0004
  -3865006.50448  -3002683.94143  24082986.1944   24082984.9684
      2066.4104
  19718608.50847  15330580.05543  24496617.6554   24496616.7024
     -4427.9454
   -193766.11349   -146638.55946  21682989.6474   21682987.9764
      -500.1224
 04  9 13 21 48 15.0030000  0  8G19G 3G 8G13G10G28G23G27
  -3869249.57048  -3013778.34044  23613053.6084   23613051.1944
       165.7164
   3200824.65247   2499391.89842  24175145.4444   24175146.1674
     -2243.2184
  -7053649.15249  -5477037.85946  22116682.4374   22116680.9134
       701.5444
   7784637.58649   6060990.94946  21721838.8584   21721836.6204
     -2793.8254
  -1668391.52046  -1294733.29342  24314891.1164   24314891.2454
       202.9484
  -3895947.82848  -3026794.00443  24077097.7184   24077097.6044
      2062.7554
  19785074.06647  15382371.32842  24509265.8514   24509265.0034
     -4431.0374
   -186221.83249   -140759.89546  21684425.0934   21684423.7144
      -502.9524
 04  9 13 21 48 30.0030000  0  8G19G 3G 8G13G10G28G23G27
  -3871614.75048  -3015621.31644  23612603.8514   23612600.7294
       157.6794
   3234606.40247   2525715.32042  24181574.0854   24181574.4374
     -2252.1174
  -7064123.60549  -5485199.76646  22114689.3514   22114687.7764
       698.2974
   7826655.14149   6093731.88346  21729834.3664   21729832.3124
     -2801.1704
  -1671300.42246  -1296999.96943  24314337.1014   24314337.3274
       193.9274
  -3926834.55548  -3050861.51243  24071220.2024   24071220.3124
      2059.1154
  19851585.26647  15434198.16442  24521922.2654   24521921.3904
     -4434.0804
   -178635.38749   -134848.38746  21685868.8744   21685867.1904
      -505.7634
 04  9 13 21 48 45.0030000  0  8G19G 3G 8G13G10G28G23G27
  -3873857.87548  -3017369.16844  23612176.8044   23612173.3864
       149.5424
   3268522.66846   2552143.54742  24188028.1404   24188028.9874
     -2261.0844
  -7074547.92649  -5493322.60246  22112705.6794   22112704.3624
       694.9554
   7868784.00849   6126559.55546  21737851.0154   21737848.7454
     -2808.5914
  -1674072.60247  -1299160.09843  24313809.8194   24313810.4174
       184.8124
  -3957665.28948  -3074885.40242  24065353.5854   24065353.3974
      2055.3824
  19918143.23847  15486061.42242  24534587.9294   24534587.4834
     -4437.1984
   -171005.57449   -128903.07846  21687320.5304   21687319.1794
      -508.6544
 04  9 13 21 49  0.0030000  0  8G19G 3G 8G13G10G28G23G27
  -3875979.35248  -3019022.25844  23611772.7654   23611769.6044
       141.4324
   3302572.60947   2578675.95342  24194508.2574   24194509.0894
     -2269.9964
  -7084922.85549  -5501406.94946  22110731.3124   22110730.2294
       691.6624
   7911023.52349   6159473.44546  21745889.1014   21745887.0734
     -2815.9684
  -1676708.66447  -1301214.16842  24313308.0384   24313308.1874
       175.7384
  -3988440.52748  -3098866.03543  24059496.9994   24059497.0464
      2051.6834
  19984746.97347  15537960.33242  24547262.9134   24547261.9444
     -4440.2494
   -163333.06649   -122924.50446  21688780.5544   21688779.1554
      -511.5014
 04  9 13 21 49 15.0030000  0  8G19G 3G 8G13G10G28G23G27
  -3877979.29348  -3020580.63344  23611392.5224   23611389.2654
       133.3294
   3336755.87547   2605312.23442  24201013.0774   24201013.6874
     -2278.8844
  -7095248.58649  -5509452.96946  22108766.0774   22108765.2454
       688.3824
   7953373.28149   6192473.23846  21753947.8744   21753945.8944
     -2823.3174
  -1679208.62146  -1303162.19143  24312832.5304   24312832.1794
       166.6644
  -4019160.29748  -3122803.46543  24053650.5934   24053651.1904
      2047.9854
  20051396.00047  15589894.54742  24559945.5694   24559945.2614
     -4443.2684
   -155618.02749   -116912.78546  21690248.8904   21690247.5584
      -514.3364
 04  9 13 21 49 30.0030000  0  8G19G 3G 8G13G10G28G23G27
  -3879858.17648  -3022044.68044  23611034.8974   23611031.8394
       125.2594
   3371071.60547   2632051.73443  24207543.0694   24207543.8944
     -2287.7154
  -7105525.62549  -5517461.04346  22106810.6014   22106809.3514
       685.1364
   7995832.47749   6225558.30946  21762027.7964   21762025.5584
     -2830.6134
  -1681573.16847  -1305004.68443  24312382.1714   24312382.8314
       157.6364
  -4049825.06648  -3146698.02343  24047816.2264   24047815.7224
      2044.3184
  20118089.41047  15641863.34843  24572637.0464   24572637.1164
     -4446.2274
   -147861.19549   -110868.50446  21691724.9134   21691723.1444
      -517.1224
 04  9 13 21 49 45.0030000  0  8G19G 3G 8G13G10G28G23G27
  -3881616.30548  -3023414.62944  23610700.1874   23610697.1244
       117.2094
   3405519.19547   2658893.98042  24214097.8824   24214098.6714
     -2296.5064
  -7115754.64149  -5525431.69146  22104864.1324   22104862.7334
       681.9344
   8038400.51649   6258728.19146  21770128.1324   21770126.3194
     -2837.8694
  -1683802.58247  -1306741.89842  24311958.1164   24311958.4054
       148.6284
  -4080435.38348  -3170550.16043  24041990.8974   24041990.9014
      2040.6884
  20184826.48047  15693866.18043  24585336.7724   24585335.8864
     -4449.1384
   -140063.00049   -104791.98847  21693209.0074   21693207.0464
      -519.8804
 04  9 13 21 50  0.0030000  0  8G19G 3G 8G13G10G28G23G27
  -3883254.32048  -3024690.99244  23610388.6084   23610385.2614
       109.2014
   3440097.51647   2685838.10542  24220678.2334   24220678.9764
     -2305.2214
  -7125936.44149  -5533365.55946  22102926.6874   22102925.6634
       678.7874
   8081076.46549   6291982.16446  21778249.2724   21778247.3124
     -2845.0634
  -1685897.62147  -1308374.39143  24311559.3584   24311559.7334
       139.6694
  -4110991.88748  -3194360.35543  24036176.0854   24036175.8664
      2037.1004
  20251606.17647  15745902.21942  24598044.8194   24598043.9404
     -4451.9804
   -132224.31649    -98683.93046  21694700.4444   21694698.4404
      -522.5794
 04  9 13 21 50 15.0030000  0  8G19G 3G 8G13G10G28G23G27
  -3884770.66848  -3025872.53144  23610100.6324   23610096.7184
       101.0904
   3474807.85947   2712885.10542  24227283.1944   24227283.7884
     -2314.0234
  -7136069.66449  -5541261.56246  22100998.2494   22100997.1084
       675.5484
   8123861.50449   6325321.12946  21786390.9994   21786388.8944
     -2852.3364
  -1687856.84447  -1309901.07042  24311186.8434   24311186.6634
       130.6154
  -4141493.09048  -3218127.46143  24030371.2884   24030371.3824
      2033.4144
  20318429.57847  15797972.30942  24610760.6794   24610759.8704
     -4454.8934
   -124343.78949    -92543.25846  21696200.1324   21696198.4564
      -525.3684
 04  9 13 21 50 30.0030000  0  8G19G 3G 8G13G10G28G23G27
  -3886163.63348  -3026957.93744  23609834.6014   23609831.9254
        92.8644
   3509651.73047   2740036.15242  24233914.2024   24233914.2534
     -2322.9254
  -7146152.55549  -5549118.35246  22099079.5224   22099078.4404
       672.1934
   8166757.15649   6358746.30146  21794553.7804   21794551.6044
     -2859.7104
  -1689678.63747  -1311320.64142  24310840.1944   24310840.2454
       121.4534
  -4171937.16048  -3241850.05143  24024578.6244   24024577.9994
      2029.6054
  20385298.03547  15850077.51642  24623485.1554   24623484.2574
     -4457.8974
   -116419.63349    -86368.59046  21697707.9214   21697706.2694
      -528.2774
 04  9 13 21 50 45.0030000  0  8G19G 3G 8G13G10G28G23G27
  -3887435.73048  -3027949.17244  23609592.7104   23609589.9214
        84.8074
   3544626.02747   2767288.83242  24240569.9134   24240569.9794
     -2331.6204
  -7156187.98849  -5556938.16846  22097170.1404   22097168.7534
       669.0294
   8209760.52049   6392255.39546  21802736.9054   21802735.1364
     -2866.8914
  -1691365.71947  -1312635.23842  24310518.9374   24310519.1594
       112.4724
  -4202326.84848  -3265530.26243  24018795.3434   24018795.1594
      2025.9794
  20452208.43447  15902215.38342  24636217.5544   24636217.8514
     -4460.6934
   -108454.93049    -80162.34046  21699223.8194   21699221.9484
      -530.9804
 04  9 13 21 51  0.0030000  0  8G19G 3G 8G13G10G28G23G27
  -3888584.90648  -3028844.60944  23609373.8824   23609370.8044
        76.6124
   3579732.44147   2794644.43842  24247249.7334   24247251.2884
     -2340.4284
  -7166174.22749  -5564719.64146  22095269.8904   22095268.5774
       665.7494
   8252873.31649   6425849.76246  21810940.9054   21810938.9874
     -2874.1864
  -1692916.05946  -1313843.29742  24310224.0934   24310224.0734
       103.3564
  -4232660.03948  -3289166.46543  24013023.2334   24013022.5154
      2022.2134
  20519162.50847  15954387.29342  24648958.9524   24648959.0624
     -4463.6054
   -100447.60949    -73922.86747  21700747.4444   21700745.9524
      -533.8214
 04  9 13 21 51 15.0030000  0  8G19G 3G 8G13G10G28G23G27
  -3889611.18447  -3029644.28944  23609178.9054   23609176.4054
        68.4184
   3614970.70747   2822102.80942  24253955.3274   24253956.2224
     -2349.2184
  -7176111.03949  -5572462.60246  22093378.7414   22093377.3624
       662.4544
   8296095.32449   6459529.23446  21819165.9684   21819163.7654
     -2881.4674
  -1694329.69945  -1314944.84442  24309955.0384   24309955.2534
        94.2434
  -4262936.80148  -3312758.67243  24007261.2024   24007261.0504
      2018.4514
  20586159.85947  16006592.91842  24661708.4374   24661707.9254
     -4466.4904
    -92397.85249    -67650.33647  21702279.1634   21702277.3274
      -536.6514
 04  9 13 21 51 30.0030000  0  8G19G 3G 8G13G10G28G23G27
  -3890513.91047  -3030347.69144  23609006.9604   23609004.7414
        60.1824
   3650341.14847   2849664.16442  24260686.2804   24260686.8664
     -2358.0294
  -7185998.23849  -5580166.90646  22091497.3514   22091495.7294
       659.1474
   8339426.76649   6493293.97346  21827411.7334   21827409.6674
     -2888.7634
  -1695606.18447  -1315939.50042  24309712.0934   24309712.5584
        85.0994
  -4293156.47347  -3336306.41043  24001510.6794   24001510.5424
      2014.6454
  20653200.77747  16058832.49242  24674466.5224   24674465.7374
     -4469.3954
    -84305.11349    -61344.30147  21703819.3434   21703817.4214
      -539.5164
 04  9 13 21 51 45.0030000  0  8G19G 3G 8G13G10G28G23G27
  -3891292.96147  -3030954.73844  23608858.6714   23608856.2654
        51.9374
   3685843.41847   2877328.25042  24267442.3434   24267443.2024
     -2366.8184
  -7195835.93749  -5587832.63746  22089625.2494   22089623.8474
       655.8474
   8382867.31349   6527143.73046  21835678.1244   21835676.2694
     -2896.0364
  -1696745.60247  -1316827.35542  24309495.6944   24309495.5194
        75.9614
  -4323319.17648  -3359809.74243  23995771.2494   23995770.8004
      2010.8474
  20720284.77347  16111105.64142  24687231.8904   24687231.1444
     -4472.2664
    -76169.56649    -55004.91446  21705367.4684   21705365.6404
      -542.3704
 04  9 13 21 52  0.0030000  0  8G19G 3G 8G13G10G28G23G27
  -3891948.13747  -3031465.24244  23608733.8194   23608731.4334
        43.6784
   3721477.47747   2905095.02742  24274223.4994   24274223.8974
     -2375.6044
  -7205623.80549  -5595459.53946  22087762.6634   22087761.4564
       652.5244
   8426417.11349   6561078.62146  21843965.5624   21843963.8664
     -2903.3204
  -1697747.78146  -1317608.27342  24309304.7334   24309304.4134
        66.8124
  -4353424.47747  -3383268.35943  23990042.2884   23990041.7374
      2007.0204
  20787411.68047  16163412.25842  24700005.6244   24700004.9874
     -4475.1274
    -67991.17649    -48632.14546  21706924.0694   21706922.0384
      -545.2264
 04  9 13 21 52 15.0030000  0  8G19G 3G 8G13G10G28G23G27
  -3892478.94547  -3031878.84444  23608632.9444   23608630.4794
        35.3874
   3757243.41047   2932964.56342  24281029.3904   24281029.1474
     -2384.3964
  -7215361.53549  -5603047.37146  22085909.6714   22085908.4014
       649.1824
   8470076.27049   6595098.72346  21852273.4764   21852271.3314
     -2910.6104
  -1698612.09846  -1318281.77742  24309140.1474   24309139.6164
        57.6214
  -4383472.07047  -3406682.00843  23984324.2804   23984323.9054
      2003.1734
  20854581.56348  16215752.33642  24712788.1714   24712786.7334
     -4477.9924
    -59769.55549    -42225.69546  21708488.2494   21708486.1404
      -548.1084
 04  9 13 21 52 30.0030000  0  8G19G 3G 8G13G10G28G23G27
  -3892884.36348  -3032194.72744  23608555.8124   23608552.7964
        27.0284
   3793141.78546   2960937.29742  24287860.7654   24287861.1674
     -2393.2254
  -7225048.50849  -5610595.65646  22084066.1714   22084064.9174
       645.7984
   8513845.52749   6629204.62146  21860602.3744   21860600.5544
     -2917.9514
  -1699337.86747  -1318847.31242  24309002.0304   24309001.7064
        48.3854
  -4413461.00848  -3430049.93743  23978617.6014   23978616.8704
      1999.2634
  20921795.10547  16268126.44143  24725578.6244   24725577.8314
     -4480.9034
    -51503.92249    -35784.94546  21710061.0774   21710059.4054
      -551.0424
 04  9 13 21 52 45.0030000  0  8G19G 3G 8G13G10G28G23G27
  -3893164.59848  -3032413.08244  23608502.2264   23608500.7064
        18.6824
   3829172.04747   2989012.81643  24294717.2264   24294717.6044
     -2402.0174
  -7234685.00449  -5618104.60246  22082232.3824   22082231.3354
       642.4334
   8557724.28149   6663395.83646  21868952.4444   21868950.5694
     -2925.2504
  -1699925.41047  -1319305.14143  24308890.2414   24308889.7764
        39.1704
  -4443391.55147  -3453372.37943  23972921.8514   23972921.2414
      1995.3704
  20989051.67247  16320534.06643  24738376.3274   24738376.8004
     -4483.7714
    -43194.63349    -29310.16847  21711642.3194   21711640.2884
      -553.9534
 04  9 13 21 53  0.0030000  0  8G19G 3G 8G13G10G28G23G27
  -3893320.46547  -3032534.52044  23608472.6874   23608470.6754
        10.3914
   3865333.20747   3017190.31643  24301598.0934   24301598.4134
     -2410.7444
  -7244271.88349  -5625574.88346  22080407.7334   22080406.6284
       639.1254
   8601711.55949   6697671.61746  21877323.1084   21877321.0934
     -2932.4854
  -1700375.50446  -1319655.86343  24308804.7414   24308804.3004
        30.0064
  -4473264.46547  -3476649.91843  23967237.5934   23967236.5624
      1991.5284
  21056350.05547  16372974.24642  24751183.1474   24751182.4684
     -4486.5594
    -34842.50849    -22802.02746  21713231.7414   21713229.7374
      -556.8084
 04  9 13 21 53 15.0030000  0  8G19G 3G 8G13G10G28G23G27
  -3893350.71947  -3032558.07044  23608466.9914   23608464.8824
         2.0174
   3901626.06647   3045470.46542  24308504.2264   24308504.9334
     -2419.5244
  -7253807.90649  -5633005.54746  22078593.6944   22078591.9644
       635.7354
   8645808.23449   6732032.64546  21885714.2184   21885712.2764
     -2939.7784
  -1700687.03147  -1319898.61343  24308745.5544   24308745.1204
        20.7684
  -4503078.53548  -3499881.59843  23961563.7184   23961563.4604
      1987.6054
  21123691.04347  16425447.64142  24763997.8274   24763998.2494
     -4489.3994
    -26446.61749    -16259.77747  21714829.4214   21714827.7454
      -559.7264
 04  9 13 21 53 30.0030000  0  8G19G 3G 8G13G10G28G23G27
  -3893255.86347  -3032484.14144  23608485.2574   23608483.4254
        -6.3244
   3938049.71547   3073852.50443  24315435.8354   24315436.4954
     -2428.2434
  -7263293.99649  -5640397.29346  22076788.4444   22076786.6674
       632.4064
   8690013.44549   6766478.23846  21894126.1164   21894124.2184
     -2947.0144
  -1700860.69947  -1320033.93743  24308711.7804   24308712.0344
        11.5784
  -4532834.39148  -3523067.90643  23955901.5854   23955900.6014
      1983.7244
  21191073.62147  16477953.47742  24776820.3124   24776819.1944
     -4492.1724
    -18007.61349     -9683.93446  21716435.2964   21716433.8474
      -562.6004
 04  9 13 21 53 45.0030000  0  8G19G 3G 8G13G10G28G23G27
  -3893034.97348  -3032312.01644  23608526.8124   23608525.1944
       -14.7264
   3974604.71947   3102336.87142  24322391.5854   24322392.6634
     -2437.0004
  -7272729.18449  -5647749.38346  22074992.7964   22074991.7104
       629.0134
   8734327.79749   6801008.88746  21902559.1164   21902557.1594
     -2954.2904
  -1700895.73046  -1320061.23842  24308705.6244   24308705.7534
         2.3354
  -4562531.04747  -3546208.09843  23950250.2654   23950249.9524
      1979.7774
  21258498.34047  16530492.12542  24789650.8434   24789649.9644
     -4494.9814
     -9524.81249     -3073.96546  21718049.3194   21718047.9334
      -565.5204
 04  9 13 21 54  0.0030000  0  8G19G 3G 8G13G10G28G23G27
  -3892686.68048  -3032040.60544  23608593.2184   23608591.3474
       -23.2204
   4011291.98847   3130924.33242  24329372.7104   24329373.6444
     -2445.8184
  -7282112.40249  -5655060.97746  22073207.1014   22073206.0384
       625.5484
   8778752.43049   6835625.45746  21911012.8044   21911010.8474
     -2961.6424
  -1700790.77346  -1319979.45742  24308725.6164   24308725.6874
        -6.9974
  -4592167.24247  -3569301.17243  23944610.7884   23944609.7414
      1975.7464
  21325966.18447  16583064.40642  24802489.4604   24802488.8544
     -4497.8564
      -996.92649      3571.14146  21719672.2964   21719670.5624
      -568.5264
 04  9 13 21 54 15.0030000  0  8G19G 3G 8G13G10G28G23G27
  -3892210.67247  -3031669.68444  23608684.0384   23608681.2614
       -31.7344
   4048111.44947   3159614.81643  24336379.3584   24336380.6204
     -2454.6314
  -7291443.59449  -5662332.02746  22071431.6944   22071430.2724
       622.0794
   8823287.31649   6870327.94946  21919487.3974   21919485.4954
     -2968.9924
  -1700545.64546  -1319788.45342  24308772.4374   24308772.3354
       -16.3424
  -4621742.65248  -3592346.89843  23938982.7884   23938981.6474
      1971.6944
  21393477.14547  16635670.26643  24815335.9994   24815336.3824
     -4500.7314
      7576.34049     10251.60546  21721303.9134   21721302.0154
      -571.5514
 04  9 13 21 54 30.0030000  0  8G19G 3G 8G13G10G28G23G27
  -3891607.28948  -3031199.50844  23608799.0074   23608796.4794
       -40.2264
   4085062.39547   3188407.75042  24343410.9444   24343411.8474
     -2463.3964
  -7300723.04749  -5669562.76646  22069665.7804   22069664.0934
       618.6304
   8867931.89849   6905115.91446  21927983.0854   21927981.1674
     -2976.3054
  -1700160.81646  -1319488.59442  24308845.4914   24308845.4684
       -25.6554
  -4651257.56247  -3615345.45743  23933366.4764   23933365.2844
      1967.6614
  21461030.35547  16688309.03143  24828191.7574   24828192.0894
     -4503.5474
     16194.25449     16966.86346  21722943.7414   21722942.2414
      -574.5284
 04  9 13 21 54 45.0030000  0  8G19G 3G 8G13G10G28G23G27
  -3890875.89548  -3030629.59444  23608937.9684   23608936.3084
       -48.7604
   4122145.29347   3217303.50043  24350467.8274   24350469.2964
     -2472.1934
  -7309950.28149  -5676752.81246  22067909.8664   22067908.4014
       615.1494
   8912686.35549   6939989.48846  21936499.7024   21936497.7964
     -2983.6304
  -1699635.69946  -1319079.41842  24308945.1014   24308945.0894
       -35.0084
  -4680711.53947  -3638296.55943  23927761.4214   23927760.1834
      1963.5984
  21528626.07447  16740980.90642  24841054.4604   24841054.3664
     -4506.3814
     24857.50849     23717.44546  21724591.9834   21724590.7724
      -577.5504
 04  9 13 21 55  0.0030000  0  8G19G 3G 8G13G10G28G23G27
  -3890015.09047  -3029958.80544  23609101.7184   23609099.6594
       -57.3874
   4159361.03147   3246302.74242  24357550.1244   24357550.7294
     -2481.0494
  -7319124.03549  -5683901.18746  22066164.4834   22066162.7494
       611.5844
   8957551.83649   6974949.58646  21945037.3354   21945035.3904
     -2991.0324
  -1698968.88747  -1318559.82442  24309072.2184   24309072.2294
       -44.4544
  -4710103.14847  -3661199.04343  23922167.8274   23922167.3784
      1959.4414
  21596265.30147  16793686.69542  24853926.0694   24853926.2614
     -4509.2824
     33567.26249     30504.26246  21726249.7884   21726248.0034
      -580.6504
 04  9 13 21 55 15.0030000  0  8G19G 3G 8G13G10G28G23G27
  -3889024.15248  -3029186.64544  23609290.5384   23609287.7024
       -66.0624
   4196710.03947   3275405.84842  24364657.1324   24364657.4374
     -2489.9344
  -7328243.76649  -5691007.46546  22064428.7414   22064427.2764
       607.9824
   9002528.82449   7009996.57446  21953596.1634   21953593.8314
     -2998.4664
  -1698159.92247  -1317929.47343  24309226.2184   24309225.9444
       -53.9314
  -4739431.75447  -3684052.44943  23916587.0854   23916586.3354
      1955.2404
  21663948.26247  16846426.59042  24866805.2574   24866805.2924
     -4512.1974
     42324.03549     37327.71947  21727916.0224   21727914.2264
      -583.7854
 04  9 13 21 55 30.0030000  0  8G19G 3G 8G13G10G28G23G27
  -3887903.61748  -3028313.49244  23609503.8194   23609500.7804
       -74.7024
   4234191.48447   3304612.14142  24371789.6404   24371790.5894
     -2498.7634
  -7337310.30549  -5698072.29746  22062703.4524   22062702.2964
       604.4364
   9047616.32049   7045129.66846  21962175.9294   21962174.1084
     -3005.8334
  -1697209.47747  -1317188.85942  24309407.6874   24309407.0464
       -63.3634
  -4768697.83647  -3706857.11743  23911017.5224   23911017.0464
      1951.0724
  21731674.18047  16899199.96142  24879693.4374   24879693.6124
     -4515.0614
     51127.20349     44187.32447  21729591.0774   21729589.5694
      -586.8784
 04  9 13 21 55 45.0030000  0  8G19G 3G 8G13G10G28G23G27
  -3886652.46548  -3027338.56244  23609741.7334   23609739.0114
       -83.4104
   4271805.88747   3333922.02342  24378947.1794   24378948.7924
     -2507.6274
  -7346322.44149  -5705094.72746  22060988.3584   22060987.2534
       600.8094
   9092815.05949   7080349.44146  21970777.2724   21970775.1014
     -3013.2494
  -1696116.56647  -1316337.24642  24309615.4054   24309614.3274
       -72.8614
  -4797900.53147  -3729612.41443  23905460.6554   23905459.6794
      1946.8464
  21799443.46147  16952007.09442  24892589.8744   24892589.1404
     -4517.9524
     59977.67649     51083.78946  21731275.3274   21731273.7964
      -590.0324
 04  9 13 21 56  0.0030000  0  8G19G 3G 8G13G10G28G23G27
  -3885271.70348  -3026262.64144  23610004.5624   23610002.2764
       -92.0514
   4309551.95347   3363334.52342  24386130.1164   24386130.9764
     -2516.4044
  -7355281.52749  -5712075.83646  22059283.6084   22059282.2534
       597.2724
   9138123.91849   7115655.03146  21979399.1324   21979397.2694
     -3020.5914
  -1694882.27747  -1315375.47342  24309849.9834   24309849.5224
       -82.2864
  -4827040.68447  -3752318.96943  23899915.4134   23899914.9954
      1942.6774
  21867254.77047  17004846.98842  24905494.4054   24905493.7294
     -4520.7544
     68874.09449     58016.06346  21732968.2804   21732966.5384
      -593.0954
 04  9 13 21 56 15.0030000  0  8G19G 3G 8G13G10G28G23G27
  -3883761.56648  -3025085.91444  23610291.7334   23610289.2804
      -100.6764
   4347428.99247   3392849.07042  24393337.5624   24393339.2264
     -2525.1364
  -7364187.96949  -5719015.91446  22057589.0384   22057587.3864
       593.7634
   9183542.01249   7151045.72346  21988041.8434   21988039.9994
     -3027.8734
  -1693507.06647  -1314303.89142  24310111.7964   24310111.2024
       -91.6814
  -4856118.74647  -3774977.14543  23894381.8354   23894381.4914
      1938.5374
  21935107.46547  17057719.13742  24918405.9294   24918406.0464
     -4523.5134
     77816.28949     64984.00046  21734670.2104   21734668.2804
      -596.1464
 04  9 13 21 56 30.0030000  0  8G19G 3G 8G13G10G28G23G27
  -3882122.28547  -3023808.54744  23610603.7494   23610600.5694
      -109.2854
   4385436.46947   3422465.25842  24400570.4294   24400571.8084
     -2533.8324
  -7373042.15249  -5725915.27346  22055904.0304   22055902.3084
       590.2794
   9229069.23849   7186521.46946  21996705.3434   21996703.3274
     -3035.1484
  -1691991.18747  -1313122.68742  24310400.0464   24310400.0034
      -101.0594
  -4885134.84447  -3797587.04343  23888860.1554   23888859.7694
      1934.4074
  22003000.99647  17110623.06642  24931325.2724   24931325.7804
     -4526.2354
     86803.77749     71987.23846  21736379.9834   21736378.3784
      -599.1664
 04  9 13 21 56 45.0030000  0  8G19G 3G 8G13G10G28G23G27
  -3880351.78148  -3022428.91044  23610940.4684   23610938.0694
      -118.0344
   4423576.10247   3452184.40642  24407828.1944   24407829.5934
     -2542.6424
  -7381841.94549  -5732772.25046  22054229.2724   22054228.1714
       586.6534
   9274707.24249   7222083.52046  22005390.1554   22005388.1364
     -3042.5344
  -1690332.66447  -1311830.34843  24310715.6944   24310715.6044
      -110.5684
  -4914086.94947  -3820147.07443  23883350.9134   23883350.0344
      1930.1404
  22070937.00847  17163560.11342  24944253.5774   24944254.0544
     -4529.0674
     95838.63749     79027.37946  21738099.4444   21738097.7334
      -602.3244
 04  9 13 21 57  0.0030000  0  8G19G 3G 8G13G10G28G23G27
  -3878451.55548  -3020948.23444  23611302.1244   23611300.3354
      -126.6824
   4461846.07446   3482005.13342  24415110.5384   24415112.3044
     -2551.3324
  -7390588.99249  -5739588.12946  22052564.6244   22052563.4174
       583.1364
   9320454.12549   7257730.42646  22014095.4524   22014093.5894
     -3049.7924
  -1688532.97347  -1310427.98842  24311057.7334   24311058.1984
      -119.9794
  -4942976.44947  -3842658.32443  23877853.0934   23877852.7064
      1925.9674
  22138913.62147  17216528.80942  24957189.3274   24957188.8514
     -4531.7744
    104919.18849     86103.13746  21739827.4374   21739825.7414
      -605.3704
 04  9 13 21 57 15.0030000  0  8G19G 3G 8G13G10G28G23G27
  -3876420.60248  -3019365.66844  23611688.8664   23611686.2924
      -135.3974
   4500246.99647   3511927.89842  24422418.1874   24422419.4334
     -2560.0614
  -7399282.64549  -5746362.39846  22050910.8974   22050909.1404
       579.5774
   9366310.64149   7293462.75446  22022821.7024   22022819.6554
     -3057.1014
  -1686591.41047  -1308915.09042  24311428.0304   24311427.6124
      -129.4374
  -4971802.67247  -3865120.27344  23872367.6404   23872367.3004
      1921.7484
  22206931.28147  17269529.48842  24970133.7264   24970132.6514
     -4534.5114
    114046.18049     93215.06346  21741564.4764   21741562.9484
      -608.4664
 04  9 13 21 57 30.0030000  0  8G19G 3G 8G13G10G28G23G27
  -3874257.98848  -3017680.49644  23612100.3194   23612097.4524
      -144.1744
   4538779.46147   3541953.15642  24429750.8044   24429751.9724
     -2568.8314
  -7407921.93049  -5753094.30946  22049266.7414   22049265.0074
       575.9524
   9412277.38349   7329280.97346  22031568.5854   22031566.6634
     -3064.4494
  -1684507.07047  -1307290.93042  24311823.7964   24311823.9374
      -138.9564
  -5000564.51647  -3887532.04743  23866894.4764   23866894.0224
      1917.4564
  22274990.62947  17322562.63342  24983084.3124   24983084.2724
     -4537.2904
    123220.44149    100363.83646  21743309.9524   21743308.3624
      -611.6174
 04  9 13 21 57 45.0030000  0  8G19G 3G 8G13G10G28G23G27
  -3871964.12548  -3015893.06244  23612536.9294   23612533.7024
      -152.9244
   4577442.74246   3572080.35543  24437107.9914   24437109.1834
     -2577.5524
  -7416507.34849  -5759784.23446  22047632.6474   22047631.4134
       572.3614
   9458353.52349   7365184.43446  22040336.8274   22040334.8234
     -3071.7434
  -1682280.52347  -1305555.96542  24312247.9214   24312248.0304
      -148.4364
  -5029262.47747  -3909894.04743  23861433.5154   23861432.7534
      1913.1974
  22343090.90246  17375627.66442  24996042.4994   24996042.6834
     -4540.0184
    132441.43849    107549.02346  21745064.8514   21745063.0504
      -614.7334
 04  9 13 21 58  0.0030000  0  8G19G 3G 8G13G10G28G23G27
  -3869539.40248  -3014003.66844  23612997.8744   23612995.3354
      -161.6484
   4616236.12946   3602308.93842  24444489.9994   24444491.7024
     -2586.2264
  -7425039.42249  -5766432.60246  22046008.9684   22046007.7294
       568.8054
   9504538.66049   7401172.83646  22049125.3514   22049123.6084
     -3079.0094
  -1679912.05147  -1303710.41042  24312698.6714   24312698.8974
      -157.8984
  -5057896.77348  -3932206.43743  23855984.4054   23855984.1164
      1908.9534
  22411231.32847  17428724.00042  25009009.6554   25009009.7264
     -4542.6954
    141708.86349    114770.39546  21746828.2724   21746826.6044
      -617.8284
 04  9 13 21 58 15.0030000  0  8G19G 3G 8G13G10G28G23G27
  -3866983.18048  -3012011.79344  23613484.1164   23613481.5384
      -170.4154
   4655159.75446   3632638.99643  24451897.1404   24451898.2294
     -2594.9084
  -7433517.60249  -5773038.96946  22044395.4444   22044393.8584
       565.2124
   9550833.00449   7437246.32846  22057935.0854   22057933.1044
     -3086.2904
  -1677401.33247  -1301754.02042  24313176.7024   24313176.6404
      -167.3814
  -5086467.04347  -3954468.94143  23850547.8904   23850547.0344
      1904.6854
  22479411.94147  17481851.66442  25021984.4524   25021983.5654
     -4545.3744
    151023.04749    122028.19146  21748600.6634   21748598.6634
      -620.9464
 04  9 13 21 58 30.0030000  0  8G19G 3G 8G13G10G28G23G27
  -3864296.19948  -3009918.03944  23613995.7574   23613993.2264
      -179.1324
   4694212.47746   3663069.65243  24459329.0694   24459330.5584
     -2603.5154
  -7441942.89849  -5779604.13346  22042792.4054   22042791.0694
       561.6864
   9597235.42249   7473404.03146  22066765.1474   22066763.2964
     -3093.4954
  -1674749.22347  -1299687.43742  24313680.8584   24313680.9254
      -176.8074
  -5114973.96948  -3976682.08643  23845123.3044   23845122.6124
      1900.4624
  22547631.66847  17535009.78942  25034966.2884   25034966.1554
     -4547.9824
    160383.08649    129321.71946  21750381.9444   21750380.4054
      -624.0034
 04  9 13 21 58 45.0030000  0  8G19G 3G 8G13G10G28G23G27
  -3861478.13348  -3007722.14144  23614532.2024   23614529.5694
      -187.8714
   4733394.35545   3693600.94542  24466785.0154   24466786.2064
     -2612.1254
  -7450315.01649  -5786127.85246  22041199.2654   22041198.0224
       558.1414
   9643746.02749   7509646.03946  22075615.8044   22075614.0854
     -3100.7074
  -1671955.44547  -1297510.46143  24314212.5074   24314213.0624
      -186.2524
  -5143417.18748  -3998845.59443  23839710.7574   23839709.9254
      1896.2154
  22615890.60547  17588198.44543  25047955.7654   25047955.8744
     -4550.5964
    169789.27349    136651.21146  21752171.8044   21752170.2144
      -627.0794
 04  9 13 21 59  0.0030000  0  8G19G 3G 8G13G10G28G23G27
  -3858529.31648  -3005424.35244  23615093.0544   23615091.2184
      -196.5884
   4772704.74246   3724232.38742  24474265.8584   24474266.8124
     -2620.6924
  -7458634.57449  -5792610.62946  22039616.3904   22039614.8084
       554.6374
   9690364.24249   7545971.90246  22084486.9444   22084484.9604
     -3107.8814
  -1669020.39547  -1295223.41043  24314771.4054   24314771.4094
      -195.6704
  -5171797.03948  -4020959.71944  23834310.1404   23834309.1874
      1891.9904
  22684187.96547  17641417.05142  25060952.2414   25060952.0544
     -4553.1574
    179241.06649    144016.24246  21753970.5154   21753968.7964
      -630.1204
 04  9 13 21 59 15.0030000  0  8G19G 3G 8G13G10G28G23G27
  -3855450.22748  -3003025.06644  23615679.1164   23615676.9294
      -205.2734
   4812142.84846   3754963.35942  24481770.2574   24481771.7104
     -2629.2074
  -7466901.72749  -5799052.55546  22038042.7334   22038041.5854
       551.1434
   9737089.31349   7582381.02346  22093378.5624   22093376.9684
     -3115.0054
  -1665944.69147  -1292826.76643  24315356.6554   24315356.7224
      -205.0474
  -5200113.91048  -4043024.77744  23828921.5774   23828921.2884
      1887.7914
  22752523.02347  17694665.06342  25073955.5774   25073955.7064
     -4555.6714
    188738.04749    151416.47746  21755777.5074   21755775.9254
      -633.1324
 04  9 13 21 59 30.0030000  0  8G19G 3G 8G13G10G28G23G27
  -3852239.82848  -3000523.45344  23616290.6634   23616287.9794
      -214.0274
   4851709.22747   3785794.25842  24489299.5624   24489300.7844
     -2637.7594
  -7475115.98049  -5805453.27046  22036479.9834   22036478.5344
       547.6174
   9783921.87949   7618873.91446  22102290.5154   22102288.9914
     -3122.1714
  -1662727.42247  -1290319.82442  24315968.7494   24315968.4764
      -214.4854
  -5228367.01248  -4065040.14144  23823545.1634   23823544.4014
      1883.5404
  22820896.18446  17747942.73042  25086966.7654   25086966.5734
     -4558.2114
    198280.88749    158852.45346  21757593.6794   21757592.2104
      -636.1894
 04  9 13 21 59 45.0030000  0  8G19G 3G 8G13G10G28G23G27
  -3848896.67648  -2997918.38744  23616926.4524   23616923.8584
      -222.8774
   4891404.93446   3816725.93842  24496853.5154   24496854.5114
     -2646.3804
  -7483275.86349  -5811811.62146  22034927.0934   22034925.7374
       543.9924
   9830863.01649   7655451.40246  22111223.0224   22111221.3004
     -3129.4094
  -1659367.29347  -1287701.53142  24316608.4444   24316608.3124
      -224.0094
  -5256554.98048  -4087004.75444  23818181.2264   23818180.0194
      1879.1984
  22889308.42246  17801250.84442  25099985.3584   25099985.2064
     -4560.8164
    207870.82049    166325.12546  21759418.6474   21759416.9724
      -639.3294
 04  9 13 22  0  0.0030000  0  7G19G 3G 8G13G10G28G27
  -3845422.17248  -2995210.97344  23617587.3274   23617584.8704
      -231.6344
   4931228.26646   3847757.05142  24504431.6324   24504433.2454
     -2654.8894
  -7491382.73049  -5818128.65246  22033384.2414   22033382.9404
       540.4584
   9877911.10549   7692112.23046  22120175.7414   22120174.3784
     -3136.5394
  -1655865.65647  -1284973.00843  24317274.4134   24317274.5384
      -233.4424
  -5284679.06648  -4108919.59044  23812829.3044   23812828.2724
      1874.9394
    217506.64849    173833.55946  21761252.1634   21761250.5854
      -642.3894
 04  9 13 22  0 15.0030000  0  7G19G 3G 8G13G10G28G27
  -3841816.95348  -2992401.69944  23618273.4524   23618270.6404
      -240.3484
   4971178.21147   3878886.86343  24512034.2334   24512035.1674
     -2663.3304
  -7499437.48449  -5824405.07846  22031851.3434   22031850.3434
       536.9844
   9925065.20749   7728855.66446  22129149.0464   22129147.5814
     -3143.6074
  -1652223.41047  -1282134.90243  24317967.6944   24317967.5074
      -242.8164
  -5312739.91048  -4130785.14543  23807489.2804   23807488.5854
      1870.7234
    227187.46549    181377.05546  21763094.2654   21763092.6634
      -645.3884
 04  9 13 22  0 30.0030000  0  7G19G 3G 8G13G10G28G27
  -3838080.37948  -2989490.06244  23618984.6164   23618981.6364
      -249.1054
   5011255.07047   3910115.53942  24519660.1324   24519661.3824
     -2671.7914
  -7507439.64549  -5830640.52346  22030328.5464   22030327.4444
       533.4774
   9972325.66849   7765681.97746  22138142.6084   22138140.7724
     -3150.6974
  -1648440.02348  -1279186.79343  24318687.3584   24318687.7374
      -252.2264
  -5340736.88748  -4152600.93744  23802161.8274   23802160.7104
      1866.4654
    236913.73849    188955.96146  21764945.2334   21764943.4564
      -648.4184
 04  9 13 22  0 45.0030000  0  7G19G 3G 8G13G10G28G27
  -3834210.73448  -2986474.73444  23619720.6874   23619718.3124
      -257.9764
   5051460.23047   3941444.20342  24527310.9524   24527312.6124
     -2680.3444
  -7515387.57849  -5836833.71146  22028816.1874   22028815.2614
       529.8624
  10019693.90249   7802592.27746  22147156.5224   22147154.6794
     -3157.8824
  -1644513.88747  -1276127.47343  24319434.7654   24319434.8864
      -261.7424
  -5368668.36348  -4174365.68444  23796846.7724   23796845.5034
      1862.0984
    246687.09849    196571.55546  21766805.2654   21766803.2724
      -651.5574
 04  9 13 22  1  0.0030000  0  7G19G 3G 8G13G10G28G27
  -3830209.27748  -2983356.70744  23620482.2414   23620479.6124
      -266.7644
   5091792.07846   3972871.58242  24534986.8124   24534987.5854
     -2688.7904
  -7523282.64149  -5842985.69946  22027313.8434   22027312.7454
       526.3384
  10067168.41049   7839585.37546  22156190.8584   22156188.7724
     -3164.9674
  -1640446.27047  -1272957.91443  24320208.2574   24320209.1554
      -271.1744
  -5396535.53548  -4196080.33244  23791543.5624   23791542.5074
      1857.8114
    256506.31649    204222.89146  21768673.5934   21768671.8044
      -654.6154
 04  9 13 22  1 15.0030000  0  7G19G 3G 8G13G10G28G27
  -3826074.62148  -2980134.89144  23621268.9524   23621266.1834
      -275.6444
   5132251.59847   4004398.43442  24542685.1244   24542686.4874
     -2697.3014
  -7531123.37949  -5849095.36346  22025821.8434   22025820.7454
       522.7164
  10114750.24249   7876662.09846  22165245.2104   22165243.6794
     -3172.1224
  -1636235.88747  -1269677.10242  24321009.8194   24321010.2024
      -280.6924
  -5424337.01248  -4217743.78144  23786252.9994   23786252.3944
      1853.4324
    266372.65249    211910.94146  21770551.2654   21770549.8394
      -657.7564
 04  9 13 22  1 30.0030000  0  7G19G 3G 8G13G10G28G27
  -3821806.19148  -2976808.84044  23622081.2574   23622078.5584
      -284.5624
   5172838.96946   4036024.93442  24550408.5624   24550409.9874
     -2705.8254
  -7538909.63349  -5855162.56246  22024340.0464   22024339.1164
       519.0844
  10162439.63349   7913822.64146  22174320.2804   22174318.3974
     -3179.2934
  -1631882.43047  -1266284.80142  24321838.5384   24321838.5624
      -290.2304
  -5452072.34048  -4239355.68744  23780975.2024   23780974.3784
      1849.0224
    276286.43449    219635.95746  21772437.4834   21772436.2764
      -660.9194
 04  9 13 22  1 45.0030000  0  7G19G 3G 8G13G10G28G27
  -3817404.48448  -2973378.94144  23622918.7334   23622916.7694
      -293.4474
   5213553.36346   4067750.41042  24558156.7724   24558157.6834
     -2714.2934
  -7546641.69149  -5861187.54746  22022868.9834   22022867.7294
       515.4714
  10210235.92649   7951066.48046  22183415.5694   22183413.7144
     -3186.4204
  -1627386.30947  -1262781.34442  24322693.9914   24322693.9684
      -299.7414
  -5479741.89848  -4260916.35244  23775710.2024   23775709.0264
      1844.6374
    286247.12149    227397.53146  21774332.8434   21774331.2494
      -664.0464
 04  9 13 22  2  0.0030000  0  7G19G 3G 8G13G10G28G27
  -3812869.66048  -2969845.30544  23623781.8044   23623779.7224
      -302.3224
   5254394.23846   4099574.41442  24565927.8824   24565929.6324
     -2722.7254
  -7554320.12949  -5867170.73846  22021407.8824   22021406.0194
       511.8964
  10258138.54349   7988393.16846  22192531.0224   22192529.3474
     -3193.5084
  -1622747.88747  -1259166.99243  24323576.4524   24323576.7654
      -309.2284
  -5507345.83248  -4282425.88344  23770456.7884   23770455.7414
      1840.2624
    296254.41449    235195.41846  21776237.6324   21776235.8784
      -667.1534
 04  9 13 22  2 15.0030000  0  7G19G 3G 8G13G10G28G27
  -3808200.82048  -2966207.21944  23624670.2494   23624668.1364
      -311.2564
   5295362.32447   4131497.53542  24573723.7184   24573725.4134
     -2731.2064
  -7561943.65649  -5873111.14546  22019956.7264   22019955.3744
       508.2354
  10306148.14849   8025803.23045  22201667.1014   22201665.2804
     -3200.6404
  -1617966.25447  -1255441.05543  24324487.0074   24324486.8004
      -318.7764
  -5534883.32848  -4303883.64144  23765216.6084   23765215.6904
      1835.8334
    306309.21949    243030.32047  21778150.7494   21778149.0654
      -670.3204
 04  9 13 22  2 30.0030000  0  7G19G 3G 8G13G10G28G27
  -3803398.54348  -2962465.18044  23625584.0934   23625581.7024
      -320.1524
   5336456.46547   4163518.92242  24581544.3274   24581545.6944
     -2739.6094
  -7569513.31249  -5879009.57046  22018516.4444   22018515.3274
       504.6444
  10354263.88349   8063295.98446  22210822.9834   22210821.3944
     -3207.7164
  -1613042.21947  -1251604.14542  24325423.6714   24325423.9764
      -328.2694
  -5562354.97747  -4325290.09443  23759989.3124   23759987.9214
      1831.4434
    316410.84449    250901.71547  21780073.0854   21780071.2964
      -673.4424
 04  9 13 22  2 45.0030000  0  7G19G 3G 8G13G10G28G27
  -3798461.83648  -2958618.38744  23626523.7494   23626520.9404
      -329.1144
   5377677.27047   4195638.99642  24589388.7884   24589389.6084
     -2748.0544
  -7577028.12149  -5884865.26246  22017086.4524   22017085.1044
       500.9874
  10402486.32449   8100871.89145  22219999.3514   22219997.7264
     -3214.8294
  -1607974.95747  -1247655.64143  24326387.7414   24326387.8664
      -337.8174
  -5589759.81248  -4346644.47744  23754774.0154   23754773.5384
      1826.9894
    326559.99649    258810.13346  21782004.6874   21782002.8354
      -676.6104
 04  9 13 22  3  0.0030000  0  7G19G 3G 8G13G10G28G27
  -3793391.83648  -2954667.74244  23627488.1874   23627485.6944
      -338.0004
   5419023.43447   4227856.74642  24597256.4054   24597257.5774
     -2756.4114
  -7584489.47749  -5890679.29746  22015666.5854   22015664.8974
       497.4244
  10450814.12949   8138529.89845  22229196.0544   22229194.1284
     -3221.8544
  -1602765.57847  -1243596.39542  24327379.4684   24327379.2574
      -347.2924
  -5617098.99248  -4367947.69544  23749571.6404   23749570.8044
      1822.6124
    336755.57449    266754.73046  21783944.4444   21783942.9994
      -679.7054
 04  9 13 22  3 15.0040000  0  7G19G 3G 8G13G10G28G27
  -3788188.34448  -2950613.06244  23628478.5124   23628475.8014
      -346.8994
   5460497.20747   4260173.94143  24605148.5744   24605150.2154
     -2764.9184
  -7591897.81249  -5896452.02046  22014256.8324   22014255.4804
       493.8894
  10499250.26649   8176272.31645  22238412.9414   22238411.1414
     -3229.0764
  -1597414.02047  -1239426.35942  24328397.3404   24328397.5514
      -356.7714
  -5644374.32448  -4389201.16444  23744381.2854   23744380.5984
      1818.3554
    346998.04349    274735.86746  21785893.3484   21785892.0394
      -682.8314
 04  9 13 22  3 30.0040000  0  7G19G 3G 8G13G10G28G27
  -3782850.58648  -2946453.78544  23629494.3714   23629491.2504
      -355.8514
   5502094.07047   4292587.01242  24613064.5354   24613065.8674
     -2773.1244
  -7599251.00849  -5902181.78146  22012857.6604   22012856.5234
       490.2134
  10547789.26649   8214094.88346  22247649.7694   22247647.8054
     -3235.9334
  -1591919.71547  -1235145.10242  24329442.7074   24329443.4304
      -366.2874
  -5671580.80948  -4410400.98844  23739204.1604   23739203.3094
      1813.7664
    357287.33649    282753.49247  21787851.6764   21787849.9884
      -685.9534
 04  9 13 22  3 45.0040000  0  7G19G 3G 8G13G10G28G27
  -3777378.33648  -2942189.67244  23630535.8554   23630532.5744
      -364.8174
   5543816.32047   4325097.81342  24621003.8094   24621005.4184
     -2781.4834
  -7606549.75049  -5907869.10546  22011468.8324   22011467.3594
       486.5834
  10596433.90649   8251999.78146  22256906.7234   22256904.6914
     -3242.9764
  -1586282.52047  -1230752.48442  24330515.7464   24330516.0824
      -375.8134
  -5698720.38348  -4431548.68443  23734039.3944   23734038.5784
      1809.3054
    367623.94149    290807.98046  21789818.4264   21789817.2234
      -689.1074
 04  9 13 22  4  0.0040000  0  7G19G 3G 8G13G10G28G27
  -3771771.37548  -2937820.60544  23631602.8164   23631599.8124
      -373.7974
   5585663.65247   4357706.07442  24628966.9734   24628968.7934
     -2789.8224
  -7613793.80949  -5913513.82446  22010090.0194   22010088.9344
       482.9374
  10645184.11749   8289986.92646  22266183.6054   22266181.6444
     -3250.0144
  -1580502.41047  -1226248.52743  24331615.9414   24331615.9264
      -385.3414
  -5725792.87948  -4452644.10544  23728887.5984   23728886.8484
      1804.8334
    378007.89849    298899.37146  21791794.6374   21791793.0594
      -692.2644
 04  9 13 22  4 15.0040000  0  7G19G 3G 8G13G10G28G27
  -3766030.68748  -2933347.35244  23632695.1054   23632692.4344
      -382.7124
   5627634.94548   4390410.95342  24636954.1134   24636955.8094
     -2798.0864
  -7620984.22749  -5919116.74246  22008722.0274   22008720.4654
       479.3614
  10694038.64149   8328055.36745  22275480.0434   22275478.6174
     -3256.9684
  -1574580.33247  -1221633.92642  24332742.5124   24332742.7114
      -394.8054
  -5752799.35248  -4473688.07844  23723748.4964   23723747.4534
      1800.4324
    388438.41049    307027.03946  21793779.5514   21793778.0704
      -695.3674
 04  9 13 22  4 30.0040000  0  7G19G 3G 8G13G10G28G27
  -3760154.85948  -2928768.77744  23633813.1054   23633810.1684
      -391.7224
   5669731.36747   4423213.31642  24644964.2934   24644966.1214
     -2806.4284
  -7628119.84049  -5924676.96546  22007363.9264   22007362.7584
       475.7084
  10742998.79749   8366206.10945  22284796.9024   22284795.5594
     -3264.0104
  -1568514.84847  -1216907.58642  24333897.0194   24333896.4224
      -404.3664
  -5779738.11348  -4494679.28944  23718621.8874   23718620.8524
      1795.9174
    398916.66049    315191.89847  21795773.5744   21795771.8164
      -698.5504
 04  9 13 22  4 45.0040000  0  7G19G 3G 8G13G10G28G27
  -3754143.66848  -2924084.72344  23634956.8404   23634953.9374
      -400.7464
   5711952.66447   4456112.98042  24652999.4574   24653001.1644
     -2814.7534
  -7635200.29749  -5930194.19546  22006016.5514   22006015.5594
       472.0304
  10792064.30549   8404438.94545  22294133.8944   22294132.4264
     -3271.0344
  -1562306.14547  -1212069.64543  24335078.6134   24335078.3984
      -413.9144
  -5806609.19548  -4515617.76644  23713509.0984   23713507.3674
      1791.4054
    409442.72349    323394.02046  21797776.5124   21797774.9024
      -701.7374
 04  9 13 22  5  0.0040000  0  7G19G 3G 8G13G10G28G27
  -3747998.63348  -2919296.38344  23636126.5824   23636123.2774
      -409.6694
   5754296.92247   4489108.46142  24661057.2154   24661058.6604
     -2822.9514
  -7642227.19149  -5935669.69546  22004679.1914   22004678.2894
       468.4604
  10841233.38749   8442752.49645  22303490.7154   22303488.4734
     -3277.9394
  -1555955.73047  -1207121.29342  24336287.1524   24336286.8634
      -423.3614
  -5833413.98448  -4536504.59844  23708407.6134   23708406.9374
      1786.9864
    420014.98049    331632.13746  21799788.3244   21799786.9104
      -704.8174
 04  9 13 22  5 15.0040000  0  7G19G 3G 8G13G10G28G27
  -3741718.44548  -2914402.72344  23637321.4104   23637318.5164
      -418.6794
   5796765.21147   4522200.58242  24669138.5664   24669140.0624
     -2831.2194
  -7649199.34849  -5941102.53946  22003352.7234   22003351.2854
       464.8104
  10890507.21149   8481147.65645  22312866.9264   22312865.0744
     -3284.9224
  -1549462.27047  -1202061.46143  24337522.3944   24337522.6134
      -432.8974
  -5860151.19548  -4557338.75444  23703319.6994   23703319.3284
      1782.4814
    430634.78949    339907.30146  21801809.1604   21801807.5864
      -707.9874
 04  9 13 22  5 30.0040000  0  7G19G 3G 8G13G10G28G27
  -3735303.09848  -2909403.73844  23638542.5434   23638539.5474
      -427.6904
   5839357.08247   4555389.01242  24677243.8094   24677245.0984
     -2839.4584
  -7656116.70349  -5946492.68746  22002036.3014   22002034.9844
       461.1574
  10939885.44549   8519624.17645  22322263.4414   22322261.7624
     -3291.8824
  -1542826.04747  -1196890.39142  24338785.4344   24338785.3094
      -442.4154
  -5886820.81648  -4578120.24644  23698245.0434   23698243.9884
      1777.9754
    441302.05149    348219.44546  21803839.3484   21803837.5944
      -711.1514
 04  9 13 22  5 45.0040000  0  7G19G 3G 8G13G10G28G27
  -3728751.62148  -2904298.69544  23639789.1604   23639786.5744
      -436.7654
   5882073.10547   4588674.20742  24685371.9184   24685373.2974
     -2847.7354
  -7662978.67649  -5951839.67246  22000730.6524   22000729.4024
       457.4654
  10989368.78149   8558182.59045  22331679.7694   22331678.0944
     -3298.8894
  -1536046.08247  -1191607.30142  24340075.5984   24340075.6024
      -451.9984
  -5913421.71948  -4598848.18744  23693183.0824   23693182.1294
      1773.3934
    452017.56349    356569.19546  21805878.3944   21805876.8444
      -714.3674
 04  9 13 22  6  0.0040000  0  7G19G 3G 8G13G10G28G27
  -3722064.42648  -2899087.88744  23641061.8714   23641059.0514
      -445.8134
   5924912.52347   4622055.52342  24693524.0984   24693525.8204
     -2855.9614
  -7669785.43049  -5957143.63746  21999435.5274   21999434.0084
       453.7844
  11038956.41049   8596822.27045  22341116.2304   22341114.3164
     -3305.8424
  -1529122.95747  -1186212.67242  24341392.9104   24341393.0354
      -461.5424
  -5939954.44948  -4619523.00844  23688133.6994   23688133.1444
      1768.8494
    462780.92249    364956.21546  21807926.3094   21807925.0314
      -717.5574
 04  9 13 22  6 15.0040000  0  7G19G 3G 8G13G10G28G27
  -3715240.66048  -2893770.66844  23642359.8324   23642357.7274
      -454.9184
   5967875.77747   4655533.32842  24701699.5664   24701701.6374
     -2864.2174
  -7676536.59449  -5962404.27746  21998150.7854   21998149.4184
       450.0784
  11088648.91449   8635543.68045  22350572.1294   22350570.7934
     -3312.8344
  -1522056.09847  -1180706.04742  24342738.1524   24342738.0314
      -471.1244
  -5966418.34448  -4640144.19144  23683097.8324   23683096.8674
      1764.2604
    473592.78149    373381.04346  21809983.7304   21809982.3754
      -720.7914
 04  9 13 22  6 30.0040000  0  7G19G 3G 8G13G10G28G27
  -3708279.25848  -2888346.19944  23643684.9184   23643682.2854
      -464.0934
   6010963.66047   4689108.24242  24709899.0354   24709900.5554
     -2872.5264
  -7683230.84049  -5967620.57846  21996876.4964   21996875.2464
       446.2834
  11138447.32849   8674347.60545  22360048.6054   22360047.1414
     -3319.8944
  -1514844.27347  -1175086.46142  24344110.2624   24344110.6954
      -480.7884
  -5992812.07048  -4660710.69544  23678075.1134   23678074.2694
      1759.5824
    484454.16049    381844.44946  21812050.6684   21812049.0594
      -724.0924
 04  9 13 22  6 45.0040000  0  7G19G 3G 8G13G10G28G27
  -3701181.07048  -2882815.14144  23645035.4884   23645032.8094
      -473.2124
   6054175.04747   4722779.41442  24718121.5434   24718123.3984
     -2880.7594
  -7689869.03149  -5972793.18746  21995613.2154   21995612.0624
       442.5464
  11188350.28149   8713232.99645  22369544.6444   22369543.4574
     -3326.8644
  -1507488.55147  -1169354.73042  24345510.1134   24345510.1254
      -490.3824
  -6019136.55548  -4681223.25444  23673066.1604   23673065.0314
      1754.9664
    495364.22749    390345.79346  21814126.6374   21814125.3794
      -727.3384
 04  9 13 22  7  0.0040000  0  7G19G 3G 8G13G10G28G27
  -3693945.93048  -2877177.36744  23646411.9654   23646409.7774
      -482.3434
   6097509.75447   4756546.69542  24726367.8874   24726370.0314
     -2888.9804
  -7696451.26249  -5977922.18446  21994361.1684   21994359.8834
       438.8154
  11238357.56349   8752199.68445  22379060.9104   22379059.7114
     -3333.8194
  -1499988.87947  -1163510.84042  24346937.1684   24346936.9534
      -499.9784
  -6045391.61348  -4701681.71544  23668070.1524   23668068.7774
      1750.3374
    506323.05149    398885.12546  21816212.0274   21816210.9534
      -730.5884
 04  9 13 22  7 15.0040000  0  7G19G 3G 8G13G10G28G27
  -3686573.19948  -2871432.38744  23647815.1134   23647812.3094
      -491.5154
   6140967.93447   4790410.15642  24734637.9574   24734639.7344
     -2897.2124
  -7702976.89549  -5983007.10246  21993119.3484   21993118.0124
       435.0424
  11288469.52749   8791247.93445  22388596.9884   22388595.2464
     -3340.7984
  -1492344.75847  -1157554.39142  24348391.5984   24348392.0124
      -509.6084
  -6071576.62948  -4722085.58244  23663086.9104   23663085.9774
      1745.6684
    517331.14849    407462.86346  21818306.9024   21818305.8914
      -733.8734
 04  9 13 22  7 30.0040000  0  7G19G 3G 8G13G10G28G27
  -3679062.22348  -2865579.67244  23649244.1604   23649241.4104
      -500.7324
   6184550.14147   4824370.26242  24742931.9494   24742933.2894
     -2905.4804
  -7709445.26249  -5988047.38346  21991888.1844   21991886.9734
       431.2244
  11338686.74249   8830378.21145  22398153.0984   22398151.5594
     -3347.8144
  -1484555.57847  -1151484.91043  24349874.2074   24349873.8714
      -519.2794
  -6097690.84448  -4742434.28944  23658117.3164   23658116.2344
      1740.9484
    528389.23449    416079.54746  21820411.4654   21820409.6604
      -737.2064
 04  9 13 22  7 45.0040000  0  7G19G 3G 8G13G10G28G27
  -3671413.85948  -2859619.91444  23650699.9964   23650697.2344
      -509.8914
   6228254.94947   4858425.92642  24751248.3404   24751249.1054
     -2913.6544
  -7715857.47749  -5993043.91046  21990667.9104   21990666.7694
       427.4814
  11389008.05949   8869589.59445  22407729.1054   22407727.1134
     -3354.7544
  -1476622.32046  -1145303.16843  24351383.4964   24351383.6414
      -528.8844
  -6123735.12948  -4762728.51244  23653161.2234   23653159.8244
      1736.2864
    539496.25849    424734.36746  21822524.8244   21822523.3094
      -740.4684
 04  9 13 22  8  0.0040000  0  7G19G 3G 8G13G10G28G27
  -3663628.16048  -2853553.12144  23652181.6684   23652178.9374
      -519.0474
   6272081.97747   4892576.81342  24759588.5594   24759589.7154
     -2921.8024
  -7722213.66449  -5997996.78146  21989458.3554   21989457.0084
       423.7464
  11439433.10249   8908881.80945  22417324.5514   22417322.6764
     -3361.6704
  -1468545.15647  -1139009.28143  24352920.4344   24352920.5554
      -538.4784
  -6149709.49248  -4782968.24644  23648218.2234   23648217.5194
      1731.6244
    550652.24649    433427.34047  21824647.6604   21824646.0904
      -743.7334
 04  9 13 22  8 15.0040000  0  7G19G 3G 8G13G10G28G27
  -3655703.47347  -2847378.04344  23653689.6764   23653686.9374
      -528.3124
   6316032.52047   4926823.95342  24767952.2154   24767953.0164
     -2930.0364
  -7728512.01649  -6002904.58246  21988259.9654   21988258.4184
       419.8904
  11489963.11749   8948255.81645  22426940.0904   22426938.6024
     -3368.6684
  -1460322.68047  -1132602.16842  24354484.9884   24354484.8714
      -548.1654
  -6175612.38348  -4803152.28544  23643289.6294   23643288.4184
      1726.8594
    561858.62549    442159.57846  21826780.4344   21826778.9144
      -747.0924
 04  9 13 22  8 30.0040000  0  7G19G 3G 8G13G10G28G27
  -3647639.91448  -2841094.74644  23655224.2774   23655221.4264
      -537.5714
   6360106.27347   4961167.09042  24776339.8404   24776340.6994
     -2938.2504
  -7734752.62949  -6007767.39146  21987072.3484   21987070.9804
       416.0414
  11540598.00049   8987711.53945  22436575.6524   22436574.2544
     -3375.6594
  -1451954.94547  -1126081.86742  24356077.6374   24356077.4924
      -557.8494
  -6201443.73448  -4823280.58644  23638374.0514   23638372.7194
      1722.0904
    573115.29349    450931.00446  21828922.2774   21828920.7624
      -750.4454
 04  9 13 22  8 45.0040000  0  7G19G 3G 8G13G10G28G27
  -3639437.20748  -2834703.02744  23656784.7774   23656782.3944
      -546.8474
   6404303.00047   4995606.03542  24784749.8164   24784751.0124
     -2946.4484
  -7740935.31249  -6012585.06646  21985896.0194   21985894.8244
       412.1794
  11591337.58249   9027248.84845  22446231.0044   22446229.5904
     -3382.6394
  -1443441.76647  -1119448.23442  24357697.4654   24357698.1414
      -567.5454
  -6227203.33648  -4843352.97344  23633471.8014   23633471.0864
      1717.3074
    584422.53549    459741.83646  21831074.1764   21831072.5704
      -753.8164
 04  9 13 22  9  0.0040000  0  7G19G 3G 8G13G10G28G27
  -3631095.58248  -2828203.06644  23658372.4104   23658370.0124
      -556.1084
   6448622.14847   5030140.40242  24793183.7694   24793184.8054
     -2954.6104
  -7747060.70749  -6017358.10246  21984730.2154   21984728.9804
       408.3604
  11642181.24249   9066867.26245  22455906.1604   22455904.7774
     -3389.5774
  -1434783.66447  -1112701.66443  24359345.5194   24359345.2624
      -577.2074
  -6252891.47348  -4863369.67244  23628583.5904   23628582.6054
      1712.5424
    595779.85549    468591.69146  21833235.1684   21833233.7974
      -757.1554
 04  9 13 22  9 15.0040000  0  7G19G 3G 8G13G10G28G27
  -3622612.77048  -2821593.07444  23659986.6374   23659984.2734
      -565.5214
   6493065.66048   5064771.67242  24801640.9884   24801642.5744
     -2962.9014
  -7753126.20349  -6022084.46146  21983576.0744   21983574.5194
       404.3664
  11693131.11349   9106568.43045  22465601.7774   22465600.2544
     -3396.6584
  -1425978.29746  -1105840.34842  24361020.9414   24361020.8944
      -587.0244
  -6278505.82048  -4883328.87544  23623709.2234   23623708.1684
      1707.6234
    607189.68049    477482.45346  21835406.5664   21835404.9694
      -760.6554
 04  9 13 22  9 30.0040000  0  7G19G 3G 8G13G10G28G27
  -3613988.85548  -2814873.15244  23661627.8244   23661625.5984
      -574.9284
   6537633.09448   5099499.51242  24810122.2934   24810122.7384
     -2971.1624
  -7759132.09049  -6026764.37146  21982433.2544   21982431.7694
       400.3924
  11744186.81649   9146352.06645  22475317.2384   22475315.0664
     -3403.7144
  -1417025.99247  -1098864.53942  24362724.5744   24362724.6874
      -596.8204
  -6304046.49648  -4903230.67244  23618849.1134   23618848.2584
      1702.7124
    618651.73049    486413.91846  21837587.4734   21837586.0864
      -764.1374
 04  9 13 22  9 45.0040000  0  7G19G 3G 8G13G10G28G27
  -3605225.24248  -2808044.35944  23663295.1134   23663292.6294
      -584.2414
   6582322.91448   5134322.70742  24818625.8244   24818627.3594
     -2979.3214
  -7765079.77049  -6031398.92646  21981301.4414   21981299.9104
       396.5124
  11795346.72349   9186216.90245  22485052.7694   22485050.9184
     -3410.6604
  -1407928.19147  -1091775.35942  24364455.9804   24364456.1444
      -606.5204
  -6329514.71948  -4923076.01244  23614002.5044   23614001.8364
      1697.8824
    630164.72749    495385.08246  21839778.4024   21839777.0624
      -767.5334
 04  9 13 22 10  0.0040000  0  7G19G 3G 8G13G10G28G27
  -3596322.07048  -2801106.83244  23664989.7544   23664986.6174
      -593.5454
   6627134.50848   5169240.78142  24827153.6444   24827154.8244
     -2987.4404
  -7770969.42249  -6035988.26246  21980180.7934   21980179.2074
       392.6434
  11846610.46949   9226162.65245  22494808.1054   22494805.8404
     -3417.5834
  -1398685.07446  -1084572.93442  24366214.7384   24366214.7694
      -616.2084
  -6354910.64148  -4942865.00844  23609170.0044   23609168.8634
      1693.0614
    641728.41449    504395.73846  21841978.9964   21841977.5514
      -770.9124
 04  9 13 22 10 15.0040000  0  7G19G 3G 8G13G10G28G27
  -3587277.53548  -2794059.14144  23666710.5434   23666708.0354
      -602.9694
   6672069.28147   5204254.83642  24835704.4494   24835706.0234
     -2995.6524
  -7776799.30549  -6040531.02746  21979071.1524   21979069.5434
       388.6594
  11897979.42649   9266190.38345  22504582.8794   22504581.1994
     -3424.5974
  -1389295.04747  -1077256.05542  24368001.4494   24368001.5394
      -626.0024
  -6380232.55548  -4962596.35244  23604351.1844   23604350.0394
      1688.1284
    653344.59449    513447.30946  21844189.7154   21844188.3714
      -774.4124
 04  9 13 22 10 30.0040000  0  7G19G 3G 8G13G10G28G27
  -3578092.39548  -2786901.89144  23668458.0664   23668455.7974
      -612.3434
   6717126.11347   5239364.00042  24844277.5744   24844280.4844
     -3003.7894
  -7782570.32849  -6045027.93446  21977973.1374   21977971.8984
       384.7354
  11949452.53949   9306299.27745  22514378.0594   22514376.3984
     -3431.5414
  -1379759.00046  -1069825.36343  24369816.0274   24369816.1414
      -635.7364
  -6405481.19148  -4982270.58644  23599546.7234   23599545.8054
      1683.2424
    665012.25849    522538.98446  21846409.9344   21846408.4414
      -777.8444
 04  9 13 22 10 45.0040000  0  7G19G 3G 8G13G10G28G27
  -3568766.75448  -2779635.14844  23670232.9804   23670230.7274
      -621.7094
   6762304.61347   5274567.98442  24852875.4104   24852877.0664
     -3011.9004
  -7788282.58249  -6049479.03546  21976885.9654   21976884.7544
       380.8174
  12001029.50049   9346489.08645  22524192.9734   22524191.3204
     -3438.4644
  -1370077.14846  -1062281.07042  24371658.6374   24371658.8014
      -645.4574
  -6430656.47748  -5001887.65244  23594755.7234   23594754.8244
      1678.3524
    676731.37149    531670.75046  21848639.9414   21848638.5434
      -781.2744
 04  9 13 22 11  0.0040000  0  7G19G 3G 8G13G10G28G27
  -3559301.82848  -2772259.89544  23672034.1604   23672031.7464
      -630.9954
   6807603.07047   5309865.42242  24861495.5274   24861497.2234
     -3019.8974
  -7793937.25449  -6053885.27346  21975810.1054   21975808.9264
       376.9784
  12052708.86749   9386758.69145  22534027.1764   22534025.7894
     -3445.2914
  -1360250.78947  -1054624.17643  24373528.4414   24373528.6764
      -655.0914
  -6455759.68748  -5021448.58244  23589978.8014   23589977.9964
      1673.5474
    688500.57849    540841.55946  21850879.3634   21850878.1094
      -784.6144
 04  9 13 22 11 15.0040000  0  7G19G 3G 8G13G10G28G27
  -3549697.68048  -2764776.14144  23673861.5274   23673859.4304
      -640.2774
   6853021.27747   5345256.16842  24870137.6994   24870140.0274
     -3027.8804
  -7799534.34449  -6058246.63746  21974745.0744   21974743.8984
       373.1394
  12104490.37549   9427107.89845  22543880.8944   22543879.1134
     -3452.1014
  -1350280.01247  -1046854.74242  24375425.6914   24375425.9064
      -664.7184
  -6480790.81648  -5040953.32444  23585215.6604   23585214.9774
      1668.7424
    700319.91449    550051.42646  21853128.6684   21853127.1954
      -787.9564
 04  9 13 22 11 30.0040000  0  7G19G 3G 8G13G10G28G27
  -3539952.99248  -2757182.88344  23675715.8554   23675713.2774
      -649.6464
   6898559.99647   5380740.81642  24878803.7624   24878805.6334
     -3035.9154
  -7805072.74649  -6062562.27346  21973691.0354   21973689.8944
       369.2274
  12156374.83649   9467537.31345  22553754.1914   22553752.2194
     -3458.9644
  -1340163.78946  -1038971.98843  24377350.6994   24377350.8754
      -674.4154
  -6505748.64148  -5060400.94544  23580466.3014   23580465.2894
      1663.8554
    712190.64549    559301.33646  21855387.5904   21855385.9884
      -791.3824
 04  9 13 22 11 45.0040000  0  7G19G 3G 8G13G10G28G27
  -3530068.80548  -2749480.92244  23677596.7544   23677594.1684
      -658.9464
   6944218.02047   5416318.44142  24887491.9264   24887494.1874
     -3043.8684
  -7810553.48049  -6066832.97746  21972648.0984   21972646.6484
       365.3824
  12208361.05149   9508046.02045  22563647.0194   22563645.3124
     -3465.7484
  -1329903.18047  -1030976.72743  24379303.3944   24379303.7424
      -684.0414
  -6530634.10948  -5079792.19944  23575730.8404   23575729.8094
      1659.0314
    724111.59049    568590.38347  21857656.1604   21857654.5354
      -794.7304
 04  9 13 22 12  0.0040000  0  7G19G 3G 8G13G10G28G27
  -3520046.53147  -2741671.37144  23679504.5664   23679501.6564
      -668.1524
   6989993.46547   5451987.55542  24896203.3014   24896205.0514
     -3051.6964
  -7815977.95349  -6071059.83246  21971615.8244   21971614.4574
       361.6324
  12260447.30149   9548632.68045  22573558.7304   22573556.9184
     -3472.4174
  -1319499.73047  -1022870.15642  24381283.2544   24381283.1684
      -693.5634
  -6555448.64848  -5099128.18444  23571008.8634   23571007.4454
      1654.3034
    736081.38749    577917.48446  21859934.0744   21859932.0394
      -797.9864
 04  9 13 22 12 15.0040000  0  7G19G 3G 8G13G10G28G27
  -3509885.66848  -2733753.82444  23681437.7774   23681434.8594
      -677.3914
   7035886.61347   5487748.43442  24904936.6214   24904937.8124
     -3059.5434
  -7821345.78149  -6075242.56246  21970594.4024   21970592.9104
       357.8554
  12312633.91049   9589297.53545  22583489.6684   22583487.8794
     -3479.1074
  -1308952.98047  -1014651.93442  24383290.1054   24383290.7854
      -703.1174
  -6580191.67248  -5118408.42244  23566300.2154   23566299.1724
      1649.5354
    748100.59849    587283.10246  21862221.2624   21862219.4344
      -801.2814
 04  9 13 22 12 30.0040000  0  7G19G 3G 8G13G10G28G27
  -3499586.14148  -2725728.22744  23683397.7464   23683395.4344
      -686.6354
   7081897.20747   5523600.78942  24913692.6134   24913693.6524
     -3067.3734
  -7826656.84449  -6079381.04746  21969583.6994   21969582.4734
       354.0714
  12364920.61349   9630040.39845  22593439.0124   22593437.6024
     -3485.7804
  -1298262.93047  -1006322.03942  24385324.2694   24385324.5194
      -712.6704
  -6604863.01248  -5137632.82444  23561605.1684   23561604.0084
      1644.7564
    760169.18449    596687.18846  21864517.6294   21864516.0824
      -804.5724
 04  9 13 22 12 45.0040000  0  7G19G 3G 8G13G10G28G27
  -3489148.27048  -2717594.82044  23685383.9184   23685381.3404
      -695.8584
   7128024.49247   5559544.05942  24922469.7934   24922471.3674
     -3075.1524
  -7831911.42649  -6083475.52046  21968583.5124   21968582.4144
       350.3054
  12417306.89149   9670860.84845  22603408.1054   22603406.8364
     -3492.4184
  -1287430.15247   -997880.93043  24387385.5664   24387385.9454
      -722.1854
  -6629463.00048  -5156801.62544  23556924.0434   23556923.0984
      1639.9994
    772286.78949    606129.47346  21866823.5354   21866821.8444
      -807.8404
 04  9 13 22 13  0.0040000  0  7G19G 3G 8G13G10G28G27
  -3478571.39848  -2709353.12544  23687396.8554   23687394.1914
      -705.1254
   7174268.90647   5595578.59442  24931270.2074   24931272.3364
     -3082.9614
  -7837108.94149  -6087525.53146  21967594.6444   21967593.4924
       346.5014
  12469793.22349   9711759.25845  22613395.9804   22613394.5314
     -3499.0894
  -1276454.10547   -989328.18043  24389474.5274   24389474.7854
      -731.7364
  -6653990.84448  -5175914.20344  23552256.4654   23552255.6914
      1635.1904
    784454.01649    615610.41846  21869138.9184   21869137.6604
      -811.1484
 04  9 13 22 13 15.0040000  0  7G19G 3G 8G13G10G28G27
  -3467855.87148  -2701003.37144  23689435.5194   23689432.7814
      -714.3684
   7220629.60947   5631703.77042  24940092.6764   24940094.1684
     -3090.7144
  -7842249.89849  -6091531.46946  21966616.3874   21966615.1414
       342.7304
  12522378.83649   9752735.03145  22623402.8094   22623401.0004
     -3505.7084
  -1265335.14147   -980664.07043  24391590.2464   24391590.6604
      -741.2644
  -6678446.98448  -5194970.91044  23547602.8164   23547601.4104
      1630.4094
    796670.55949    625129.79346  21871463.6134   21871462.1374
      -814.4364
 04  9 13 22 13 30.0040000  0  7G19G 3G 8G13G10G28G27
  -3457000.59048  -2692544.71544  23691502.0354   23691499.1214
      -723.6854
   7267107.39847   5667920.18842  24948936.4264   24948938.3674
     -3098.5194
  -7847332.94549  -6095492.28146  21965648.9494   21965648.1174
       338.8704
  12575064.68049   9793788.90645  22633428.6134   22633426.7814
     -3512.3904
  -1254072.29748   -971887.84843  24393733.1524   24393733.7974
      -750.8564
  -6702830.31248  -5213970.87944  23542962.9494   23542961.3944
      1625.5554
    808937.41449    634688.37546  21873798.1684   21873796.5864
      -817.7904
 04  9 13 22 13 45.0040000  0  7G19G 3G 8G13G10G28G27
  -3446007.11748  -2683978.37944  23693593.6914   23693590.9654
      -732.8984
   7313700.39147   5704226.34842  24957803.6134   24957804.7584
     -3106.1994
  -7852359.97749  -6099409.44946  21964692.6214   21964691.2234
       335.1354
  12627848.76649   9834919.33645  22643472.5594   22643471.4414
     -3518.9394
  -1242667.43047   -963000.94542  24395903.7464   24395904.3094
      -760.3244
  -6727142.44548  -5232915.38344  23538336.3794   23538335.0394
      1620.8094
    821252.94149    644284.87946  21876141.5274   21876140.0474
      -821.0354
 04  9 13 22 14  0.0040000  0  7G19G 3G 8G13G10G28G27
  -3434875.55948  -2675304.44544  23695711.6524   23695709.5394
      -742.1044
   7360408.12147   5740621.94542  24966691.5434   24966692.8014
     -3113.8494
  -7857331.06649  -6103283.02746  21963746.4574   21963745.3284
       331.4064
  12680730.81349   9876126.09045  22653536.0984   22653534.6174
     -3525.4704
  -1231120.60547   -954003.43742  24398101.4024   24398101.5234
      -769.7884
  -6751383.35548  -5251804.37144  23533723.2624   23533722.0704
      1616.0614
    833617.06649    653919.25446  21878494.2694   21878492.7774
      -824.2754
 04  9 13 22 14 15.0040000  0  7G19G 3G 8G13G10G28G27
  -3423605.11348  -2666522.28544  23697856.8244   23697854.0314
      -751.3634
   7407231.12547   5777107.34442  24975601.4884   24975603.2854
     -3121.5344
  -7862245.21549  -6107112.23846  21962811.5354   21962810.1874
       327.6104
  12733711.32449   9917409.58245  22663618.0354   22663616.5624
     -3532.0344
  -1219431.12148   -944894.77743  24400325.6374   24400325.8444
      -779.2994
  -6775552.18048  -5270637.19944  23529124.1604   23529122.7894
      1611.2554
    846030.66049    663592.18047  21880856.6684   21880855.1414
      -827.5734
 04  9 13 22 14 30.0040000  0  7G19G 3G 8G13G10G28G27
  -3412195.57447  -2657631.73844  23700027.4024   23700024.7894
      -760.6364
   7454169.29747   5813682.47742  24984533.5594   24984535.2074
     -3129.2114
  -7867102.42649  -6110897.07446  21961887.0194   21961885.7424
       323.8144
  12786790.22349   9958769.73045  22673718.8794   22673717.0904
     -3538.5934
  -1207598.86347   -935674.85543  24402577.4804   24402577.6644
      -788.8174
  -6799648.66048  -5289413.64844  23524538.6844   23524537.6764
      1606.4324
    858493.81649    673303.72346  21883228.3324   21883226.8324
      -830.8774
 04  9 13 22 14 45.0040000  0  7G19G 3G 8G13G10G28G27
  -3400647.48848  -2648633.23044  23702225.0124   23702222.4574
      -769.8724
   7501221.84047   5850346.73042  24993487.0824   24993489.3594
     -3136.8364
  -7871903.19149  -6114637.93046  21960973.6914   21960972.1484
       320.0514
  12839966.87149  10000206.05145  22683837.7624   22683835.9494
     -3545.1104
  -1195624.45747   -926344.16442  24404856.0274   24404856.4024
      -798.2944
  -6823673.12548  -5308133.98444  23519966.9964   23519965.7774
      1601.6314
    871006.11349    683053.55946  21885608.9264   21885607.6094
      -834.1534
 04  9 13 22 15  0.0040000  0  7G19G 3G 8G13G10G28G27
  -3388960.30948  -2639526.35544  23704449.1914   23704446.6724
      -779.1454
   7548388.80947   5887100.13742  25002463.4024   25002464.8524
     -3144.4654
  -7876646.84049  -6118334.28546  21960070.7234   21960069.4184
       316.2434
  12893241.53549  10041718.74645  22693975.4964   22693974.1764
     -3551.6444
  -1183507.49246   -916902.39543  24407162.0514   24407161.8674
      -807.7984
  -6847625.26648  -5326797.96944  23515408.9414   23515407.6684
      1596.8094
    883568.05549    692842.07846  21887999.5984   21887998.4064
      -837.4634
 04  9 13 22 15 15.0040000  0  7G19G 3G 8G13G10G28G27
  -3377134.57448  -2630311.50044  23706699.3714   23706696.9264
      -788.3824
   7595669.22347   5923941.95742  25011460.1764   25011462.2074
     -3152.0284
  -7881333.92249  -6121986.55946  21959178.8944   21959177.8404
       312.4724
  12946613.28949  10083307.09045  22704132.0744   22704130.2234
     -3558.1174
  -1171248.64145   -907350.07443  24409494.6764   24409495.0394
      -817.2574
  -6871505.42248  -5345405.85244  23510865.0594   23510863.6524
      1592.0104
    896178.98049    702668.77046  21890399.5124   21890398.2074
      -840.7284
 04  9 13 22 15 30.0040000  0  7G19G 3G 8G13G10G28G27
  -3365170.91048  -2620989.17644  23708976.1684   23708973.6484
      -797.5784
   7643062.28147   5960871.52042  25020479.1844   25020481.1724
     -3159.5374
  -7885965.32849  -6125595.44146  21958297.5824   21958296.3714
       308.7604
  13000081.20749  10124970.37945  22714306.6844   22714305.1024
     -3564.5284
  -1158848.66845   -897687.76643  24411854.2694   24411854.8914
      -826.6654
  -6895314.26248  -5363958.17244  23506334.3404   23506332.4734
      1587.2564
    908838.16048    712533.05546  21892808.5124   21892806.9454
      -843.9454
 04  9 13 22 15 45.0040000  0  7G19G 3G 8G13G10G28G27
  -3353068.27747  -2611558.55544  23711279.3944   23711276.3984
      -806.8424
   7690568.72347   5997889.46542  25029519.0194   25029521.3754
     -3167.0964
  -7890539.96149  -6129160.09046  21957426.9734   21957425.7734
       304.9764
  13053646.06649  10166709.20345  22724499.4494   22724497.7344
     -3570.9914
  -1146306.67246   -887914.79743  24414240.6844   24414241.1684
      -836.1334
  -6919050.74648  -5382454.11344  23501816.8634   23501815.5194
      1582.4324
    921546.81348    722435.89147  21895226.6914   21895225.8054
      -847.2434
 04  9 13 22 16  0.0040000  0  7G19G 3G 8G13G10G28G27
  -3340826.25048  -2602019.32844  23713608.6294   23713605.8634
      -816.1354
   7738188.64847   6034995.82442  25038580.4804   25038582.9614
     -3174.6624
  -7895057.40249  -6132680.18046  21956567.2304   21956566.4414
       301.1634
  13107308.16049  10208523.78545  22734711.3634   22734709.6024
     -3577.4734
  -1133622.28545   -878030.87943  24416654.5124   24416654.5744
      -845.6264
  -6942714.37948  -5400893.28544  23497314.2854   23497312.8054
      1577.5764
    934305.28548    732377.55147  21897654.5824   21897653.0904
      -850.5654
 04  9 13 22 16 15.0040000  0  7G19G 3G 8G13G10G28G27
  -3328445.10548  -2592371.68444  23715964.9264   23715962.4024
      -825.4104
   7785921.42647   6072190.09842  25047664.7934   25047666.6844
     -3182.1854
  -7899517.71949  -6136155.75046  21955718.5594   21955717.4844
       297.3544
  13161066.86349  10250413.64845  22744941.1374   22744939.7664
     -3583.9144
  -1120795.87946   -868036.29743  24419095.6524   24419095.3674
      -855.0944
  -6966305.35948  -5419275.85244  23492824.9574   23492823.5904
      1572.7324
    947113.41049    742357.89847  21900091.7934   21900090.6954
      -853.8754
 04  9 13 22 16 30.0040000  0  7G19G 3G 8G13G10G28G27
  -3315926.10248  -2582616.64144  23718347.1844   23718344.3754
      -834.6004
   7833765.39847   6109471.04342  25056769.1294   25056770.4344
     -3189.5984
  -7903922.27749  -6139587.87546  21954880.3324   21954879.1804
       293.6374
  13214920.74649  10292377.68045  22755189.3404   22755187.5624
     -3590.2594
  -1107828.92646   -857932.20743  24421562.5824   24421563.2974
      -864.4644
  -6989824.93048  -5437602.76644  23488349.7694   23488348.1724
      1567.9714
    959969.72749    752375.79347  21902538.4654   21902536.9574
      -857.0884
 04  9 13 22 16 45.0040000  0  7G19G 3G 8G13G10G28G27
  -3303268.20748  -2572753.34444  23720755.7384   23720752.9534
      -843.8604
   7881721.29347   6146839.18042  25065894.2384   25065896.4304
     -3197.0604
  -7908270.13749  -6142975.81646  21954053.3944   21954051.8554
       289.8574
  13268870.50449  10334416.42645  22765455.4574   22765454.3204
     -3596.6514
  -1094720.45345   -847717.82843  24424057.5904   24424057.8284
      -873.8984
  -7013271.97348  -5455873.17244  23483887.5744   23483886.2894
      1563.1364
    972875.37948    762432.14146  21904994.3164   21904993.2114
      -860.3774
 04  9 13 22 17  0.0040000  0  7G19G 3G 8G13G10G28G27
  -3290470.39848  -2562781.02344  23723191.0274   23723188.2304
      -853.1874
   7929789.85547   6184295.14542  25075041.2774   25075043.2384
     -3204.5714
  -7912560.17249  -6146318.69146  21953236.7854   21953235.5704
       286.0024
  13322916.96149  10376530.51645  22775740.1994   22775739.0474
     -3603.0974
  -1081469.56646   -837392.47343  24426579.1994   24426579.3834
      -883.3924
  -7036645.39848  -5474086.20744  23479439.3794   23479438.3284
      1558.2284
    985831.35948    772527.70746  21907459.9024   21907458.5664
      -863.7324
 04  9 13 22 17 15.0040000  0  7G19G 3G 8G13G10G28G27
  -3277533.06648  -2552699.98044  23725653.2544   23725650.2734
      -862.4894
   7977970.30547   6221838.27742  25084210.0124   25084212.5124
     -3212.0304
  -7916792.75449  -6149616.81246  21952431.5194   21952430.0664
       282.1724
  13377059.39149  10418719.39545  22786043.0664   22786041.8404
     -3609.4954
  -1068076.75846   -826956.54342  24429127.5274   24429128.2584
      -892.8544
  -7059945.57048  -5492242.16044  23475005.9654   23475004.3594
      1553.3454
    998837.36349    782662.24646  21909934.7854   21909933.2624
      -867.0674
 04  9 13 22 17 30.0040000  0  7G19G 3G 8G13G10G28G27
  -3264456.82848  -2542510.71544  23728141.3014   23728138.7344
      -871.7494
   8026261.75847   6259467.92242  25093400.6684   25093401.9534
     -3219.4304
  -7920968.48849  -6152870.63746  21951636.6214   21951635.0274
       278.3824
  13431296.99249  10460982.42645  22796364.4024   22796362.9694
     -3615.8404
  -1054542.80147   -816410.61342  24431703.3324   24431703.0704
      -902.2644
  -7083173.04748  -5510341.47344  23470585.5904   23470584.3164
      1548.4984
   1011892.62549    792835.17246  21912419.0664   21912417.7854
      -870.3514
 04  9 13 22 17 45.0040000  0  7G19G 3G 8G13G10G28G27
  -3251240.71948  -2532212.45744  23730656.1604   23730653.7234
      -881.0744
   8074664.75447   6297184.50442  25102611.1684   25102612.1334
     -3226.8664
  -7925086.42249  -6156079.41846  21950853.1844   21950851.8364
       274.5294
  13485630.47749  10503320.17245  22806703.6844   22806702.1844
     -3622.2324
  -1040866.78947   -805754.00043  24434305.6914   24434305.6024
      -911.7344
  -7106326.73448  -5528383.28144  23466179.5744   23466178.5004
      1543.5794
   1024998.34049    803047.40647  21914913.1914   21914911.6134
      -873.7144
 04  9 13 22 18  0.0040000  0  7G19G 3G 8G13G10G28G27
  -3237885.35248  -2521805.68044  23733197.7694   23733194.9734
      -890.3584
   8123178.31347   6334987.20342  25111842.7154   25111844.1484
     -3234.2374
  -7929147.12949  -6159243.59846  21950080.2304   21950079.0984
       270.7144
  13540059.01649  10545731.98845  22817060.8094   22817059.6914
     -3628.5694
  -1027049.42247   -794987.23443  24436935.1914   24436935.4414
      -921.1584
  -7129407.33648  -5546368.14844  23461787.7854   23461786.3674
      1538.7074
   1038153.65249    813298.28946  21917416.5594   21917415.0084
      -877.0214
 04  9 13 22 18 15.0040000  0  7G19G 3G 8G13G10G28G27
  -3224391.38748  -2511290.90244  23735765.5124   23735762.7734
      -899.5984
   8171801.50047   6372875.32842  25121095.3634   25121097.2034
     -3241.5464
  -7933151.41849  -6162363.82846  21949318.3404   21949316.6994
       266.9534
  13594581.60249  10588217.09445  22827436.3324   22827435.0194
     -3634.8394
  -1013091.55147   -784110.98443  24439591.2854   24439591.8834
      -930.5254
  -7152415.52048  -5564296.58644  23457409.0904   23457407.5084
      1533.8794
   1051357.97749    823587.36746  21919929.1524   21919927.6874
      -880.2884
 04  9 13 22 18 30.0040000  0  7G19G 3G 8G13G10G28G27
  -3210756.98047  -2500666.68444  23738359.7934   23738357.5164
      -908.9604
   8220536.07447   6410850.25842  25130369.3244   25130371.6604
     -3248.9724
  -7937097.36349  -6165438.59446  21948567.6604   21948566.1564
       263.0634
  13649199.83249  10630776.72345  22837829.8094   22837827.9414
     -3641.2154
   -998991.35946   -773123.83643  24442274.3244   24442274.8164
      -940.0134
  -7175349.24248  -5582166.99644  23453045.2624   23453043.7734
      1528.9154
   1064613.24649    833916.14546  21922451.5514   21922450.1914
      -883.6854
 04  9 13 22 18 45.0040000  0  7G19G 3G 8G13G10G28G27
  -3196983.30147  -2489933.96544  23740980.9654   23740978.5984
      -918.2454
   8269380.37947   6448910.70342  25139664.0194   25139666.2274
     -3256.2874
  -7940986.01249  -6168468.70746  21947827.0664   21947826.2074
       259.2434
  13703912.26649  10673409.75445  22848241.4964   22848240.0044
     -3647.4964
   -984750.30947   -762026.94143  24444984.0744   24444984.7544
      -949.4034
  -7198209.75848  -5599980.36744  23448694.9964   23448693.7384
      1524.0344
   1077918.23048    844283.64846  21924983.3324   21924981.8834
      -886.9994
 04  9 13 22 19  0.0040000  0  7G19G 3G 8G13G10G28G27
  -3183070.48447  -2479092.81244  23743628.8014   23743625.9344
      -927.5214
   8318334.00447   6487056.32442  25148979.3484   25148981.1994
     -3263.5754
  -7944817.39849  -6171454.20746  21947098.3714   21947096.7154
       255.4264
  13758718.61749  10716115.96945  22858670.8554   22858669.6644
     -3653.7574
   -970368.37148   -750820.25843  24447721.1134   24447721.5194
      -958.7964
  -7220996.93748  -5617736.59444  23444358.6684   23444357.2464
      1519.1454
   1091272.88348    854689.86746  21927524.7854   21927523.1024
      -890.3104
 04  9 13 22 19 15.0040000  0  7G19G 3G 8G13G10G28G27
  -3169018.41048  -2468143.14844  23746302.0984   23746300.1444
      -936.8054
   8367396.69947   6525286.93042  25158316.0044   25158317.2974
     -3270.8464
  -7948591.74649  -6174395.26646  21946380.2694   21946378.8794
       251.6234
  13813618.77049  10758895.27345  22869118.0274   22869116.7344
     -3660.0104
   -955845.77346   -739503.97343  24450484.1524   24450485.5394
      -968.1734
  -7243710.76248  -5635435.66044  23440036.3714   23440034.8164
      1514.2554
   1104677.35949    865134.91046  21930075.4264   21930074.0354
      -893.6324
 04  9 13 22 19 30.0040000  0  7G19G 3G 8G13G10G28G27
  -3154825.69548  -2457083.90244  23749003.3794   23749000.4694
      -946.1814
   8416569.37947   6563603.21942  25167673.3014   25167675.3014
     -3278.1794
  -7952307.43449  -6177290.59847  21945673.1994   21945671.7814
       247.7134
  13868613.93049  10801748.61345  22879583.2384   22879581.9264
     -3666.3444
   -941181.28146   -728077.11342  24453275.3794   24453275.7664
      -977.6334
  -7266349.81648  -5653076.45744  23435728.0984   23435726.9924
      1509.2704
   1118132.88749    875619.72746  21932636.2074   21932634.5864
      -897.0354
 04  9 13 22 19 45.0040000  0  7G19G 3G 8G13G10G28G27
  -3140493.68048  -2445916.09444  23751730.9414   23751728.2194
      -955.4684
   8465850.60947   6602004.13342  25177050.9964   25177053.2694
     -3285.4154
  -7955965.55949  -6180141.08646  21944976.9574   21944975.6994
       243.8754
  13923702.44149  10844674.69145  22890066.4804   22890064.9414
     -3672.5674
   -926376.12947   -716540.64542  24456092.9024   24456092.8914
      -987.0104
  -7288915.18048  -5670659.84044  23431433.9414   23431432.7304
      1504.3584
   1131638.30949    886143.42646  21935206.2074   21935204.6334
      -900.3614
 04  9 13 22 20  0.0040000  0  7G19G 3G 8G13G10G28G27
  -3126023.48048  -2434640.61344  23754484.9024   23754481.9104
      -964.6804
   8515238.84847   6640488.37942  25186449.6054   25186451.5314
     -3292.5494
  -7959567.49649  -6182947.79746  21944291.4884   21944290.1874
       240.1294
  13978882.86749  10887672.39545  22900566.4104   22900565.3204
     -3678.6954
   -911431.62948   -704895.60243  24458936.7854   24458937.1054
      -996.3004
  -7311408.00448  -5688186.69944  23427153.7154   23427152.5744
      1499.5224
   1145192.60249    896705.20346  21937785.2464   21937783.6644
      -903.6204
 04  9 13 22 20 15.0040000  0  7G19G 3G 8G13G10G28G27
  -3111414.04748  -2423256.64544  23757264.7384   23757261.6564
      -973.9624
   8564734.73847   6679056.53542  25195867.6914   25195870.8324
     -3299.7264
  -7963112.15249  -6185709.86746  21943617.0664   21943615.2074
       236.3104
  14034155.90649  10930742.25445  22911084.9654   22911083.3444
     -3684.8694
   -896346.85548   -693141.24243  24461806.9264   24461807.3554
     -1005.6524
  -7333827.20348  -5705656.18044  23422887.7464   23422886.2154
      1494.6134
   1158796.59849    907305.71947  21940374.2624   21940372.8054
      -906.9334
 04  9 13 22 20 30.0040000  0  7G19G 3G 8G13G10G28G27
  -3096664.77748  -2411763.71144  23760071.1994   23760068.3874
      -983.2854
   8614338.48447   6717708.72742  25205308.2774   25205310.4024
     -3306.9164
  -7966598.92649  -6188426.82847  21942953.5664   21942952.1764
       232.4524
  14089522.00849  10973884.64145  22921620.9734   22921619.2344
     -3691.0734
   -881121.41847   -681277.28143  24464704.4414   24464704.6134
     -1015.0294
  -7356172.14148  -5723067.80544  23418635.8484   23418634.1484
      1489.6624
   1172450.95749    917945.46546  21942972.5434   21942971.0394
      -910.2914
 04  9 13 22 20 45.0040000  0  7G19G 3G 8G13G10G28G27
  -3081775.35948  -2400161.57044  23762904.5594   23762901.8204
      -992.6284
   8664050.30947   6756445.14842  25214767.1844   25214769.8444
     -3314.1224
  -7970027.38349  -6191098.35246  21942301.2234   21942299.7894
       228.5644
  14144981.35548  11017099.68845  22932174.0274   22932172.6604
     -3697.2904
   -865754.95746   -669303.43743  24467628.8484   24467628.8164
     -1024.4314
  -7378442.39848  -5740421.23444  23414397.6054   23414396.3914
      1484.6844
   1186156.29749    928624.94946  21945580.3324   21945579.3054
      -913.6894
 04  9 13 22 21  0.0040000  0  7G19G 3G 8G13G10G28G27
  -3066747.05947  -2388451.21144  23765764.7934   23765761.9184
     -1001.8874
   8713868.69947   6795264.60942  25224247.4964   25224250.8594
     -3321.2264
  -7973398.66449  -6193725.33246  21941659.7074   21941658.0394
       224.7524
  14200532.38749  11060386.16445  22942745.2304   22942743.6024
     -3703.4024
   -850248.89846   -657220.79743  24470579.3944   24470579.4844
     -1033.7374
  -7400639.19948  -5757717.41844  23410173.7694   23410172.4184
      1479.7874
   1199911.16049    939343.02046  21948197.9804   21948196.5904
      -916.9914
 04  9 13 22 21 15.0040000  0  7G19G 3G 8G13G10G28G27
  -3051579.26248  -2376632.16444  23768650.6214   23768648.0744
     -1011.1864
   8763793.66847   6834167.12543  25233748.6994   25233750.7274
     -3328.3314
  -7976712.30949  -6196307.39146  21941029.1294   21941027.6644
       220.9104
  14256175.36348  11103744.29345  22953334.0824   22953332.3714
     -3709.5324
   -834602.83647   -645029.07443  24473556.7234   24473556.5824
     -1043.0714
  -7422762.05148  -5774955.98844  23405963.6914   23405962.5354
      1474.8574
   1213716.15649    950100.14546  21950824.8014   21950823.7344
      -920.3334
 04  9 13 22 21 30.0040000  0  7G19G 3G 8G13G10G28G27
  -3036271.17248  -2364703.78544  23771563.4964   23771561.1764
     -1020.5394
   8813825.89548   6873153.20342  25243269.5984   25243271.4924
     -3335.4824
  -7979967.23849  -6198843.70346  21940409.6444   21940408.4144
       216.9954
  14311910.96949  11147174.60545  22963940.0744   22963938.4654
     -3715.7074
   -818815.87547   -632727.57042  24476560.9654   24476561.1254
     -1052.4644
  -7444809.84048  -5792136.07044  23401768.3014   23401766.9454
      1469.8534
   1227572.14549    960897.02047  21953461.6054   21953460.5314
      -923.7334
 04  9 13 22 21 45.0040000  0  7G19G 3G 8G13G10G28G27
  -3020823.76648  -2352666.84444  23774502.9414   23774501.0234
     -1029.8274
   8863964.09847   6912221.86742  25252809.9964   25252812.7894
     -3342.5474
  -7983164.51249  -6201335.08646  21939801.3484   21939799.6874
       213.1524
  14367737.94148  11190676.09845  22974563.3244   22974562.2194
     -3721.7984
   -802889.24246   -620317.21943  24479591.5664   24479591.8674
     -1061.7764
  -7466783.46148  -5809258.34844  23397586.9414   23397585.6414
      1464.9084
   1241478.28949    971732.96547  21956108.0594   21956106.4304
      -927.0764
 04  9 13 22 22  0.0040000  0  7G19G 3G 8G13G10G28G27
  -3005237.59848  -2340521.79344  23777469.0044   23777466.8554
     -1039.0784
   8914207.25047   6951372.31642  25262371.2074   25262373.5704
     -3349.5434
  -7986304.89549  -6203782.13346  21939203.4104   21939202.1724
       209.3594
  14423655.50448  11234248.19545  22985204.2234   22985202.9884
     -3727.8374
   -786823.65646   -607798.60242  24482648.2304   24482648.4964
     -1071.0394
  -7488683.50448  -5826323.30544  23393419.1844   23393418.1804
      1460.0034
   1255434.02749    982607.55546  21958763.7464   21958762.5124
      -930.3834
 04  9 13 22 22 15.0040000  0  7G19G 3G 8G13G10G28G27
  -2989511.59048  -2328267.76644  23780461.8164   23780459.1844
     -1048.4014
   8964556.14147   6990605.16042  25271952.0124   25271954.8754
     -3356.5934
  -7989387.23449  -6206183.96547  21938617.2544   21938615.7734
       205.4894
  14479664.52048  11277891.54344  22995862.3014   22995861.0784
     -3733.9344
   -770618.20747   -595170.99243  24485732.7304   24485732.2814
     -1080.3634
  -7510508.85948  -5843330.05944  23389265.8714   23389264.7734
      1455.0244
   1269440.44149    993521.64146  21961428.9734   21961427.9104
      -933.7614
 04  9 13 22 22 30.0040000  0  7G19G 3G 8G13G10G28G27
  -2973644.86348  -2315904.08644  23783481.4184   23783478.7584
     -1057.7824
   9015011.49247   7029920.96942  25281553.3324   25281555.4654
     -3363.6904
  -7992410.26649  -6208539.57047  21938041.8554   21938040.7694
       201.5354
  14535765.68048  11321606.69545  23006538.1684   23006536.9654
     -3740.0774
   -754272.01248   -582433.71143  24488843.0824   24488842.8444
     -1089.7464
  -7532258.38748  -5860277.72744  23385127.4884   23385126.0084
      1449.9684
   1283498.49649   1004475.95347  21964104.1524   21964102.9964
      -937.2044
 04  9 13 22 22 45.0040000  0  7G19G 3G 8G13G10G28G27
  -2957637.08648  -2303430.50444  23786526.7074   23786524.7974
     -1067.1854
   9065573.30947   7069319.69942  25291175.0664   25291177.4654
     -3370.7884
  -7995373.66449  -6210848.71546  21937477.8944   21937476.6024
       197.5604
  14591958.98048  11365393.64845  23017231.2304   23017230.1844
     -3746.2204
   -737784.77348   -569586.53543  24491980.4654   24491980.5434
     -1099.1494
  -7553931.82048  -5877166.09844  23381003.0514   23381001.6844
      1444.8964
   1297608.54349   1015470.78946  21966789.1684   21966788.0474
      -940.6704
 04  9 13 22 23  0.0040000  0  7G19G 3G 8G13G10G28G27
  -2941488.97348  -2290847.57444  23789600.1134   23789597.9494
     -1076.5414
   9116240.32847   7108800.45342  25300816.5194   25300819.4924
     -3377.8014
  -7998278.29349  -6213112.05947  21936925.1374   21936924.0944
       193.6424
  14648243.42648  11409251.61745  23027942.0984   23027941.0624
     -3752.2964
   -721157.50447   -556630.24642  24495144.6134   24495144.7464
     -1108.4854
  -7575529.93048  -5893995.78544  23376893.1524   23376891.6094
      1439.8744
   1311769.78149   1026505.50846  21969484.0434   21969482.5084
      -944.0834
 04  9 13 22 23 15.0040000  0  7G19G 3G 8G13G10G28G27
  -2925200.39148  -2278155.18044  23792699.8244   23792697.6254
     -1085.9054
   9167012.69147   7148363.29742  25310478.7624   25310480.8944
     -3384.8244
  -8001123.56649  -6215329.16047  21936383.7234   21936382.6444
       189.6854
  14704619.05948  11453180.64145  23038670.2074   23038668.9734
     -3758.3764
   -704389.96947   -543564.65243  24498335.3324   24498335.4614
     -1117.8364
  -7597052.27048  -5910766.43044  23372797.3714   23372795.7544
      1434.8234
   1325982.58649   1037580.40646  21972188.5594   21972187.4414
      -947.5204
 04  9 13 22 23 30.0040000  0  7G19G 3G 8G13G10G28G27
  -2908770.56648  -2265352.72744  23795826.2234   23795823.7664
     -1095.3224
   9217890.72746   7188008.40642  25320160.5514   25320162.9304
     -3391.8694
  -8003909.21549  -6217499.79747  21935853.4344   21935852.4734
       185.7104
  14761086.28148  11497181.03545  23049415.6294   23049414.2384
     -3764.4824
   -687481.65647   -530389.37142  24501552.7544   24501552.9804
     -1127.2214
  -7618498.07849  -5927477.43444  23368716.5044   23368715.2504
      1429.7214
   1340247.73849   1048696.10546  21974903.3484   21974901.6174
      -951.0104
 04  9 13 22 23 45.0040000  0  7G19G 3G 8G13G10G28G27
  -2892198.64148  -2252439.54744  23798979.5274   23798977.2304
     -1104.7954
   9268874.95746   7227736.36342  25329861.8404   25329864.3674
     -3398.9494
  -8006634.10549  -6219623.08646  21935335.0904   21935333.7114
       181.6594
  14817645.79748  11541253.34045  23060178.3874   23060177.1684
     -3770.6344
   -670431.87947   -517103.84843  24504797.0514   24504797.8244
     -1136.6524
  -7639866.50449  -5944128.14144  23364650.0514   23364648.5234
      1424.5624
   1354566.02749   1059853.20346  21977627.6604   21977626.5234
      -954.5534
 04  9 13 22 24  0.0040000  0  7G19G 3G 8G13G10G28G27
  -2875484.52048  -2239415.57444  23802160.4494   23802158.0864
     -1114.2754
   9319965.19947   7267546.85942  25339584.5274   25339586.5744
     -3406.0164
  -8009298.01649  -6221698.85546  21934828.3094   21934827.1174
       177.5944
  14874297.43048  11585397.44145  23070958.6134   23070957.7234
     -3776.7764
   -653240.62148   -503708.08643  24508068.7774   24508069.1174
     -1146.0844
  -7661157.41849  -5960718.44544  23360598.2854   23360597.1844
      1419.3944
   1368937.60949   1071051.82447  21980362.5744   21980361.1604
      -958.1054
 04  9 13 22 24 15.0040000  0  7G19G 3G 8G13G10G28G27
  -2858630.70748  -2226282.74244  23805367.0044   23805364.7624
     -1123.5874
   9371158.71546   7307437.85942  25349326.3244   25349328.9344
     -3412.9014
  -8011903.46549  -6223729.07846  21934332.4184   21934331.0194
       173.6974
  14931038.43848  11629611.16444  23081756.5514   23081754.8874
     -3782.7344
   -635910.53148   -490204.14143  24511366.3634   24511367.1094
     -1155.3394
  -7682373.16048  -5977250.17644  23356561.8164   23356559.9024
      1414.3834
   1383360.07449   1082290.10246  21983107.0664   21983105.5274
      -961.4984
 04  9 13 22 24 30.0040000  0  7G19G 3G 8G13G10G28G27
  -2841635.64148  -2213039.84044  23808601.8014   23808599.0944
     -1133.0044
   9422456.77047   7347410.30942  25359088.8404   25359090.6054
     -3419.8704
  -8014448.73049  -6225712.40246  21933848.0124   21933846.9494
       169.6844
  14987870.14848  11673895.57444  23092571.1054   23092569.7464
     -3788.7814
   -618440.07847   -476590.81643  24514691.2464   24514692.0234
     -1164.6974
  -7703512.05549  -5993722.03144  23352538.4344   23352536.9614
      1409.2604
   1397835.09449   1093569.32846  21985861.8094   21985860.1414
      -965.0014
 04  9 13 22 24 45.0040000  0  7G19G 3G 8G13G10G28G27
  -2824498.60548  -2199686.30944  23811862.4574   23811860.0864
     -1142.4694
   9473859.66447   7387464.42642  25368869.7934   25368872.6764
     -3426.8604
  -8016933.27349  -6227648.40647  21933375.2464   21933373.9304
       165.6364
  15044793.09448  11718251.07044  23103403.5044   23103401.9494
     -3794.8634
   -600828.68447   -462867.68743  24518042.6604   24518043.2584
     -1174.0934
  -7724573.38349  -6010133.44544  23348530.8874   23348529.7424
      1404.0894
   1412363.49649   1104890.15646  21988626.4734   21988624.9844
      -968.5604
 04  9 13 22 25  0.0040000  0  7G19G 3G 8G13G10G28G27
  -2807220.01248  -2186222.49244  23815150.6214   23815148.0274
     -1151.9064
   9525366.65646   7427599.66042  25378671.1524   25378674.2584
     -3433.7994
  -8019357.24249  -6229537.21146  21932913.9884   21932912.3674
       161.5984
  15101806.63348  11762677.17244  23114252.7464   23114251.5554
     -3800.9034
   -583076.80548   -449035.08243  24521420.9654   24521421.4614
     -1183.4594
  -7745557.48849  -6026484.67244  23344537.9414   23344536.3794
      1398.9404
   1426944.70349   1116252.12546  21991401.1764   21991399.7154
      -972.0804
